GFSGL_850_dewp_000.txt.gz
Dewpoint
1 1 -0 -2 -3 -3 -4 -3 -2 -3 -6 -5 -5 -7 -6 -4 -6 -6 -7 -8 -7 -7 -6 -4 -4 -4 -4 -4 -4 -5 -7 -9 -8 -9 -9 -9 -9 -9 -7 -5 -3 -5 -6
1 0 -1 -3 -3 -3 -3 -2 -4 -5 -4 -4 -5 -5 -6 -7 -7 -7 -8 -8 -7 -6 -5 -6 -7 -7 -8 -7 -7 -6 -9 -9 -10 -10 -10 -10 -11 -11 -10 -10 -9 -7 -7
0 0 -1 -3 -4 -4 -4 -5 -5 -6 -7 -7 -9 -11 -11 -12 -11 -11 -11 -9 -8 -8 -11 -11 -9 -9 -9 -9 -11 -10 -10 -9 -9 -9 -10 -10 -11 -11 -11 -11 -10 -10 -9
0 -1 -2 -2 -4 -5 -6 -7 -7 -8 -10 -11 -12 -12 -12 -11 -11 -11 -11 -11 -12 -12 -14 -16 -12 -11 -9 -9 -8 -8 -9 -9 -8 -9 -10 -11 -11 -11 -12 -13 -13 -12 -11
-1 -1 -3 -3 -4 -6 -6 -7 -8 -11 -12 -13 -13 -12 -12 -11 -11 -11 -11 -10 -10 -11 -12 -14 -15 -12 -11 -11 -9 -8 -9 -10 -13 -13 -13 -11 -10 -11 -11 -9 -8 -8 -8
-2 -3 -3 -2 -4 -5 -5 -7 -9 -12 -13 -13 -12 -12 -11 -10 -9 -10 -10 -9 -10 -10 -11 -14 -13 -12 -12 -11 -10 -9 -10 -12 -12 -12 -12 -11 -10 -10 -9 -9 -9 -8 -8
-6 -6 -4 -2 -3 -4 -5 -6 -9 -11 -13 -12 -12 -11 -11 -9 -9 -9 -9 -9 -11 -13 -13 -11 -11 -10 -10 -9 -9 -9 -9 -9 -9 -9 -9 -10 -11 -12 -11 -10 -10 -9 -8
-9 -7 -3 -3 -5 -4 -5 -5 -8 -12 -13 -12 -11 -10 -10 -9 -9 -10 -11 -11 -12 -14 -13 -12 -12 -11 -11 -10 -10 -10 -11 -11 -11 -10 -11 -11 -9 -10 -10 -10 -9 -9 -10
-10 -6 -4 -4 -5 -7 -5 -6 -9 -12 -12 -11 -10 -9 -9 -10 -11 -10 -9 -11 -12 -14 -14 -12 -11 -12 -12 -12 -11 -12 -13 -13 -13 -12 -11 -10 -10 -10 -10 -10 -10 -10 -9
-6 -5 -4 -5 -5 -5 -5 -7 -12 -12 -11 -10 -10 -10 -11 -12 -9 -9 -10 -11 -12 -13 -13 -13 -13 -12 -11 -11 -10 -10 -10 -11 -10 -11 -10 -11 -11 -11 -10 -9 -9 -9 -12
-4 -4 -5 -4 -6 -7 -8 -12 -12 -12 -11 -10 -9 -10 -12 -10 -9 -10 -11 -11 -12 -13 -13 -13 -12 -11 -11 -11 -11 -12 -12 -12 -12 -12 -13 -13 -12 -12 -11 -11 -10 -9 -9
-5 -4 -5 -6 -8 -8 -11 -12 -12 -12 -11 -10 -10 -11 -10 -11 -11 -12 -11 -12 -13 -13 -13 -12 -12 -12 -12 -12 -12 -12 -12 -12 -12 -12 -11 -11 -10 -10 -10 -10 -10 -9 -9
-7 -6 -6 -8 -8 -10 -10 -12 -11 -11 -10 -11 -11 -12 -12 -12 -13 -12 -13 -14 -14 -13 -13 -13 -12 -12 -13 -12 -12 -12 -12 -12 -11 -11 -11 -11 -10 -10 -10 -10 -9 -9 -8
-6 -6 -7 -8 -9 -10 -10 -10 -11 -10 -11 -11 -11 -13 -13 -14 -15 -14 -15 -14 -14 -14 -13 -13 -13 -13 -13 -12 -12 -12 -12 -12 -12 -11 -11 -11 -10 -10 -9 -9 -8 -7 -8
-7 -7 -10 -9 -8 -8 -9 -9 -9 -9 -10 -10 -11 -12 -12 -14 -14 -14 -14 -14 -14 -14 -13 -13 -14 -14 -13 -13 -13 -13 -12 -12 -12 -12 -11 -11 -10 -10 -9 -8 -8 -8 -8
-8 -10 -8 -8 -9 -9 -8 -9 -9 -10 -9 -11 -11 -11 -12 -13 -14 -14 -14 -14 -14 -14 -14 -14 -14 -14 -14 -14 -14 -14 -13 -13 -13 -12 -12 -11 -11 -10 -9 -9 -8 -7 -8
-9 -9 -8 -9 -7 -7 -8 -8 -9 -9 -9 -10 -9 -11 -11 -12 -13 -14 -14 -14 -14 -14 -14 -14 -14 -15 -15 -14 -14 -14 -13 -13 -13 -12 -12 -12 -11 -10 -10 -10 -9 -9 -8
-7 -8 -9 -8 -8 -8 -8 -8 -8 -9 -10 -10 -10 -10 -11 -11 -14 -14 -14 -15 -15 -15 -15 -15 -15 -15 -15 -15 -15 -14 -13 -13 -14 -13 -12 -12 -12 -11 -10 -10 -10 -10 -9
-7 -7 -8 -10 -8 -8 -8 -8 -9 -9 -10 -10 -10 -10 -10 -13 -14 -13 -14 -15 -16 -16 -16 -16 -16 -15 -15 -16 -15 -15 -14 -14 -14 -14 -13 -12 -11 -11 -11 -11 -11 -10 -10
-8 -7 -7 -8 -8 -8 -8 -8 -9 -9 -10 -10 -11 -10 -11 -13 -14 -14 -14 -15 -16 -18 -17 -17 -16 -16 -17 -17 -17 -16 -15 -15 -15 -14 -13 -12 -12 -12 -11 -12 -12 -12 -11
-7 -7 -8 -8 -8 -8 -8 -9 -9 -9 -10 -10 -11 -11 -11 -12 -13 -13 -14 -14 -15 -23 -25 -23 -19 -21 -25 -24 -23 -20 -18 -18 -18 -17 -14 -13 -13 -13 -12 -12 -12 -12 -12
-7 -8 -8 -8 -9 -9 -9 -9 -9 -9 -10 -10 -11 -11 -12 -12 -12 -14 -13 -14 -14 -15 -25 -28 -28 -28 -29 -30 -29 -29 -30 -30 -29 -27 -18 -15 -14 -14 -13 -12 -13 -13 -12
-9 -8 -9 -9 -9 -9 -9 -9 -9 -9 -10 -10 -10 -11 -11 -12 -12 -13 -13 -14 -14 -15 -17 -28 -30 -30 -30 -31 -30 -30 -31 -31 -32 -31 -23 -18 -16 -16 -13 -13 -12 -13 -14
-10 -9 -9 -9 -9 -9 -9 -9 -9 -9 -10 -10 -10 -11 -11 -11 -12 -13 -13 -13 -14 -15 -18 -20 -25 -30 -31 -31 -30 -30 -30 -31 -32 -32 -30 -22 -20 -20 -17 -15 -15 -13 -14
-9 -9 -9 -10 -10 -10 -9 -10 -9 -9 -9 -10 -10 -10 -11 -11 -12 -12 -13 -13 -14 -16 -21 -24 -30 -31 -30 -30 -29 -30 -29 -29 -30 -32 -32 -31 -30 -29 -25 -20 -22 -16 -15
-10 -9 -9 -10 -9 -9 -10 -10 -9 -9 -9 -10 -10 -10 -11 -11 -12 -12 -12 -13 -14 -15 -20 -20 -22 -25 -27 -27 -28 -29 -29 -28 -29 -30 -31 -32 -33 -33 -33 -32 -28 -23 -22

GFSGL_850_dewp_003.txt.gz
Dewpoint
1 -0 -2 -1 -2 -3 -3 -3 -3 -3 -5 -10 -8 -7 -8 -10 -11 -12 -11 -11 -10 -9 -8 -6 -7 -7 -7 -7 -7 -6 -6 -5 -5 -6 -8 -10 -11 -10 -10 -8 -4 -3 -2
-3 -3 -1 -0 -2 -3 -4 -3 -4 -8 -8 -8 -8 -10 -12 -13 -13 -12 -11 -11 -10 -8 -8 -8 -9 -12 -16 -10 -8 -7 -8 -10 -9 -6 -8 -9 -9 -10 -10 -10 -9 -4 -4
-6 -2 -0 -0 -0 -1 -2 -4 -6 -7 -7 -9 -11 -13 -14 -13 -12 -12 -12 -11 -11 -11 -11 -12 -12 -14 -16 -16 -11 -9 -9 -8 -9 -9 -9 -9 -10 -10 -11 -11 -11 -10 -5
-10 -3 -4 -4 -1 -2 -4 -4 -5 -6 -9 -12 -13 -14 -15 -13 -12 -12 -11 -11 -10 -11 -11 -10 -11 -12 -14 -15 -11 -10 -9 -9 -9 -9 -10 -10 -10 -10 -11 -12 -12 -11 -11
-12 -10 -6 -3 -2 -3 -2 -4 -4 -6 -12 -14 -13 -15 -13 -12 -12 -11 -10 -10 -10 -10 -10 -13 -15 -16 -12 -11 -10 -10 -10 -9 -9 -10 -10 -12 -14 -15 -15 -12 -10 -10 -8
-12 -11 -9 -7 -4 -2 -2 -2 -6 -9 -12 -12 -14 -14 -12 -11 -10 -10 -9 -9 -9 -12 -12 -14 -16 -12 -10 -9 -9 -9 -8 -8 -9 -11 -11 -12 -12 -12 -13 -13 -10 -10 -10
-12 -11 -6 -4 -4 -5 -5 -3 -7 -7 -10 -12 -14 -12 -11 -10 -10 -8 -9 -11 -11 -11 -12 -15 -15 -13 -13 -12 -11 -10 -10 -10 -9 -9 -9 -10 -10 -12 -12 -13 -13 -12 -10
-11 -9 -7 -6 -6 -5 -5 -4 -6 -8 -11 -13 -12 -11 -11 -9 -10 -12 -11 -10 -10 -10 -13 -14 -14 -12 -12 -11 -13 -13 -12 -13 -13 -13 -13 -13 -13 -12 -12 -10 -9 -9 -10
-9 -8 -7 -6 -5 -4 -4 -5 -7 -11 -13 -12 -12 -12 -10 -10 -12 -11 -10 -10 -11 -12 -13 -14 -14 -13 -13 -12 -12 -12 -12 -12 -13 -12 -12 -11 -10 -10 -10 -10 -10 -11 -12
-9 -8 -7 -7 -5 -4 -7 -7 -10 -12 -12 -11 -11 -10 -10 -12 -11 -10 -10 -11 -12 -12 -13 -14 -14 -12 -11 -11 -12 -12 -12 -13 -12 -12 -12 -12 -13 -11 -10 -10 -10 -9 -9
-8 -8 -8 -7 -6 -7 -7 -10 -12 -12 -12 -11 -11 -10 -11 -13 -12 -11 -12 -11 -12 -13 -13 -13 -13 -13 -13 -12 -12 -12 -12 -12 -12 -12 -13 -13 -13 -13 -13 -13 -12 -12 -10
-8 -7 -7 -7 -7 -9 -9 -10 -11 -11 -11 -11 -11 -11 -12 -14 -14 -17 -15 -14 -14 -13 -13 -13 -13 -12 -12 -13 -12 -12 -12 -12 -12 -12 -12 -11 -11 -11 -11 -10 -10 -10 -10
-7 -8 -7 -7 -8 -8 -10 -10 -10 -11 -10 -10 -11 -11 -13 -13 -15 -15 -15 -15 -14 -14 -13 -13 -13 -13 -13 -13 -13 -13 -13 -12 -12 -12 -12 -11 -11 -11 -11 -11 -10 -10 -9
-8 -9 -9 -8 -10 -8 -8 -10 -10 -9 -9 -10 -10 -11 -12 -13 -14 -14 -14 -14 -14 -14 -14 -14 -14 -13 -13 -13 -13 -13 -13 -13 -13 -12 -12 -11 -11 -10 -10 -10 -9 -9 -8
-7 -9 -12 -13 -10 -9 -8 -8 -8 -9 -10 -10 -10 -10 -11 -12 -13 -13 -13 -14 -13 -13 -14 -14 -14 -15 -14 -14 -14 -14 -13 -13 -13 -13 -12 -12 -11 -10 -10 -9 -8 -8 -8
-6 -10 -11 -11 -10 -6 -6 -7 -8 -9 -10 -10 -10 -10 -11 -12 -13 -13 -13 -13 -13 -14 -14 -14 -14 -15 -15 -15 -15 -14 -14 -14 -13 -12 -12 -12 -11 -10 -10 -9 -9 -8 -8
-6 -8 -9 -10 -9 -7 -7 -7 -8 -10 -9 -10 -10 -9 -10 -12 -12 -14 -14 -15 -18 -16 -16 -15 -15 -15 -15 -15 -15 -14 -14 -14 -13 -13 -12 -12 -11 -10 -10 -11 -10 -10 -10
-6 -7 -8 -7 -8 -9 -8 -8 -8 -9 -10 -10 -10 -10 -10 -11 -11 -15 -14 -15 -18 -23 -18 -16 -15 -16 -16 -16 -16 -15 -14 -14 -14 -13 -12 -12 -11 -11 -11 -11 -11 -10 -10
-6 -6 -7 -7 -7 -9 -8 -8 -9 -9 -9 -10 -10 -10 -10 -10 -12 -15 -14 -15 -16 -22 -23 -19 -17 -17 -18 -19 -18 -17 -16 -15 -15 -14 -13 -12 -12 -12 -11 -11 -11 -11 -11
-6 -7 -7 -7 -8 -9 -9 -9 -9 -9 -10 -10 -10 -10 -10 -10 -11 -13 -14 -14 -14 -17 -27 -26 -23 -24 -26 -26 -24 -22 -22 -23 -20 -15 -13 -13 -13 -12 -11 -12 -11 -12 -12
-7 -7 -7 -7 -9 -9 -9 -9 -9 -9 -10 -10 -10 -10 -11 -11 -12 -12 -12 -13 -15 -15 -17 -27 -27 -28 -29 -30 -29 -29 -30 -31 -29 -22 -15 -14 -13 -13 -12 -12 -12 -12 -12
-7 -7 -7 -8 -9 -9 -9 -9 -9 -9 -10 -10 -10 -10 -11 -11 -11 -11 -12 -12 -14 -15 -16 -18 -27 -29 -29 -30 -30 -30 -30 -32 -32 -29 -20 -17 -16 -14 -13 -13 -12 -14 -13
-10 -11 -9 -8 -9 -9 -9 -9 -9 -10 -10 -10 -10 -10 -11 -11 -11 -11 -12 -12 -13 -14 -15 -19 -22 -25 -28 -29 -29 -29 -29 -30 -31 -32 -29 -21 -21 -19 -15 -14 -14 -13 -14
-10 -11 -11 -9 -9 -10 -9 -10 -10 -10 -10 -10 -10 -10 -10 -10 -11 -12 -12 -12 -12 -13 -15 -18 -21 -25 -30 -30 -29 -29 -29 -29 -29 -31 -31 -30 -29 -26 -23 -19 -16 -13 -15
-7 -8 -8 -8 -9 -10 -10 -10 -9 -9 -9 -10 -10 -10 -10 -11 -11 -11 -12 -12 -12 -13 -14 -17 -19 -19 -23 -25 -26 -27 -28 -28 -28 -29 -30 -30 -32 -32 -32 -29 -26 -22 -22
-7 -8 -9 -9 -9 -10 -10 -10 -10 -10 -9 -10 -10 -10 -10 -11 -11 -11 -12 -12 -12 -12 -13 -14 -18 -19 -17 -16 -15 -16 -22 -27 -25 -26 -29 -30 -32 -33 -33 -34 -33 -32 -32

GFSGL_850_dewp_006.txt.gz
Dewpoint
-7 -7 -8 -6 -3 -1 -2 -2 -2 -2 -1 -4 -10 -9 -13 -14 -13 -13 -13 -13 -12 -12 -10 -8 -8 -9 -10 -11 -13 -16 -10 -6 -5 -7 -9 -8 -8 -9 -10 -10 -9 -7 -5
-10 -11 -6 -1 -1 -2 -2 -2 -1 -1 -5 -6 -7 -9 -13 -14 -14 -14 -14 -13 -12 -11 -11 -11 -11 -12 -14 -12 -13 -15 -17 -11 -8 -6 -6 -8 -9 -9 -9 -10 -11 -9 -7
-11 -11 -12 -12 -11 -6 -2 -2 -3 -6 -6 -3 -10 -12 -14 -15 -15 -13 -12 -11 -11 -10 -10 -10 -10 -11 -13 -14 -14 -14 -16 -15 -8 -7 -7 -7 -9 -9 -9 -10 -11 -11 -8
-11 -12 -13 -15 -10 -5 -1 -4 -4 -2 -5 -9 -12 -14 -14 -14 -13 -12 -11 -10 -10 -9 -9 -9 -12 -14 -15 -15 -11 -10 -10 -12 -11 -10 -9 -9 -10 -9 -10 -12 -10 -11 -10
-12 -13 -14 -15 -10 -8 -6 -6 -4 -8 -9 -10 -13 -12 -14 -13 -12 -10 -10 -9 -9 -10 -13 -12 -12 -14 -16 -11 -10 -9 -9 -8 -8 -8 -8 -10 -10 -12 -13 -14 -15 -16 -13
-13 -13 -13 -13 -11 -8 -7 -4 -4 -5 -11 -8 -8 -14 -13 -11 -10 -9 -9 -11 -13 -12 -11 -11 -12 -15 -15 -13 -13 -11 -10 -10 -10 -9 -9 -9 -10 -12 -13 -14 -14 -13 -15
-11 -11 -11 -11 -9 -7 -6 -3 -5 -4 -5 -8 -13 -13 -11 -10 -9 -10 -11 -10 -10 -10 -11 -12 -13 -14 -15 -13 -13 -12 -13 -13 -11 -11 -11 -11 -11 -12 -12 -12 -13 -13 -13
-11 -11 -10 -9 -9 -8 -4 -4 -4 -5 -7 -12 -13 -12 -11 -10 -10 -12 -11 -10 -10 -11 -12 -13 -13 -14 -14 -13 -12 -11 -12 -12 -13 -12 -12 -13 -13 -14 -14 -13 -13 -12 -11
-10 -10 -9 -8 -9 -7 -6 -7 -6 -6 -11 -12 -11 -10 -10 -10 -12 -13 -13 -13 -13 -13 -13 -15 -13 -13 -13 -12 -12 -12 -13 -13 -13 -12 -11 -11 -12 -11 -11 -10 -10 -10 -10
-10 -9 -8 -7 -7 -7 -7 -7 -7 -11 -12 -11 -10 -10 -11 -12 -13 -15 -16 -15 -14 -15 -14 -14 -14 -13 -12 -13 -12 -12 -12 -13 -13 -14 -14 -13 -12 -12 -11 -11 -10 -10 -9
-8 -7 -7 -7 -7 -7 -9 -9 -9 -8 -8 -11 -10 -10 -11 -12 -14 -16 -15 -13 -13 -13 -14 -14 -13 -13 -13 -13 -13 -13 -12 -12 -12 -12 -13 -13 -13 -14 -14 -14 -14 -13 -13
-6 -6 -9 -8 -7 -8 -8 -8 -8 -9 -10 -10 -10 -10 -11 -13 -15 -16 -15 -13 -13 -13 -14 -13 -13 -13 -13 -13 -13 -12 -13 -13 -12 -12 -12 -12 -12 -12 -11 -11 -11 -10 -10
-6 -7 -9 -10 -8 -9 -8 -8 -9 -10 -9 -9 -10 -11 -12 -13 -14 -17 -15 -14 -14 -14 -14 -13 -14 -14 -13 -13 -14 -13 -13 -13 -13 -12 -12 -12 -12 -11 -11 -11 -11 -10 -10
-6 -5 -7 -10 -13 -12 -9 -8 -9 -8 -8 -9 -11 -11 -11 -12 -13 -16 -14 -14 -14 -14 -14 -14 -14 -16 -14 -14 -14 -13 -13 -13 -13 -13 -12 -12 -11 -11 -10 -10 -10 -9 -9
-4 -5 -7 -11 -11 -11 -8 -7 -7 -7 -8 -10 -11 -10 -11 -12 -12 -14 -13 -14 -14 -14 -14 -15 -16 -17 -17 -16 -15 -14 -14 -14 -13 -12 -12 -12 -11 -10 -10 -9 -9 -8 -9
-5 -5 -6 -8 -10 -10 -7 -7 -7 -8 -10 -10 -10 -10 -10 -11 -12 -13 -14 -16 -19 -21 -18 -16 -17 -16 -16 -16 -15 -15 -15 -14 -13 -13 -12 -12 -11 -10 -10 -10 -9 -9 -8
-6 -5 -6 -7 -7 -7 -7 -7 -9 -9 -10 -10 -10 -10 -11 -10 -12 -13 -15 -16 -17 -24 -21 -18 -17 -17 -17 -17 -16 -15 -15 -14 -14 -13 -12 -12 -11 -11 -11 -11 -10 -10 -9
-5 -6 -6 -6 -6 -7 -8 -9 -9 -9 -10 -10 -11 -11 -11 -10 -11 -12 -15 -15 -16 -20 -26 -21 -19 -20 -22 -22 -20 -18 -17 -16 -14 -13 -12 -12 -12 -12 -12 -11 -11 -10 -10
-6 -6 -6 -6 -6 -7 -8 -10 -9 -10 -10 -10 -10 -11 -11 -11 -11 -11 -13 -13 -15 -16 -21 -27 -25 -24 -27 -28 -26 -24 -23 -24 -18 -14 -13 -13 -12 -12 -12 -12 -11 -11 -11
-7 -7 -6 -7 -7 -8 -9 -10 -10 -10 -10 -10 -10 -11 -11 -11 -11 -11 -12 -12 -12 -15 -16 -22 -27 -28 -28 -30 -29 -30 -30 -31 -28 -17 -14 -13 -13 -12 -12 -12 -13 -12 -12
-7 -7 -7 -7 -8 -8 -9 -10 -10 -10 -10 -10 -9 -10 -11 -11 -10 -11 -12 -12 -12 -13 -15 -17 -19 -26 -29 -30 -30 -30 -30 -32 -32 -23 -17 -15 -14 -13 -13 -13 -13 -13 -13
-7 -7 -7 -8 -8 -9 -9 -9 -9 -9 -10 -10 -10 -10 -11 -11 -11 -11 -11 -12 -12 -13 -14 -16 -20 -24 -26 -27 -23 -25 -29 -29 -31 -32 -26 -20 -19 -16 -14 -13 -13 -13 -14
-6 -8 -10 -11 -10 -9 -9 -9 -10 -10 -10 -10 -10 -10 -9 -9 -10 -11 -12 -12 -12 -13 -13 -14 -19 -20 -24 -29 -29 -28 -26 -25 -27 -29 -31 -30 -27 -24 -20 -16 -16 -14 -14
-6 -7 -9 -9 -10 -10 -10 -10 -10 -10 -9 -10 -10 -10 -10 -10 -11 -11 -12 -12 -12 -12 -13 -13 -15 -18 -19 -19 -24 -27 -28 -27 -27 -27 -29 -30 -31 -31 -30 -26 -22 -18 -20
-6 -7 -7 -8 -8 -9 -9 -10 -10 -10 -10 -9 -10 -10 -10 -11 -11 -11 -12 -12 -12 -13 -13 -13 -13 -15 -19 -18 -15 -15 -16 -21 -25 -25 -27 -29 -31 -32 -33 -33 -32 -30 -30
-6 -7 -7 -7 -7 -8 -9 -10 -10 -10 -10 -9 -10 -10 -10 -10 -11 -11 -11 -12 -12 -13 -13 -13 -13 -14 -15 -17 -15 -15 -15 -15 -16 -16 -15 -16 -24 -33 -35 -34 -31 -31 -31

GFSGL_850_dewp_009.txt.gz
Dewpoint
-9 -10 -12 -12 -13 -13 -14 -10 -2 -2 -2 -2 -3 -6 -5 -11 -14 -15 -16 -14 -13 -12 -11 -10 -10 -11 -10 -11 -11 -12 -13 -13 -14 -16 -12 -10 -7 -7 -6 -9 -11 -10 -9
-8 -11 -12 -13 -15 -19 -15 -6 -2 -2 -1 -2 -4 -4 -11 -13 -14 -15 -14 -13 -12 -11 -10 -10 -9 -9 -9 -10 -12 -15 -16 -15 -14 -14 -15 -8 -8 -9 -7 -7 -10 -10 -8
-11 -12 -13 -14 -16 -17 -19 -10 -5 -6 -6 -3 -4 -7 -12 -14 -14 -13 -13 -12 -11 -10 -9 -9 -9 -12 -13 -14 -15 -16 -14 -12 -11 -11 -13 -7 -8 -8 -9 -9 -12 -11 -10
-13 -13 -12 -14 -14 -13 -13 -10 -6 -5 -3 -6 -7 -11 -14 -12 -14 -13 -11 -10 -9 -9 -10 -12 -12 -12 -12 -14 -15 -13 -10 -9 -9 -8 -10 -8 -8 -9 -11 -11 -13 -11 -12
-12 -11 -13 -12 -12 -11 -11 -11 -7 -3 -3 -5 -8 -12 -8 -13 -13 -11 -10 -9 -10 -12 -11 -10 -10 -11 -12 -14 -12 -12 -13 -11 -10 -10 -9 -8 -9 -10 -10 -12 -13 -15 -14
-11 -11 -11 -11 -11 -10 -10 -7 -6 -3 -3 -8 -7 -8 -12 -13 -11 -10 -10 -11 -12 -10 -10 -11 -11 -13 -14 -14 -14 -11 -11 -11 -11 -11 -11 -10 -10 -9 -10 -11 -12 -14 -16
-10 -10 -10 -10 -9 -9 -10 -8 -4 -4 -4 -5 -7 -10 -12 -11 -11 -10 -11 -12 -12 -12 -13 -12 -12 -13 -14 -13 -13 -13 -13 -12 -11 -11 -11 -11 -11 -12 -12 -12 -13 -14 -14
-9 -10 -10 -8 -8 -8 -8 -6 -6 -6 -6 -6 -11 -12 -11 -11 -10 -12 -13 -15 -17 -16 -14 -15 -14 -13 -12 -12 -12 -11 -12 -13 -12 -11 -11 -11 -11 -12 -12 -13 -14 -13 -13
-10 -10 -8 -7 -7 -7 -7 -7 -7 -7 -8 -12 -11 -10 -10 -10 -11 -13 -16 -17 -16 -15 -15 -14 -13 -13 -13 -12 -12 -12 -12 -13 -14 -14 -14 -13 -11 -11 -11 -11 -10 -10 -10
-11 -8 -6 -7 -8 -8 -7 -8 -9 -10 -10 -9 -7 -9 -10 -11 -12 -15 -17 -16 -15 -15 -14 -14 -14 -14 -13 -13 -13 -13 -13 -13 -12 -13 -13 -13 -13 -13 -12 -11 -11 -10 -9
-7 -6 -6 -7 -9 -8 -7 -7 -8 -7 -7 -8 -10 -10 -10 -11 -13 -16 -17 -16 -14 -13 -14 -14 -14 -13 -13 -13 -13 -13 -12 -12 -13 -13 -13 -12 -12 -12 -13 -14 -12 -12 -12
-6 -6 -6 -6 -9 -9 -8 -9 -9 -9 -10 -10 -9 -9 -11 -12 -13 -15 -17 -16 -13 -14 -14 -14 -13 -14 -13 -13 -13 -13 -13 -13 -12 -12 -12 -12 -12 -12 -11 -11 -12 -13 -14
-9 -8 -6 -5 -8 -11 -13 -9 -8 -9 -9 -8 -9 -10 -11 -12 -12 -14 -16 -16 -19 -15 -14 -14 -14 -15 -17 -16 -14 -14 -14 -13 -13 -13 -13 -12 -12 -11 -11 -11 -11 -11 -10
-8 -6 -5 -5 -9 -12 -12 -10 -8 -8 -7 -8 -9 -10 -11 -11 -12 -13 -16 -16 -20 -24 -18 -15 -15 -18 -18 -17 -15 -14 -14 -14 -13 -13 -12 -12 -12 -11 -11 -10 -10 -10 -10
-7 -6 -5 -5 -7 -10 -11 -7 -7 -7 -8 -9 -10 -10 -10 -11 -11 -13 -14 -16 -18 -25 -25 -23 -22 -21 -20 -19 -17 -15 -15 -14 -13 -13 -12 -12 -11 -10 -10 -10 -9 -9 -9
-6 -7 -6 -5 -7 -7 -8 -8 -8 -8 -9 -9 -9 -9 -10 -10 -11 -13 -14 -15 -16 -21 -27 -25 -23 -21 -22 -21 -21 -18 -16 -15 -14 -13 -12 -12 -11 -11 -11 -10 -9 -9 -9
-6 -6 -6 -6 -7 -7 -7 -7 -9 -10 -9 -10 -10 -10 -11 -10 -11 -12 -13 -14 -15 -16 -26 -27 -25 -26 -27 -25 -24 -20 -19 -17 -14 -13 -12 -12 -12 -11 -11 -11 -10 -10 -9
-6 -7 -6 -6 -7 -7 -8 -8 -9 -9 -9 -11 -10 -11 -11 -11 -11 -12 -12 -12 -13 -15 -16 -24 -27 -28 -29 -29 -27 -27 -29 -26 -17 -14 -13 -12 -12 -12 -12 -12 -11 -11 -10
-6 -7 -7 -7 -7 -7 -8 -9 -9 -9 -10 -10 -10 -10 -11 -11 -11 -11 -11 -12 -12 -13 -16 -16 -23 -28 -29 -29 -30 -30 -30 -30 -27 -15 -13 -13 -13 -12 -12 -12 -12 -12 -12
-6 -7 -7 -7 -7 -8 -9 -9 -9 -9 -10 -10 -10 -11 -11 -11 -12 -11 -11 -12 -13 -13 -14 -16 -18 -20 -25 -29 -29 -29 -29 -31 -31 -22 -16 -14 -14 -13 -13 -13 -13 -13 -13
-6 -7 -7 -7 -8 -8 -9 -9 -9 -9 -10 -11 -10 -10 -10 -10 -12 -11 -11 -11 -12 -13 -13 -14 -16 -21 -26 -27 -24 -19 -24 -28 -31 -32 -26 -20 -19 -17 -14 -13 -13 -13 -14
-7 -6 -7 -7 -8 -8 -8 -10 -9 -10 -9 -10 -11 -10 -10 -10 -10 -10 -11 -12 -12 -13 -13 -13 -15 -19 -20 -23 -28 -29 -27 -26 -26 -29 -31 -29 -25 -23 -19 -15 -15 -15 -14
-7 -7 -6 -7 -10 -11 -10 -9 -10 -9 -9 -10 -10 -10 -10 -10 -10 -10 -11 -12 -12 -12 -13 -13 -14 -15 -18 -19 -19 -22 -26 -27 -26 -25 -27 -29 -30 -30 -30 -25 -22 -21 -19
-7 -7 -6 -7 -8 -8 -9 -10 -11 -10 -10 -10 -9 -10 -11 -11 -10 -11 -11 -12 -13 -13 -13 -13 -14 -14 -15 -18 -18 -16 -15 -16 -21 -25 -24 -27 -29 -31 -32 -32 -31 -30 -28
-7 -7 -7 -7 -7 -8 -8 -8 -9 -9 -10 -10 -10 -10 -10 -10 -10 -11 -11 -11 -13 -13 -13 -13 -13 -14 -14 -14 -16 -15 -15 -15 -16 -17 -17 -16 -18 -29 -34 -34 -33 -32 -32
-8 -7 -7 -7 -7 -7 -7 -8 -8 -8 -9 -10 -10 -10 -9 -10 -10 -11 -11 -12 -13 -13 -13 -13 -13 -14 -14 -14 -15 -15 -15 -15 -15 -15 -15 -15 -15 -15 -20 -30 -31 -29 -28

GFSGL_850_dewp_012.txt.gz
Dewpoint
-9 -10 -12 -13 -14 -17 -19 -20 -20 -12 -3 -3 -3 -3 -4 -4 -11 -13 -14 -14 -13 -12 -11 -11 -10 -10 -10 -9 -9 -12 -13 -15 -15 -16 -16 -16 -15 -14 -8 -6 -6 -9 -5
-10 -12 -12 -12 -14 -16 -19 -19 -18 -14 -4 -4 -5 -6 -4 -4 -12 -14 -14 -13 -12 -12 -11 -10 -10 -9 -9 -13 -13 -12 -13 -15 -14 -11 -13 -16 -15 -10 -9 -8 -9 -6 -8
-12 -12 -11 -12 -13 -15 -16 -17 -16 -13 -5 -5 -5 -3 -4 -10 -14 -10 -13 -13 -11 -11 -10 -9 -9 -11 -12 -11 -11 -12 -14 -15 -11 -10 -10 -10 -12 -8 -7 -8 -8 -9 -8
-12 -11 -11 -11 -12 -14 -15 -13 -12 -8 -5 -4 -3 -6 -7 -13 -11 -12 -13 -11 -11 -10 -10 -11 -11 -10 -10 -10 -11 -12 -13 -12 -13 -12 -11 -10 -9 -11 -8 -9 -9 -12 -12
-11 -11 -10 -11 -12 -14 -11 -10 -11 -7 -6 -4 -4 -7 -11 -10 -11 -12 -11 -11 -10 -11 -11 -12 -12 -12 -11 -11 -12 -12 -12 -12 -12 -11 -11 -12 -10 -9 -8 -9 -10 -11 -14
-11 -10 -10 -10 -13 -11 -9 -9 -8 -5 -4 -6 -5 -5 -7 -10 -11 -11 -11 -11 -11 -13 -17 -16 -15 -15 -15 -12 -13 -12 -12 -12 -12 -12 -12 -12 -12 -11 -10 -9 -9 -11 -13
-10 -9 -9 -11 -9 -10 -9 -8 -8 -6 -6 -6 -5 -6 -8 -11 -10 -10 -11 -11 -15 -18 -16 -15 -15 -15 -14 -13 -13 -13 -12 -12 -11 -11 -11 -12 -11 -11 -11 -11 -11 -11 -13
-10 -9 -11 -9 -7 -9 -9 -9 -8 -7 -7 -6 -7 -11 -11 -9 -9 -10 -11 -15 -19 -17 -16 -15 -14 -14 -14 -13 -12 -12 -12 -12 -12 -12 -12 -13 -12 -11 -11 -12 -12 -12 -13
-9 -12 -9 -7 -6 -9 -9 -9 -8 -8 -8 -10 -11 -10 -7 -9 -10 -11 -14 -18 -17 -17 -15 -14 -14 -14 -14 -12 -13 -13 -13 -13 -12 -12 -12 -12 -13 -14 -11 -10 -12 -11 -11
-13 -8 -8 -6 -6 -6 -9 -8 -8 -7 -7 -7 -7 -8 -9 -9 -11 -13 -16 -17 -17 -17 -16 -15 -14 -14 -13 -13 -13 -13 -13 -13 -13 -13 -13 -13 -13 -13 -14 -13 -12 -10 -10
-14 -13 -9 -7 -6 -6 -8 -8 -8 -9 -9 -8 -8 -10 -8 -10 -12 -14 -15 -17 -18 -19 -16 -15 -14 -13 -13 -13 -13 -13 -13 -13 -13 -13 -12 -12 -12 -12 -12 -13 -14 -13 -11
-15 -14 -12 -10 -6 -5 -8 -11 -11 -9 -9 -10 -9 -8 -9 -11 -12 -13 -14 -17 -18 -25 -23 -15 -14 -14 -18 -18 -16 -14 -14 -14 -13 -13 -13 -13 -12 -12 -12 -12 -12 -13 -14
-14 -12 -10 -7 -5 -5 -10 -11 -11 -9 -9 -9 -8 -8 -10 -10 -11 -12 -14 -17 -18 -24 -29 -25 -17 -20 -20 -19 -16 -14 -14 -14 -13 -13 -13 -12 -12 -12 -11 -11 -11 -11 -11
-12 -9 -8 -6 -6 -6 -8 -11 -10 -8 -7 -7 -8 -9 -10 -10 -10 -11 -14 -17 -17 -19 -28 -27 -23 -22 -23 -22 -19 -16 -15 -14 -14 -13 -13 -12 -11 -11 -11 -10 -10 -10 -10
-10 -8 -7 -7 -6 -6 -7 -9 -8 -8 -9 -9 -9 -9 -9 -10 -10 -11 -13 -16 -16 -17 -23 -28 -26 -28 -29 -28 -26 -20 -17 -15 -14 -13 -12 -12 -11 -11 -10 -10 -10 -9 -9
-8 -6 -6 -6 -6 -6 -7 -7 -8 -8 -9 -10 -9 -9 -9 -10 -10 -11 -13 -13 -15 -16 -17 -25 -27 -28 -29 -29 -28 -28 -25 -19 -14 -13 -13 -12 -12 -11 -11 -10 -10 -9 -9
-6 -7 -7 -6 -6 -6 -7 -7 -7 -9 -9 -9 -10 -10 -10 -10 -10 -11 -12 -13 -13 -14 -17 -17 -23 -27 -28 -29 -29 -29 -31 -27 -17 -14 -13 -13 -12 -12 -12 -11 -11 -10 -10
-7 -7 -7 -7 -7 -7 -8 -8 -8 -10 -10 -9 -11 -10 -10 -11 -11 -11 -12 -12 -13 -13 -16 -17 -17 -21 -27 -29 -29 -29 -30 -31 -28 -15 -14 -13 -13 -13 -12 -12 -12 -12 -11
-7 -7 -7 -7 -7 -8 -8 -8 -9 -9 -9 -9 -10 -11 -11 -11 -11 -11 -12 -12 -12 -13 -14 -17 -19 -19 -20 -24 -23 -25 -28 -30 -31 -23 -15 -14 -13 -13 -13 -13 -13 -13 -13
-8 -7 -7 -7 -8 -8 -9 -8 -9 -9 -10 -9 -10 -11 -10 -10 -10 -12 -11 -12 -12 -13 -13 -14 -16 -19 -22 -26 -28 -22 -18 -24 -29 -31 -27 -20 -17 -15 -14 -13 -13 -14 -14
-7 -8 -7 -7 -7 -8 -8 -8 -9 -10 -10 -9 -10 -10 -10 -10 -11 -11 -11 -11 -12 -13 -13 -14 -14 -18 -20 -20 -22 -28 -29 -26 -25 -25 -30 -29 -26 -24 -20 -15 -14 -15 -14
-8 -7 -8 -8 -7 -7 -8 -8 -8 -9 -10 -10 -10 -10 -11 -11 -11 -11 -10 -10 -12 -13 -13 -13 -14 -14 -15 -18 -18 -17 -21 -25 -25 -26 -25 -27 -29 -30 -29 -24 -19 -20 -17
-8 -8 -8 -8 -7 -7 -7 -10 -11 -10 -10 -11 -10 -10 -10 -11 -11 -11 -11 -10 -11 -12 -13 -13 -14 -14 -14 -15 -18 -18 -16 -16 -16 -21 -24 -24 -25 -30 -32 -32 -31 -28 -26
-8 -9 -8 -8 -7 -7 -7 -8 -8 -9 -10 -10 -10 -10 -10 -10 -11 -11 -11 -11 -11 -12 -13 -13 -14 -14 -14 -14 -14 -16 -16 -15 -15 -16 -18 -18 -17 -20 -30 -34 -33 -33 -32
-9 -9 -8 -8 -8 -8 -8 -8 -8 -8 -8 -8 -9 -9 -10 -10 -10 -11 -10 -11 -11 -12 -13 -13 -14 -14 -14 -14 -14 -15 -15 -15 -15 -15 -15 -15 -15 -15 -16 -27 -33 -29 -28
-9 -9 -8 -8 -7 -7 -7 -7 -7 -8 -8 -8 -8 -8 -9 -10 -10 -10 -10 -11 -12 -13 -14 -13 -13 -13 -13 -14 -14 -15 -15 -15 -15 -15 -15 -15 -15 -15 -15 -16 -17 -22 -25

GFSGL_850_dewp_015.txt.gz
Dewpoint
-8 -11 -12 -12 -11 -11 -13 -19 -22 -21 -19 -9 -3 -4 -4 -4 -5 -4 -11 -14 -13 -13 -12 -12 -11 -10 -10 -8 -8 -9 -11 -11 -11 -13 -13 -12 -10 -9 -10 -11 -8 -7 -5
-9 -11 -12 -11 -11 -11 -14 -18 -17 -15 -15 -9 -4 -4 -5 -5 -4 -6 -13 -11 -13 -13 -11 -11 -10 -9 -9 -9 -9 -10 -11 -11 -11 -12 -12 -10 -10 -9 -9 -9 -8 -9 -6
-11 -12 -11 -11 -10 -11 -15 -15 -12 -12 -12 -9 -6 -5 -5 -4 -5 -12 -11 -12 -13 -12 -11 -10 -10 -10 -9 -9 -10 -10 -10 -11 -11 -11 -11 -12 -11 -10 -9 -8 -7 -7 -7
-12 -12 -11 -10 -10 -11 -14 -13 -12 -10 -10 -6 -6 -5 -4 -7 -10 -11 -11 -11 -12 -11 -10 -11 -11 -11 -10 -10 -10 -10 -11 -11 -11 -11 -11 -11 -11 -11 -9 -9 -8 -9 -9
-12 -11 -10 -10 -10 -12 -13 -13 -11 -9 -8 -6 -6 -5 -5 -5 -7 -9 -12 -11 -10 -11 -11 -15 -18 -17 -16 -14 -11 -11 -11 -11 -11 -11 -12 -12 -11 -12 -10 -10 -9 -10 -10
-12 -10 -10 -9 -9 -13 -10 -11 -12 -10 -8 -6 -6 -5 -5 -6 -6 -10 -11 -10 -11 -11 -17 -18 -17 -16 -12 -13 -14 -13 -12 -12 -11 -11 -10 -12 -13 -12 -11 -10 -10 -9 -10
-11 -10 -10 -9 -11 -10 -9 -10 -10 -10 -8 -7 -6 -6 -6 -7 -10 -9 -9 -10 -11 -17 -18 -17 -15 -12 -13 -12 -12 -12 -12 -12 -12 -12 -11 -11 -12 -12 -11 -10 -10 -10 -10
-10 -11 -9 -12 -10 -8 -7 -9 -9 -9 -9 -8 -8 -9 -10 -9 -8 -9 -10 -12 -16 -18 -18 -16 -12 -12 -12 -13 -12 -12 -12 -12 -12 -12 -11 -11 -11 -11 -11 -11 -11 -10 -10
-15 -17 -17 -11 -10 -7 -6 -7 -9 -8 -8 -8 -8 -7 -7 -7 -10 -9 -11 -14 -18 -18 -19 -15 -13 -13 -13 -13 -12 -12 -12 -12 -12 -13 -12 -12 -12 -13 -12 -12 -11 -10 -10
-20 -18 -16 -14 -11 -9 -8 -6 -8 -9 -9 -8 -8 -8 -8 -10 -9 -10 -13 -15 -18 -18 -22 -20 -15 -14 -13 -13 -13 -13 -13 -12 -13 -13 -13 -12 -12 -12 -12 -12 -11 -11 -10
-18 -16 -15 -14 -13 -11 -8 -6 -9 -12 -10 -9 -9 -8 -9 -8 -9 -11 -13 -14 -17 -18 -24 -28 -17 -17 -15 -16 -17 -14 -14 -13 -13 -13 -13 -12 -12 -12 -12 -11 -11 -11 -11
-17 -16 -15 -14 -11 -8 -6 -6 -11 -12 -10 -9 -9 -9 -8 -9 -10 -12 -12 -14 -17 -17 -22 -29 -26 -21 -23 -23 -20 -19 -16 -15 -14 -13 -13 -12 -12 -12 -11 -12 -12 -11 -11
-16 -16 -14 -11 -9 -7 -6 -6 -10 -11 -9 -9 -8 -7 -8 -9 -10 -11 -12 -13 -17 -17 -18 -27 -27 -26 -26 -27 -24 -21 -18 -16 -14 -13 -13 -12 -12 -11 -11 -11 -11 -11 -11
-15 -14 -11 -9 -8 -7 -6 -6 -8 -11 -9 -8 -9 -9 -9 -10 -10 -10 -12 -13 -15 -16 -17 -23 -27 -26 -28 -28 -27 -24 -21 -17 -14 -13 -13 -12 -11 -11 -11 -10 -10 -10 -10
-12 -10 -8 -6 -7 -7 -6 -6 -8 -8 -8 -9 -11 -10 -10 -10 -10 -11 -11 -13 -14 -14 -17 -17 -22 -25 -26 -27 -28 -29 -30 -21 -14 -13 -13 -12 -12 -11 -11 -10 -10 -10 -10
-10 -9 -7 -7 -7 -7 -7 -6 -7 -8 -8 -9 -9 -10 -10 -10 -10 -10 -11 -13 -13 -13 -14 -17 -18 -21 -24 -26 -27 -28 -30 -30 -18 -14 -13 -13 -12 -12 -12 -11 -10 -10 -10
-9 -8 -7 -8 -7 -7 -6 -7 -8 -8 -8 -10 -10 -10 -10 -10 -10 -10 -11 -12 -12 -13 -13 -16 -18 -17 -20 -23 -24 -26 -28 -31 -29 -17 -14 -13 -13 -13 -12 -12 -12 -11 -10
-8 -8 -8 -8 -8 -8 -8 -8 -8 -7 -8 -10 -10 -9 -11 -10 -10 -10 -11 -11 -12 -12 -13 -14 -17 -19 -20 -21 -22 -19 -19 -26 -31 -25 -17 -15 -14 -13 -13 -13 -12 -13 -12
-8 -8 -7 -8 -8 -8 -8 -8 -8 -7 -8 -9 -10 -10 -10 -10 -10 -11 -11 -11 -12 -12 -12 -14 -14 -16 -19 -21 -25 -27 -23 -19 -23 -29 -29 -22 -20 -17 -14 -13 -13 -13 -14
-7 -8 -8 -8 -8 -7 -7 -8 -8 -9 -9 -10 -10 -9 -10 -11 -11 -11 -10 -12 -12 -12 -12 -13 -14 -14 -17 -19 -19 -21 -27 -27 -25 -23 -25 -29 -27 -24 -21 -16 -14 -15 -14
-7 -8 -8 -7 -7 -8 -8 -7 -8 -8 -9 -9 -10 -10 -10 -10 -11 -11 -11 -11 -11 -11 -12 -13 -14 -14 -15 -15 -17 -18 -18 -22 -24 -24 -24 -24 -27 -29 -28 -23 -18 -19 -16
-8 -8 -9 -9 -9 -9 -8 -7 -7 -8 -9 -9 -9 -10 -11 -10 -11 -11 -11 -11 -12 -11 -11 -13 -14 -14 -14 -14 -15 -17 -17 -16 -17 -18 -23 -25 -24 -26 -30 -31 -28 -25 -23
-7 -8 -9 -9 -9 -9 -8 -7 -7 -7 -8 -10 -10 -10 -11 -10 -10 -11 -11 -12 -11 -11 -11 -13 -14 -14 -14 -14 -14 -15 -16 -16 -15 -15 -17 -20 -19 -20 -25 -31 -32 -31 -30
-8 -9 -9 -9 -9 -8 -7 -7 -7 -7 -8 -8 -9 -9 -9 -10 -11 -11 -11 -11 -12 -11 -11 -12 -13 -14 -14 -14 -14 -15 -15 -15 -15 -15 -16 -16 -15 -15 -16 -24 -29 -29 -29
-9 -8 -9 -9 -8 -8 -8 -8 -7 -7 -8 -8 -8 -8 -8 -8 -8 -9 -11 -11 -11 -11 -11 -12 -13 -14 -14 -14 -14 -15 -15 -15 -15 -15 -15 -15 -15 -15 -15 -16 -21 -26 -27
-9 -8 -8 -8 -9 -8 -8 -8 -8 -8 -8 -8 -8 -8 -8 -8 -8 -8 -8 -9 -10 -10 -10 -12 -13 -14 -14 -13 -14 -15 -15 -15 -15 -15 -16 -16 -16 -16 -16 -16 -17 -16 -16

GFSGL_850_dewp_018.txt.gz
Dewpoint
-7 -10 -11 -11 -10 -9 -8 -8 -9 -8 -8 -7 -6 -4 -3 -3 -4 -3 -4 -3 -6 -8 -8 -8 -7 -9 -10 -10 -10 -10 -10 -11 -12 -13 -12 -12 -12 -11 -10 -10 -9 -10 -11
-8 -11 -11 -11 -10 -7 -6 -7 -7 -7 -6 -6 -5 -5 -5 -4 -4 -3 -3 -5 -8 -9 -8 -9 -9 -10 -10 -10 -10 -10 -11 -11 -10 -11 -11 -11 -11 -11 -11 -10 -9 -10 -11
-9 -10 -9 -8 -7 -6 -6 -7 -7 -7 -6 -5 -5 -5 -5 -4 -4 -4 -6 -7 -8 -8 -8 -8 -9 -9 -9 -10 -11 -11 -11 -10 -10 -10 -11 -11 -11 -11 -11 -10 -10 -8 -7
-9 -9 -9 -7 -6 -6 -6 -6 -7 -6 -6 -6 -5 -4 -4 -5 -6 -6 -7 -7 -8 -8 -7 -7 -8 -9 -10 -10 -11 -11 -11 -10 -10 -11 -11 -11 -11 -12 -11 -10 -9 -9 -7
-10 -9 -8 -7 -6 -6 -5 -7 -6 -6 -6 -5 -5 -5 -4 -4 -5 -5 -6 -7 -7 -8 -8 -9 -11 -12 -15 -14 -11 -10 -11 -11 -11 -11 -11 -11 -11 -10 -11 -12 -11 -10 -9
-9 -8 -8 -7 -7 -6 -6 -6 -6 -7 -6 -6 -6 -5 -4 -5 -6 -5 -9 -8 -8 -9 -11 -12 -12 -12 -11 -12 -12 -12 -12 -11 -11 -11 -10 -10 -11 -11 -11 -11 -11 -9 -10
-10 -10 -9 -9 -8 -7 -7 -7 -7 -6 -6 -6 -6 -5 -5 -5 -9 -10 -8 -9 -9 -11 -12 -12 -12 -13 -11 -11 -12 -12 -11 -11 -12 -11 -11 -11 -11 -10 -11 -12 -12 -10 -10
-11 -10 -13 -10 -9 -8 -7 -7 -6 -7 -6 -6 -6 -6 -6 -6 -9 -8 -10 -10 -10 -12 -12 -12 -12 -12 -11 -12 -12 -11 -12 -12 -14 -13 -12 -11 -11 -11 -11 -10 -11 -11 -11
-10 -18 -12 -13 -9 -8 -8 -7 -6 -6 -6 -7 -7 -6 -6 -6 -9 -10 -9 -11 -10 -12 -11 -11 -12 -12 -12 -13 -12 -12 -13 -14 -13 -12 -12 -13 -14 -14 -13 -11 -11 -11 -11
-22 -20 -19 -12 -9 -8 -7 -7 -6 -6 -7 -8 -7 -7 -7 -7 -9 -9 -10 -11 -10 -10 -11 -12 -13 -15 -18 -13 -13 -13 -12 -13 -13 -12 -12 -12 -12 -11 -12 -11 -11 -11 -11
-20 -20 -16 -12 -10 -9 -7 -5 -6 -6 -8 -7 -11 -9 -8 -9 -8 -9 -10 -13 -11 -12 -11 -11 -13 -21 -26 -24 -24 -13 -15 -15 -13 -12 -12 -12 -11 -11 -11 -11 -10 -10 -11
-19 -18 -14 -12 -9 -7 -5 -5 -5 -6 -7 -7 -10 -9 -7 -8 -8 -9 -11 -12 -13 -15 -12 -11 -18 -25 -27 -27 -24 -25 -24 -16 -13 -13 -12 -11 -11 -11 -11 -10 -10 -10 -10
-17 -15 -9 -7 -6 -6 -6 -5 -6 -7 -7 -7 -7 -7 -8 -7 -8 -9 -11 -12 -13 -14 -15 -16 -19 -24 -26 -19 -20 -27 -19 -13 -13 -13 -12 -12 -12 -11 -11 -10 -10 -10 -10
-16 -10 -6 -7 -8 -8 -7 -5 -5 -6 -7 -7 -7 -8 -9 -9 -8 -9 -9 -10 -10 -11 -11 -12 -17 -17 -17 -16 -14 -14 -14 -17 -14 -13 -13 -12 -12 -11 -11 -10 -9 -9 -10
-10 -7 -7 -6 -6 -6 -7 -6 -6 -6 -7 -7 -7 -8 -8 -8 -9 -9 -10 -10 -10 -11 -13 -12 -11 -12 -13 -13 -14 -14 -14 -16 -15 -14 -13 -13 -12 -12 -11 -11 -10 -9 -9
-11 -7 -6 -6 -6 -6 -6 -6 -6 -7 -7 -8 -9 -10 -11 -11 -11 -10 -11 -11 -12 -13 -12 -11 -11 -12 -12 -12 -13 -13 -13 -15 -23 -15 -14 -13 -13 -12 -12 -11 -10 -10 -9
-11 -9 -6 -6 -6 -6 -6 -6 -6 -6 -7 -8 -8 -9 -11 -11 -11 -10 -10 -10 -11 -12 -11 -11 -11 -12 -12 -12 -13 -14 -13 -14 -23 -24 -14 -14 -14 -13 -12 -11 -11 -11 -10
-9 -8 -7 -6 -6 -6 -7 -6 -7 -7 -7 -7 -7 -8 -9 -10 -11 -10 -10 -10 -10 -11 -11 -11 -11 -11 -12 -12 -13 -14 -17 -18 -15 -21 -18 -15 -14 -14 -13 -12 -12 -12 -11
-8 -6 -7 -7 -8 -8 -7 -8 -7 -7 -7 -8 -7 -8 -9 -10 -10 -10 -10 -10 -10 -10 -10 -10 -11 -11 -12 -12 -13 -14 -18 -21 -24 -21 -15 -17 -15 -14 -13 -13 -13 -13 -12
-6 -6 -7 -7 -7 -8 -7 -7 -8 -8 -8 -7 -8 -8 -8 -9 -9 -11 -10 -10 -10 -10 -10 -10 -10 -11 -12 -12 -13 -13 -14 -14 -14 -18 -19 -16 -15 -16 -15 -14 -13 -13 -13
-6 -6 -7 -7 -7 -7 -7 -7 -8 -8 -8 -8 -7 -8 -8 -9 -9 -9 -9 -10 -10 -10 -10 -10 -10 -11 -12 -12 -13 -13 -14 -14 -14 -17 -18 -22 -20 -15 -16 -15 -14 -14 -14
-6 -7 -7 -7 -8 -8 -9 -9 -8 -8 -8 -8 -8 -8 -8 -10 -10 -9 -9 -10 -10 -10 -10 -10 -10 -11 -11 -12 -12 -13 -13 -14 -15 -15 -15 -19 -19 -15 -15 -15 -17 -16 -15
-7 -7 -8 -8 -8 -8 -8 -8 -8 -8 -8 -7 -7 -7 -8 -8 -9 -10 -10 -10 -10 -10 -11 -11 -11 -11 -13 -15 -15 -15 -14 -14 -14 -15 -15 -16 -15 -15 -15 -15 -16 -20 -24
-8 -8 -9 -9 -9 -9 -9 -8 -8 -8 -7 -7 -7 -7 -8 -8 -8 -9 -9 -9 -10 -11 -11 -12 -12 -12 -12 -14 -15 -15 -15 -15 -15 -16 -15 -16 -16 -15 -15 -15 -15 -19 -22
-8 -8 -9 -9 -8 -8 -9 -9 -9 -8 -8 -8 -8 -8 -8 -8 -8 -8 -8 -8 -8 -8 -11 -11 -11 -11 -12 -13 -15 -14 -15 -16 -15 -16 -16 -16 -16 -16 -15 -16 -16 -15 -20
-8 -8 -9 -9 -8 -9 -9 -9 -9 -9 -9 -9 -9 -9 -9 -9 -9 -8 -8 -8 -8 -8 -8 -9 -11 -11 -11 -12 -14 -14 -14 -15 -16 -16 -16 -16 -16 -16 -16 -16 -17 -16 -15

GFSGL_850_dewp_021.txt.gz
Dewpoint
0 -3 -8 -6 -5 -5 -5 -6 -7 -7 -7 -7 -7 -6 -5 -6 -6 -5 -4 -3 -3 -3 -4 -7 -6 -6 -6 -7 -9 -10 -11 -11 -10 -11 -12 -12 -11 -10 -10 -10 -10 -10 -10
-3 -2 -5 -5 -6 -6 -5 -6 -7 -7 -6 -7 -7 -6 -6 -6 -6 -4 -4 -3 -3 -5 -6 -6 -6 -7 -7 -9 -11 -11 -11 -12 -12 -12 -11 -10 -10 -10 -11 -11 -10 -10 -10
-2 -6 -7 -6 -6 -6 -5 -6 -6 -7 -7 -7 -6 -6 -6 -4 -5 -5 -7 -6 -6 -6 -5 -7 -7 -7 -7 -10 -10 -10 -11 -12 -11 -10 -10 -10 -10 -11 -11 -10 -11 -10 -10
-5 -8 -8 -7 -6 -5 -5 -6 -6 -6 -6 -6 -6 -7 -6 -6 -5 -5 -5 -5 -5 -6 -5 -6 -7 -8 -10 -9 -11 -11 -11 -10 -11 -10 -10 -11 -11 -11 -10 -9 -10 -11 -11
-6 -8 -8 -7 -6 -5 -6 -6 -6 -6 -6 -7 -7 -7 -7 -5 -4 -5 -6 -5 -6 -6 -7 -8 -10 -12 -12 -13 -12 -11 -11 -11 -11 -11 -11 -11 -11 -10 -9 -11 -10 -10 -10
-6 -7 -7 -7 -6 -6 -7 -6 -7 -7 -7 -7 -7 -7 -6 -4 -5 -8 -9 -8 -8 -7 -8 -11 -11 -12 -12 -12 -10 -10 -11 -11 -11 -10 -11 -12 -12 -11 -10 -10 -9 -11 -12
-6 -7 -7 -7 -6 -8 -8 -9 -8 -7 -6 -7 -7 -6 -5 -4 -6 -9 -9 -8 -8 -9 -10 -11 -11 -12 -11 -11 -11 -11 -11 -11 -11 -11 -10 -11 -10 -10 -10 -10 -10 -9 -10
-6 -7 -7 -7 -10 -10 -9 -9 -8 -7 -6 -7 -7 -6 -6 -5 -7 -9 -9 -10 -9 -9 -10 -10 -11 -11 -12 -12 -15 -12 -12 -13 -13 -13 -12 -12 -11 -12 -12 -12 -11 -11 -11
-6 -8 -9 -11 -10 -10 -9 -9 -8 -7 -6 -7 -7 -7 -7 -5 -7 -9 -9 -9 -8 -9 -9 -10 -11 -12 -12 -19 -20 -12 -12 -13 -14 -14 -14 -13 -14 -13 -13 -11 -12 -12 -11
-9 -10 -12 -11 -10 -10 -9 -8 -7 -6 -6 -7 -8 -8 -7 -6 -6 -8 -9 -9 -8 -9 -9 -10 -11 -12 -14 -26 -26 -20 -13 -12 -14 -13 -12 -12 -11 -10 -11 -11 -11 -10 -10
-11 -16 -12 -10 -9 -8 -7 -7 -6 -6 -6 -6 -6 -6 -6 -7 -7 -8 -9 -9 -9 -9 -10 -10 -10 -11 -20 -25 -26 -22 -14 -25 -18 -12 -12 -11 -11 -10 -10 -10 -10 -10 -10
-20 -18 -8 -8 -7 -6 -6 -6 -6 -6 -6 -5 -6 -6 -6 -6 -8 -9 -10 -10 -11 -12 -11 -10 -10 -15 -19 -22 -19 -17 -20 -16 -12 -12 -12 -11 -11 -11 -10 -10 -10 -10 -10
-20 -13 -7 -6 -6 -6 -6 -6 -6 -6 -5 -6 -6 -5 -6 -6 -7 -7 -10 -10 -11 -12 -12 -12 -14 -16 -16 -14 -13 -13 -14 -12 -13 -12 -13 -12 -12 -11 -11 -10 -10 -9 -10
-11 -7 -6 -6 -6 -6 -6 -6 -5 -5 -5 -5 -6 -6 -7 -8 -8 -7 -8 -9 -10 -10 -10 -10 -13 -11 -11 -12 -12 -11 -12 -12 -13 -13 -13 -12 -12 -11 -11 -11 -10 -9 -8
-15 -13 -9 -8 -5 -6 -6 -6 -6 -5 -5 -5 -6 -6 -7 -8 -8 -9 -8 -8 -9 -10 -11 -13 -10 -10 -11 -11 -11 -11 -12 -12 -13 -14 -13 -13 -12 -12 -11 -11 -10 -9 -8
-14 -13 -9 -5 -5 -6 -6 -5 -6 -6 -7 -7 -7 -8 -9 -9 -11 -11 -11 -11 -11 -11 -12 -10 -10 -11 -10 -11 -11 -12 -12 -12 -12 -13 -13 -13 -13 -12 -12 -11 -10 -10 -9
-13 -11 -6 -6 -5 -6 -6 -6 -6 -6 -7 -6 -7 -7 -8 -8 -10 -11 -11 -10 -10 -10 -11 -10 -10 -10 -11 -11 -11 -12 -12 -12 -13 -13 -13 -13 -13 -13 -12 -11 -11 -11 -11
-9 -7 -6 -5 -6 -6 -6 -6 -6 -6 -7 -7 -7 -7 -7 -8 -8 -10 -11 -10 -10 -10 -10 -10 -10 -10 -10 -11 -11 -12 -12 -12 -13 -13 -13 -13 -13 -13 -12 -12 -12 -12 -11
-6 -5 -6 -6 -6 -7 -7 -7 -7 -7 -8 -8 -8 -8 -8 -8 -9 -9 -10 -10 -9 -9 -9 -9 -9 -10 -11 -10 -11 -12 -12 -13 -13 -13 -13 -13 -14 -13 -13 -13 -12 -13 -12
-5 -5 -5 -6 -6 -7 -7 -8 -7 -7 -7 -8 -7 -7 -8 -7 -8 -9 -9 -9 -10 -10 -10 -10 -10 -10 -10 -10 -11 -12 -12 -12 -13 -13 -13 -13 -14 -14 -13 -14 -13 -13 -13
-5 -5 -6 -6 -6 -7 -7 -7 -8 -7 -8 -8 -8 -7 -7 -7 -9 -8 -8 -9 -10 -10 -10 -10 -10 -10 -10 -10 -11 -12 -12 -12 -13 -13 -14 -14 -14 -14 -14 -13 -14 -13 -13
-5 -5 -6 -7 -7 -8 -7 -7 -7 -9 -9 -8 -8 -8 -7 -7 -8 -8 -9 -9 -10 -10 -9 -9 -10 -10 -10 -10 -11 -11 -12 -12 -13 -13 -14 -14 -14 -14 -14 -14 -13 -14 -14
-5 -6 -7 -8 -8 -8 -9 -8 -8 -8 -8 -8 -8 -8 -7 -7 -8 -7 -8 -8 -8 -9 -10 -10 -9 -10 -10 -10 -10 -12 -12 -12 -13 -13 -14 -14 -14 -14 -14 -14 -14 -14 -15
-6 -7 -7 -7 -9 -9 -9 -8 -8 -8 -8 -8 -8 -8 -7 -7 -7 -7 -8 -8 -8 -8 -8 -8 -10 -11 -11 -10 -11 -12 -14 -14 -15 -17 -16 -16 -15 -14 -14 -14 -14 -14 -14
-6 -7 -7 -8 -8 -9 -9 -8 -8 -8 -8 -8 -8 -8 -8 -8 -8 -8 -8 -8 -8 -8 -8 -8 -8 -8 -10 -11 -11 -12 -13 -15 -15 -16 -16 -16 -16 -16 -16 -15 -15 -15 -14
-7 -7 -7 -8 -9 -9 -9 -9 -9 -9 -9 -9 -9 -9 -9 -9 -9 -9 -9 -9 -9 -9 -8 -8 -8 -9 -9 -9 -10 -11 -11 -14 -14 -16 -16 -16 -16 -15 -15 -15 -15 -15 -14

GFSGL_850_dewp_024.txt.gz
Dewpoint
-1 1 -0 -3 -6 -7 -5 -5 -6 -7 -7 -6 -7 -7 -6 -6 -6 -6 -5 -5 -4 -5 -5 -4 -3 -4 -5 -6 -7 -8 -9 -10 -10 -10 -11 -11 -11 -11 -13 -12 -12 -13 -12
0 -0 -2 -6 -5 -5 -5 -5 -5 -6 -6 -6 -6 -7 -6 -6 -6 -7 -8 -6 -6 -5 -5 -5 -5 -5 -6 -7 -8 -10 -10 -11 -11 -11 -11 -11 -10 -13 -11 -11 -11 -11 -10
-1 -3 -4 -5 -5 -6 -6 -5 -5 -6 -6 -6 -6 -6 -6 -6 -5 -4 -5 -5 -6 -6 -6 -5 -5 -6 -7 -8 -9 -11 -11 -13 -11 -10 -11 -12 -11 -11 -12 -11 -10 -10 -11
-2 -2 -6 -6 -6 -6 -5 -5 -5 -6 -6 -6 -6 -6 -7 -7 -6 -5 -5 -5 -6 -5 -5 -6 -7 -8 -9 -11 -11 -13 -14 -13 -12 -12 -11 -12 -12 -13 -12 -12 -12 -11 -13
-0 -6 -6 -8 -7 -6 -5 -5 -6 -6 -6 -6 -6 -7 -7 -7 -5 -4 -5 -7 -6 -6 -6 -7 -8 -10 -11 -12 -12 -12 -11 -11 -12 -13 -13 -13 -12 -11 -12 -12 -10 -11 -12
-2 -5 -7 -7 -6 -6 -6 -5 -7 -7 -7 -7 -6 -7 -6 -6 -5 -5 -6 -10 -10 -9 -8 -9 -10 -11 -12 -12 -11 -10 -10 -11 -12 -11 -11 -11 -11 -10 -11 -11 -12 -12 -12
-2 -5 -5 -6 -6 -5 -7 -9 -9 -9 -8 -7 -6 -6 -6 -6 -6 -6 -9 -12 -12 -9 -9 -9 -10 -11 -11 -11 -11 -12 -18 -14 -12 -12 -11 -10 -11 -11 -12 -14 -14 -14 -14
-3 -5 -6 -4 -6 -9 -11 -13 -9 -9 -8 -7 -6 -6 -6 -6 -6 -6 -7 -10 -10 -9 -9 -10 -10 -10 -10 -13 -14 -22 -26 -18 -13 -13 -12 -13 -13 -14 -15 -13 -13 -13 -13
-5 -4 -2 -6 -9 -12 -11 -9 -9 -8 -7 -6 -6 -7 -7 -7 -7 -6 -6 -8 -10 -10 -9 -9 -9 -10 -11 -12 -15 -24 -26 -24 -15 -15 -19 -17 -14 -13 -12 -10 -12 -11 -12
-1 -6 -6 -9 -10 -12 -9 -7 -6 -7 -6 -6 -6 -6 -7 -7 -7 -7 -7 -8 -10 -10 -9 -10 -10 -10 -10 -11 -18 -23 -23 -21 -23 -19 -14 -13 -13 -12 -11 -10 -10 -10 -10
-3 -5 -8 -10 -13 -8 -6 -6 -6 -6 -5 -6 -6 -6 -8 -8 -7 -8 -10 -10 -10 -10 -12 -12 -9 -10 -11 -16 -19 -19 -16 -16 -15 -14 -13 -13 -12 -12 -12 -12 -10 -10 -10
-7 -7 -10 -17 -12 -5 -5 -6 -6 -6 -5 -5 -5 -5 -6 -6 -8 -8 -9 -9 -10 -11 -12 -12 -11 -12 -14 -16 -15 -14 -13 -14 -13 -13 -14 -13 -13 -13 -12 -12 -10 -10 -9
-5 -11 -17 -10 -6 -6 -8 -7 -7 -7 -5 -5 -5 -5 -6 -7 -8 -6 -6 -8 -10 -10 -11 -12 -12 -14 -13 -13 -12 -11 -12 -13 -12 -14 -14 -14 -13 -12 -12 -12 -11 -10 -9
-14 -15 -8 -9 -10 -9 -7 -7 -6 -6 -7 -6 -4 -5 -6 -6 -7 -6 -7 -8 -8 -9 -10 -11 -12 -13 -11 -11 -11 -11 -11 -12 -13 -12 -14 -14 -13 -13 -13 -12 -11 -10 -10
-15 -14 -14 -14 -12 -8 -6 -6 -6 -6 -6 -7 -6 -5 -5 -6 -6 -7 -8 -9 -8 -8 -9 -10 -11 -12 -10 -12 -12 -12 -12 -13 -12 -12 -14 -14 -13 -14 -13 -12 -11 -11 -10
-14 -14 -13 -12 -10 -8 -6 -5 -6 -7 -7 -6 -7 -7 -7 -6 -6 -8 -9 -11 -10 -10 -10 -11 -11 -12 -11 -11 -12 -11 -12 -12 -12 -13 -13 -14 -13 -14 -14 -12 -12 -11 -11
-13 -12 -11 -9 -7 -6 -6 -7 -6 -7 -6 -6 -6 -7 -7 -6 -7 -7 -8 -9 -11 -10 -10 -11 -12 -11 -11 -12 -12 -11 -11 -11 -13 -13 -13 -14 -14 -14 -14 -12 -13 -13 -13
-9 -9 -8 -6 -5 -6 -6 -7 -7 -7 -8 -9 -7 -7 -7 -7 -8 -8 -8 -8 -9 -10 -11 -11 -11 -11 -12 -11 -12 -11 -11 -12 -13 -13 -14 -14 -13 -14 -14 -14 -14 -12 -13
-7 -7 -6 -5 -5 -6 -6 -7 -7 -7 -8 -8 -8 -7 -7 -8 -7 -8 -8 -8 -9 -10 -10 -10 -10 -10 -9 -9 -11 -12 -12 -12 -13 -14 -13 -13 -13 -14 -14 -14 -15 -14 -13
-6 -5 -5 -5 -6 -6 -6 -6 -7 -7 -7 -8 -8 -8 -8 -8 -7 -9 -8 -8 -9 -9 -9 -10 -11 -10 -9 -9 -9 -11 -11 -12 -12 -13 -13 -13 -13 -14 -14 -14 -14 -15 -14
-5 -5 -5 -5 -5 -5 -7 -8 -7 -7 -6 -7 -8 -9 -8 -7 -7 -7 -8 -9 -9 -8 -9 -10 -10 -10 -11 -11 -11 -10 -11 -12 -12 -13 -13 -13 -13 -15 -14 -14 -14 -14 -15
-5 -5 -5 -5 -7 -7 -8 -8 -9 -9 -9 -8 -8 -8 -8 -8 -7 -7 -7 -7 -8 -9 -8 -8 -9 -9 -9 -9 -10 -10 -11 -11 -12 -12 -14 -14 -14 -14 -14 -14 -14 -14 -14
-6 -6 -6 -6 -6 -6 -7 -9 -9 -8 -8 -8 -7 -8 -8 -8 -8 -7 -7 -7 -7 -8 -8 -8 -8 -9 -10 -9 -9 -9 -10 -10 -12 -13 -13 -16 -16 -15 -14 -14 -14 -14 -15
-8 -8 -7 -6 -6 -7 -7 -8 -8 -9 -8 -7 -8 -8 -8 -8 -8 -8 -7 -7 -7 -8 -8 -8 -8 -8 -8 -9 -9 -10 -10 -11 -12 -14 -14 -17 -17 -16 -14 -14 -14 -14 -14
-10 -9 -9 -8 -8 -7 -7 -8 -9 -9 -9 -9 -9 -8 -8 -9 -9 -8 -8 -8 -9 -9 -9 -8 -8 -8 -8 -8 -8 -9 -10 -11 -12 -14 -15 -18 -17 -17 -16 -16 -16 -15 -14
-9 -9 -8 -8 -8 -7 -8 -9 -9 -10 -10 -10 -10 -10 -10 -10 -10 -10 -10 -10 -9 -9 -9 -9 -9 -9 -9 -9 -9 -8 -9 -10 -10 -12 -14 -16 -18 -17 -16 -16 -15 -16 -15

GFSGL_850_dewp_027.txt.gz
Dewpoint
2 1 -1 0 -2 -5 -7 -8 -7 -6 -7 -8 -9 -9 -8 -7 -6 -5 -6 -6 -6 -7 -6 -6 -4 -4 -4 -5 -6 -6 -8 -9 -10 -10 -11 -13 -13 -14 -14 -14 -14 -13 -12
1 -0 -1 -0 -4 -5 -6 -5 -5 -5 -5 -6 -7 -6 -8 -7 -6 -6 -6 -6 -6 -6 -6 -5 -5 -5 -5 -6 -6 -8 -10 -10 -12 -13 -17 -16 -15 -14 -14 -14 -14 -13 -12
-0 -1 0 -1 -5 -5 -5 -5 -5 -5 -5 -6 -6 -6 -7 -7 -7 -7 -6 -5 -5 -7 -6 -5 -5 -5 -6 -8 -9 -10 -11 -12 -15 -14 -15 -15 -14 -14 -14 -14 -13 -13 -14
-1 -0 -0 -2 -4 -4 -4 -5 -5 -5 -5 -6 -6 -6 -6 -7 -7 -7 -6 -5 -4 -7 -7 -5 -6 -7 -8 -10 -10 -12 -13 -13 -13 -14 -15 -14 -13 -14 -12 -11 -11 -13 -14
-0 -0 -1 -3 -4 -5 -5 -5 -5 -4 -6 -7 -8 -7 -6 -7 -7 -6 -6 -5 -4 -8 -6 -7 -8 -9 -10 -10 -12 -12 -12 -12 -12 -16 -13 -12 -13 -12 -10 -10 -11 -13 -16
-0 -0 -1 -4 -6 -5 -5 -4 -4 -6 -8 -9 -8 -6 -6 -6 -6 -6 -8 -6 -10 -14 -12 -10 -9 -10 -10 -11 -11 -11 -11 -12 -17 -15 -11 -12 -11 -11 -12 -13 -14 -15 -15
-0 -0 -4 -5 -5 -4 -4 -4 -8 -11 -13 -8 -8 -7 -7 -6 -7 -6 -6 -7 -8 -11 -12 -12 -11 -10 -11 -11 -11 -11 -15 -21 -26 -18 -12 -11 -12 -13 -13 -14 -15 -12 -13
-0 -2 -5 -4 -4 -4 -3 -10 -8 -11 -9 -8 -8 -7 -6 -6 -6 -6 -6 -6 -6 -9 -10 -11 -10 -10 -11 -10 -11 -13 -15 -22 -24 -19 -12 -13 -15 -15 -12 -11 -12 -11 -11
-3 -5 -3 -3 -2 -4 -4 -8 -11 -9 -8 -10 -6 -6 -6 -6 -7 -7 -7 -6 -6 -8 -10 -11 -11 -10 -10 -11 -11 -11 -18 -20 -18 -19 -17 -15 -14 -13 -11 -11 -11 -10 -11
-3 -3 -3 -3 -2 -5 -9 -11 -5 -9 -6 -6 -6 -6 -6 -6 -6 -7 -8 -7 -9 -10 -12 -11 -11 -13 -11 -12 -12 -16 -18 -16 -15 -15 -18 -17 -14 -12 -12 -12 -11 -11 -10
-3 -2 -1 -1 -6 -10 -9 -8 -6 -6 -6 -8 -5 -5 -5 -5 -6 -7 -8 -8 -9 -9 -11 -12 -12 -13 -14 -13 -14 -15 -14 -14 -14 -14 -14 -16 -14 -14 -13 -13 -12 -11 -11
-0 -1 -3 -9 -11 -13 -8 -6 -6 -9 -9 -9 -5 -5 -5 -5 -5 -6 -8 -8 -7 -7 -10 -11 -12 -13 -14 -14 -14 -13 -12 -12 -13 -13 -13 -14 -16 -14 -14 -13 -12 -12 -11
-4 -7 -7 -14 -14 -8 -7 -10 -9 -8 -6 -6 -8 -6 -5 -5 -5 -6 -7 -6 -6 -7 -9 -10 -11 -14 -13 -13 -12 -12 -11 -11 -13 -13 -13 -13 -14 -14 -13 -13 -13 -12 -12
-7 -13 -16 -14 -13 -13 -12 -10 -7 -6 -6 -6 -8 -8 -6 -5 -5 -6 -6 -6 -7 -8 -9 -9 -10 -10 -11 -12 -11 -12 -12 -12 -12 -12 -13 -13 -15 -14 -15 -13 -12 -12 -12
-16 -15 -15 -14 -14 -13 -12 -9 -6 -5 -5 -6 -7 -7 -6 -7 -7 -5 -6 -6 -7 -8 -9 -9 -9 -10 -10 -13 -11 -12 -13 -11 -12 -12 -12 -14 -14 -14 -16 -13 -12 -12 -12
-15 -14 -14 -13 -12 -11 -10 -9 -7 -7 -9 -8 -6 -6 -6 -6 -6 -7 -7 -7 -7 -9 -10 -11 -10 -10 -11 -12 -10 -12 -13 -11 -11 -12 -12 -14 -14 -14 -14 -14 -13 -13 -13
-10 -11 -12 -11 -10 -8 -7 -6 -6 -8 -9 -9 -10 -9 -7 -7 -6 -7 -7 -7 -7 -8 -9 -10 -11 -11 -11 -12 -10 -12 -12 -12 -11 -11 -13 -14 -14 -14 -14 -15 -15 -13 -13
-6 -6 -6 -7 -7 -5 -6 -5 -6 -6 -7 -9 -9 -9 -9 -8 -7 -7 -7 -7 -7 -8 -9 -10 -11 -11 -12 -12 -12 -11 -11 -12 -12 -12 -15 -15 -14 -14 -14 -14 -15 -14 -13
-7 -5 -5 -5 -5 -5 -5 -5 -6 -5 -7 -8 -9 -8 -8 -10 -9 -8 -7 -7 -8 -9 -9 -9 -11 -11 -11 -11 -10 -10 -10 -11 -11 -13 -14 -14 -14 -14 -14 -14 -14 -15 -15
-7 -6 -5 -5 -5 -5 -5 -5 -6 -6 -8 -8 -8 -9 -7 -7 -9 -8 -8 -7 -7 -8 -9 -9 -10 -10 -11 -11 -10 -9 -9 -10 -11 -12 -14 -13 -14 -14 -14 -14 -14 -14 -15
-7 -6 -6 -6 -7 -6 -6 -6 -7 -7 -7 -8 -9 -9 -8 -7 -8 -8 -8 -8 -7 -7 -8 -9 -9 -9 -10 -10 -10 -10 -11 -11 -11 -12 -14 -13 -15 -16 -15 -14 -14 -14 -14
-8 -8 -9 -8 -7 -7 -8 -7 -7 -6 -7 -9 -9 -9 -8 -8 -8 -8 -8 -8 -8 -7 -7 -8 -8 -8 -8 -9 -9 -9 -9 -9 -10 -11 -13 -14 -16 -17 -16 -15 -14 -14 -15
-16 -16 -15 -14 -12 -10 -11 -10 -8 -6 -7 -8 -10 -9 -7 -8 -8 -8 -8 -8 -7 -7 -7 -7 -8 -9 -9 -8 -8 -9 -9 -9 -9 -10 -11 -14 -15 -17 -16 -15 -14 -15 -15
-13 -11 -10 -10 -10 -9 -8 -9 -8 -7 -8 -9 -9 -8 -8 -9 -9 -9 -8 -8 -8 -8 -7 -7 -8 -8 -8 -8 -8 -8 -9 -9 -9 -9 -10 -12 -15 -17 -17 -16 -15 -15 -15
-14 -12 -12 -12 -11 -11 -11 -10 -10 -10 -10 -10 -10 -10 -10 -10 -10 -10 -10 -10 -9 -9 -9 -8 -9 -9 -10 -9 -9 -9 -9 -8 -9 -9 -10 -12 -15 -18 -18 -17 -16 -16 -15
-16 -15 -14 -14 -14 -14 -13 -13 -13 -12 -12 -12 -12 -12 -12 -12 -12 -12 -12 -11 -11 -12 -13 -11 -10 -10 -9 -9 -9 -9 -9 -9 -8 -9 -10 -11 -14 -16 -18 -17 -16 -16 -16

GFSGL_850_dewp_033.txt.gz
Dewpoint
9 8 7 6 5 4 4 2 0 1 -0 -6 -2 -4 -6 -10 -11 -9 -11 -12 -9 -8 -6 -6 -6 -6 -6 -7 -6 -6 -6 -6 -7 -8 -10 -11 -15 -17 -20 -21 -17 -16 -16
8 7 7 6 4 3 2 1 -1 -3 -6 -3 -5 -5 -5 -10 -10 -12 -9 -7 -8 -9 -6 -7 -5 -6 -5 -6 -5 -5 -6 -8 -10 -10 -11 -14 -16 -19 -23 -19 -17 -16 -15
7 7 6 4 4 3 1 -0 -1 -4 -4 -4 -5 -5 -8 -10 -11 -10 -8 -6 -7 -7 -6 -6 -7 -6 -7 -6 -6 -7 -9 -10 -11 -12 -12 -14 -17 -21 -22 -20 -17 -16 -18
6 5 4 4 4 3 0 -0 -3 -4 -4 -5 -5 -5 -7 -8 -10 -8 -6 -6 -6 -6 -7 -7 -6 -10 -7 -8 -9 -9 -10 -11 -11 -11 -13 -16 -20 -22 -21 -17 -18 -17 -21
5 4 5 4 3 1 -1 -4 -5 -4 -5 -4 -4 -4 -5 -9 -9 -6 -6 -6 -6 -6 -6 -7 -9 -11 -13 -13 -14 -12 -11 -11 -11 -12 -15 -18 -21 -21 -18 -17 -18 -18 -15
5 5 4 1 -1 -3 -4 -4 -4 -4 -5 -4 -1 -1 -3 -9 -7 -7 -7 -6 -6 -6 -6 -7 -7 -8 -8 -10 -14 -12 -11 -11 -11 -12 -14 -20 -20 -17 -18 -17 -15 -13 -12
4 4 2 -0 -1 -3 -3 -4 -4 -3 -1 -1 -1 -3 -8 -8 -8 -7 -6 -6 -6 -6 -6 -6 -6 -7 -8 -11 -12 -12 -11 -11 -11 -12 -18 -18 -16 -16 -18 -16 -13 -12 -11
3 2 1 -1 -3 -4 -5 -3 -1 -1 -2 -1 -5 -8 -10 -12 -10 -6 -6 -6 -6 -6 -6 -6 -6 -8 -12 -12 -11 -12 -12 -12 -13 -17 -16 -15 -15 -16 -15 -13 -12 -12 -13
1 -0 -2 -4 -4 -2 -1 -1 -1 -0 -2 -7 -10 -11 -12 -13 -10 -8 -6 -6 -6 -6 -6 -7 -7 -11 -11 -13 -12 -13 -13 -14 -17 -16 -15 -15 -14 -15 -15 -15 -14 -13 -14
-1 -3 -3 -1 -1 -1 -1 0 -0 -3 -9 -10 -11 -13 -14 -15 -14 -9 -5 -5 -5 -5 -7 -7 -8 -9 -10 -13 -13 -13 -14 -16 -16 -15 -14 -15 -14 -14 -14 -15 -14 -12 -13
-3 -2 -1 -0 -0 -0 -2 -8 -11 -11 -11 -12 -13 -14 -13 -12 -11 -8 -5 -6 -5 -5 -5 -6 -8 -8 -8 -11 -13 -14 -16 -15 -15 -14 -14 -14 -14 -14 -14 -15 -16 -15 -13
0 0 0 -2 -6 -12 -14 -13 -12 -11 -11 -13 -13 -14 -12 -10 -10 -11 -7 -7 -7 -5 -5 -6 -7 -7 -7 -9 -11 -14 -13 -14 -14 -14 -13 -13 -13 -13 -14 -15 -16 -15 -12
-5 -9 -12 -16 -16 -15 -15 -14 -14 -13 -13 -12 -12 -13 -13 -11 -9 -9 -8 -8 -8 -6 -6 -6 -6 -7 -7 -8 -9 -11 -11 -13 -12 -13 -14 -13 -12 -12 -13 -15 -16 -15 -13
-14 -16 -16 -17 -16 -15 -14 -14 -13 -13 -11 -11 -10 -11 -10 -9 -10 -11 -11 -7 -6 -6 -7 -6 -6 -6 -7 -8 -9 -10 -9 -12 -12 -12 -14 -13 -12 -12 -13 -15 -15 -16 -17
-14 -13 -11 -10 -10 -11 -11 -11 -10 -10 -9 -8 -8 -8 -7 -8 -9 -9 -10 -10 -9 -6 -6 -7 -7 -7 -8 -8 -8 -9 -9 -10 -12 -12 -13 -13 -12 -12 -15 -15 -15 -15 -16
-12 -13 -13 -12 -12 -11 -10 -10 -8 -6 -5 -5 -6 -6 -8 -7 -7 -6 -8 -9 -9 -7 -6 -7 -7 -7 -7 -8 -8 -9 -9 -10 -11 -12 -12 -12 -11 -12 -17 -16 -15 -15 -16
-11 -11 -10 -10 -9 -9 -8 -7 -8 -12 -7 -7 -6 -5 -5 -5 -5 -6 -8 -8 -9 -7 -7 -7 -7 -7 -8 -8 -8 -9 -11 -11 -11 -11 -12 -11 -11 -12 -16 -16 -16 -15 -15
-16 -18 -20 -21 -19 -17 -15 -12 -8 -7 -7 -8 -11 -10 -8 -7 -6 -6 -9 -9 -8 -9 -9 -7 -7 -8 -8 -7 -8 -9 -10 -11 -11 -12 -11 -11 -11 -11 -13 -16 -16 -16 -15
-30 -32 -32 -31 -28 -25 -23 -21 -18 -14 -12 -9 -8 -10 -9 -9 -7 -7 -9 -10 -10 -7 -8 -8 -9 -7 -8 -8 -8 -8 -9 -11 -12 -12 -12 -11 -11 -11 -12 -15 -17 -16 -15
-32 -31 -30 -28 -25 -22 -19 -16 -13 -11 -11 -11 -10 -10 -12 -11 -12 -12 -8 -9 -8 -8 -8 -8 -8 -8 -8 -8 -8 -8 -9 -11 -12 -12 -11 -10 -10 -11 -12 -15 -17 -16 -16
-30 -30 -29 -26 -23 -18 -15 -12 -12 -12 -11 -11 -11 -10 -9 -8 -8 -7 -8 -9 -9 -8 -8 -8 -8 -8 -8 -8 -8 -8 -9 -10 -11 -11 -10 -10 -10 -10 -12 -14 -18 -17 -16
-28 -27 -25 -22 -20 -18 -16 -15 -14 -13 -12 -12 -12 -11 -10 -9 -9 -9 -8 -8 -8 -8 -8 -9 -8 -8 -8 -8 -8 -8 -8 -10 -11 -11 -11 -10 -10 -10 -11 -12 -17 -17 -16
-25 -24 -23 -22 -20 -19 -18 -17 -16 -15 -15 -14 -13 -13 -12 -12 -12 -12 -12 -11 -10 -9 -9 -9 -9 -9 -9 -9 -9 -8 -8 -8 -9 -9 -10 -9 -9 -10 -10 -11 -14 -17 -17
-23 -23 -22 -21 -20 -20 -19 -18 -17 -17 -17 -16 -16 -16 -14 -14 -13 -13 -13 -12 -12 -11 -10 -11 -11 -9 -9 -9 -9 -9 -8 -8 -8 -9 -9 -9 -9 -9 -10 -11 -13 -18 -17
-22 -22 -21 -21 -20 -20 -20 -19 -19 -18 -18 -18 -17 -17 -17 -17 -16 -15 -14 -14 -13 -13 -12 -13 -13 -13 -11 -10 -9 -9 -9 -9 -9 -9 -9 -9 -9 -9 -10 -10 -12 -17 -17
-22 -21 -21 -21 -21 -20 -20 -20 -20 -20 -19 -19 -19 -18 -18 -18 -17 -17 -16 -16 -15 -14 -13 -15 -15 -14 -14 -13 -10 -10 -9 -9 -9 -10 -9 -9 -9 -9 -9 -10 -12 -16 -18

GFSGL_850_dewp_036.txt.gz
Dewpoint
9 9 9 9 8 6 6 7 7 6 4 -0 2 -0 -2 -6 -9 -11 -8 -10 -9 -8 -9 -9 -7 -8 -7 -6 -6 -6 -6 -6 -6 -8 -9 -10 -11 -13 -15 -19 -22 -22 -21
6 8 8 8 6 7 7 6 5 4 0 1 -4 -4 -5 -6 -9 -5 -6 -9 -7 -7 -7 -7 -7 -8 -9 -6 -9 -8 -8 -7 -8 -9 -10 -11 -13 -15 -19 -21 -22 -21 -18
6 6 7 8 7 7 5 4 3 -0 -2 -4 -4 -4 -5 -7 -6 -2 -9 -9 -7 -6 -7 -6 -7 -7 -8 -10 -12 -9 -8 -8 -10 -10 -12 -12 -14 -18 -20 -20 -20 -19 -19
6 6 7 6 6 5 4 1 -1 -3 -1 -4 -4 -4 -5 -4 -1 -5 -8 -7 -6 -6 -6 -6 -7 -7 -9 -10 -10 -11 -11 -11 -12 -11 -12 -13 -15 -18 -20 -19 -19 -19 -20
8 7 6 6 5 3 2 1 -2 -4 -5 -5 -5 -5 -4 -1 -1 -3 -8 -6 -6 -7 -6 -6 -6 -7 -8 -9 -10 -10 -12 -12 -12 -12 -12 -13 -16 -19 -18 -17 -17 -19 -17
7 6 5 5 2 2 1 -1 -3 -4 -4 -3 -4 -3 -1 -1 -3 -6 -7 -7 -7 -7 -6 -6 -6 -7 -7 -8 -7 -9 -12 -12 -12 -11 -12 -14 -17 -17 -16 -16 -17 -15 -12
6 6 4 3 2 1 -2 -3 -3 -3 -2 -3 -2 -1 -1 -1 -6 -8 -8 -8 -7 -6 -6 -6 -6 -6 -6 -7 -9 -12 -12 -12 -12 -11 -13 -16 -17 -15 -15 -16 -16 -14 -13
5 4 3 2 1 -1 -3 -3 -2 -2 -2 -1 -1 -1 -2 -7 -10 -12 -11 -9 -6 -6 -6 -6 -6 -6 -6 -7 -12 -13 -13 -12 -12 -12 -16 -17 -15 -15 -14 -14 -14 -15 -16
3 2 1 -0 -1 -3 -2 -2 -2 -1 -1 -0 -1 -5 -8 -12 -13 -15 -14 -10 -7 -6 -6 -5 -5 -6 -7 -8 -11 -12 -14 -14 -13 -15 -17 -16 -14 -14 -13 -13 -15 -15 -16
1 -0 -2 -2 -2 -2 -1 -1 -0 -1 -2 -8 -9 -10 -11 -13 -13 -14 -14 -13 -8 -6 -6 -6 -5 -6 -6 -7 -9 -10 -13 -15 -14 -16 -16 -14 -14 -14 -14 -14 -14 -14 -15
-1 -2 -2 -1 -0 -0 -1 -5 -12 -12 -12 -12 -11 -12 -13 -13 -13 -12 -11 -12 -10 -5 -7 -8 -6 -5 -6 -6 -8 -8 -10 -13 -15 -15 -14 -14 -15 -14 -14 -14 -15 -15 -15
0 0 -0 -4 -10 -13 -15 -14 -13 -13 -12 -13 -13 -14 -14 -13 -11 -11 -10 -9 -10 -9 -6 -7 -7 -6 -6 -7 -7 -8 -9 -11 -12 -13 -13 -13 -14 -13 -13 -13 -15 -16 -16
-7 -11 -15 -15 -15 -15 -15 -15 -14 -14 -13 -13 -13 -12 -12 -11 -11 -10 -9 -10 -10 -10 -10 -8 -8 -8 -8 -6 -7 -7 -8 -9 -11 -11 -13 -12 -13 -13 -13 -13 -16 -16 -16
-14 -15 -15 -15 -15 -14 -13 -12 -12 -12 -11 -10 -8 -7 -7 -8 -8 -8 -8 -9 -8 -9 -10 -10 -8 -7 -7 -7 -7 -7 -8 -8 -10 -10 -12 -12 -13 -13 -13 -12 -17 -16 -16
-13 -13 -13 -13 -13 -13 -12 -11 -10 -9 -7 -6 -6 -6 -6 -6 -6 -6 -5 -6 -6 -7 -8 -9 -9 -8 -7 -7 -8 -8 -7 -8 -9 -10 -10 -12 -12 -12 -12 -14 -17 -16 -16
-13 -13 -13 -14 -16 -18 -21 -25 -27 -28 -27 -23 -17 -10 -8 -8 -8 -7 -6 -6 -6 -7 -7 -8 -9 -8 -7 -7 -7 -7 -7 -8 -9 -9 -10 -11 -12 -12 -12 -13 -17 -16 -16
-18 -21 -24 -28 -33 -34 -33 -33 -33 -33 -29 -26 -21 -11 -10 -10 -10 -8 -7 -7 -6 -7 -7 -7 -9 -10 -9 -8 -7 -7 -7 -8 -9 -10 -10 -11 -12 -12 -12 -12 -14 -16 -16
-29 -32 -33 -33 -32 -31 -30 -27 -25 -23 -23 -22 -15 -12 -12 -12 -13 -15 -13 -9 -7 -7 -8 -8 -7 -8 -8 -9 -8 -7 -8 -8 -9 -11 -11 -12 -11 -11 -12 -12 -13 -16 -16
-32 -33 -33 -32 -31 -29 -27 -25 -22 -17 -15 -13 -14 -14 -13 -13 -13 -15 -12 -9 -9 -9 -8 -8 -8 -8 -8 -8 -8 -8 -8 -8 -9 -10 -11 -12 -12 -11 -12 -11 -13 -16 -16
-32 -32 -31 -30 -29 -28 -27 -25 -22 -19 -16 -14 -13 -13 -13 -13 -13 -11 -9 -9 -9 -8 -8 -8 -8 -8 -8 -8 -8 -8 -8 -8 -8 -9 -12 -13 -12 -11 -11 -11 -13 -17 -17
-31 -30 -30 -29 -27 -26 -24 -22 -20 -19 -18 -17 -16 -15 -14 -13 -13 -12 -13 -12 -11 -10 -10 -9 -9 -8 -8 -8 -8 -8 -8 -8 -8 -9 -11 -12 -11 -10 -11 -11 -12 -16 -18
-29 -29 -28 -26 -25 -24 -23 -21 -20 -19 -19 -18 -18 -17 -17 -17 -16 -14 -13 -13 -13 -13 -13 -11 -10 -9 -9 -9 -9 -9 -9 -9 -8 -9 -11 -11 -10 -10 -11 -11 -11 -14 -18
-28 -27 -25 -24 -23 -22 -22 -21 -21 -20 -20 -19 -19 -19 -18 -18 -17 -17 -16 -15 -14 -13 -13 -12 -12 -10 -10 -10 -9 -9 -9 -10 -9 -8 -10 -11 -11 -10 -10 -10 -11 -12 -18
-26 -25 -24 -23 -22 -22 -22 -21 -21 -21 -20 -20 -20 -20 -19 -19 -19 -18 -18 -17 -17 -15 -14 -13 -13 -12 -12 -12 -10 -10 -10 -10 -10 -9 -9 -9 -10 -10 -9 -10 -10 -12 -16
-24 -23 -22 -22 -22 -22 -21 -21 -21 -21 -21 -21 -20 -20 -20 -20 -19 -19 -19 -18 -18 -17 -16 -14 -14 -13 -13 -14 -13 -11 -10 -10 -10 -9 -9 -9 -9 -9 -9 -9 -10 -11 -15
-22 -22 -22 -22 -21 -21 -21 -21 -21 -21 -22 -22 -22 -22 -21 -20 -20 -20 -19 -19 -18 -18 -17 -16 -15 -14 -14 -15 -14 -14 -12 -10 -10 -9 -9 -9 -9 -9 -9 -9 -10 -10 -14

GFSGL_850_dewp_039.txt.gz
Dewpoint
6 7 8 7 8 8 7 7 8 8 7 6 3 -2 1 0 -5 -10 -8 -3 -2 -9 -8 -8 -9 -8 -7 -9 -9 -6 -5 -6 -6 -8 -7 -8 -11 -11 -11 -14 -20 -21 -20
6 6 4 5 6 6 6 6 8 8 7 5 -1 -1 -0 -4 -6 -5 -5 -1 -7 -8 -7 -7 -7 -7 -8 -8 -8 -7 -6 -6 -7 -8 -9 -9 -10 -12 -15 -18 -21 -21 -20
6 6 6 6 6 6 8 7 7 7 6 4 -3 -1 0 -5 -5 -5 -3 -1 -6 -7 -6 -6 -7 -7 -7 -7 -9 -10 -9 -9 -9 -8 -10 -11 -10 -11 -12 -14 -15 -17 -15
6 6 8 8 9 8 7 6 6 5 4 -2 -3 -2 -2 -5 -4 -4 -0 -1 -5 -6 -6 -6 -7 -6 -7 -7 -8 -9 -9 -10 -9 -10 -11 -11 -11 -12 -13 -15 -14 -14 -13
9 9 9 7 7 6 5 4 2 -1 -4 -4 -4 -3 -4 -3 -3 -0 -1 -4 -7 -7 -6 -6 -7 -6 -6 -7 -7 -8 -9 -9 -9 -11 -11 -11 -12 -12 -14 -14 -13 -13 -13
7 7 7 6 5 4 3 0 -1 -3 -2 -4 -5 -4 -4 -1 -1 -1 -1 -6 -7 -7 -7 -6 -7 -6 -6 -7 -7 -7 -7 -8 -11 -10 -11 -11 -12 -12 -14 -12 -12 -12 -13
6 6 6 5 4 3 1 0 -1 -2 -3 -4 -3 -0 -0 -0 -1 -2 -7 -7 -9 -11 -9 -7 -6 -5 -6 -6 -6 -7 -7 -12 -13 -11 -10 -10 -11 -14 -13 -12 -12 -12 -12
5 5 4 3 2 1 0 -1 -2 -2 -3 0 -0 -1 -1 -1 -2 -8 -9 -11 -13 -13 -10 -7 -6 -5 -5 -6 -6 -6 -7 -11 -13 -13 -12 -13 -15 -17 -14 -11 -11 -11 -12
3 3 2 1 1 -0 -1 -0 -2 -1 -1 -1 -1 -1 -1 -8 -9 -10 -13 -14 -15 -15 -13 -9 -6 -7 -6 -5 -6 -6 -7 -10 -12 -13 -13 -15 -18 -17 -15 -12 -11 -12 -12
1 0 -1 -1 -2 -2 -2 -1 -0 -0 -1 -3 -6 -10 -11 -11 -11 -13 -13 -11 -13 -14 -15 -14 -7 -7 -7 -7 -6 -6 -6 -9 -10 -12 -14 -16 -17 -15 -15 -13 -11 -12 -12
-1 -1 -2 -1 -0 -0 -3 -10 -14 -13 -13 -13 -13 -13 -12 -12 -12 -12 -11 -9 -10 -11 -11 -12 -12 -6 -7 -7 -6 -6 -7 -7 -8 -10 -13 -14 -15 -13 -11 -11 -11 -12 -12
0 0 -2 -7 -13 -15 -16 -16 -16 -15 -15 -14 -14 -14 -14 -13 -12 -11 -9 -9 -9 -7 -8 -10 -11 -11 -7 -6 -6 -6 -6 -7 -8 -9 -11 -12 -13 -12 -11 -11 -11 -12 -12
-7 -11 -14 -15 -15 -15 -15 -15 -14 -13 -11 -11 -10 -10 -9 -8 -8 -7 -7 -7 -6 -6 -7 -9 -9 -10 -10 -8 -7 -7 -6 -7 -8 -8 -9 -11 -11 -13 -13 -14 -13 -13 -16
-13 -14 -15 -14 -14 -14 -13 -13 -13 -13 -14 -14 -13 -12 -12 -11 -8 -7 -7 -8 -7 -6 -6 -6 -6 -7 -9 -10 -8 -6 -7 -7 -8 -8 -8 -10 -10 -12 -13 -13 -13 -12 -13
-14 -14 -14 -16 -19 -22 -26 -30 -32 -32 -31 -28 -22 -14 -11 -11 -10 -10 -8 -8 -8 -7 -7 -7 -7 -7 -8 -10 -9 -7 -7 -7 -8 -9 -9 -9 -10 -11 -13 -13 -12 -13 -13
-17 -21 -23 -27 -30 -32 -33 -34 -34 -33 -31 -28 -25 -20 -13 -12 -14 -15 -13 -12 -11 -9 -7 -8 -7 -7 -8 -9 -10 -7 -7 -7 -8 -8 -8 -9 -9 -10 -12 -13 -12 -12 -12
-24 -28 -30 -32 -33 -34 -34 -34 -33 -32 -31 -29 -26 -20 -17 -15 -14 -15 -15 -14 -15 -15 -12 -8 -7 -7 -7 -9 -8 -8 -8 -8 -7 -8 -8 -9 -9 -10 -11 -12 -12 -12 -12
-29 -31 -33 -34 -34 -33 -33 -32 -31 -29 -27 -24 -24 -22 -20 -18 -15 -14 -14 -12 -10 -9 -9 -8 -9 -8 -8 -9 -8 -8 -8 -8 -8 -8 -8 -9 -10 -10 -12 -12 -12 -12 -12
-31 -33 -34 -33 -32 -31 -31 -30 -28 -27 -26 -24 -24 -23 -23 -21 -20 -17 -14 -13 -13 -11 -11 -10 -9 -8 -8 -8 -8 -8 -8 -8 -8 -8 -8 -9 -10 -11 -12 -12 -12 -12 -15
-33 -33 -32 -31 -30 -29 -29 -28 -26 -25 -24 -23 -22 -22 -21 -21 -20 -19 -18 -15 -13 -13 -13 -12 -10 -9 -9 -9 -8 -8 -8 -8 -9 -8 -9 -9 -10 -11 -12 -12 -12 -11 -14
-32 -31 -30 -29 -29 -28 -27 -25 -24 -23 -22 -22 -22 -21 -20 -20 -19 -19 -18 -18 -17 -14 -13 -12 -12 -12 -11 -10 -9 -9 -8 -9 -9 -9 -9 -9 -10 -12 -12 -11 -11 -11 -13
-31 -30 -29 -28 -27 -26 -25 -24 -23 -22 -22 -22 -21 -21 -21 -21 -20 -20 -19 -19 -18 -17 -17 -14 -13 -12 -12 -12 -11 -10 -9 -9 -9 -10 -10 -9 -10 -12 -12 -11 -11 -11 -12
-29 -28 -27 -26 -25 -24 -23 -22 -22 -22 -22 -21 -21 -21 -21 -21 -21 -20 -20 -20 -19 -18 -18 -17 -16 -14 -13 -13 -12 -11 -10 -10 -10 -10 -10 -9 -10 -11 -11 -10 -11 -11 -11
-28 -26 -25 -24 -24 -23 -22 -22 -22 -21 -21 -22 -22 -23 -23 -23 -22 -21 -20 -20 -20 -19 -19 -18 -17 -16 -14 -13 -13 -12 -12 -11 -11 -11 -11 -10 -9 -11 -11 -10 -10 -11 -11
-26 -25 -24 -23 -22 -22 -22 -22 -21 -22 -23 -24 -24 -23 -23 -23 -23 -23 -22 -22 -21 -20 -19 -19 -18 -17 -16 -15 -14 -13 -13 -12 -11 -11 -11 -10 -10 -9 -10 -10 -10 -10 -10
-24 -24 -23 -22 -22 -21 -21 -22 -23 -24 -24 -23 -23 -23 -22 -22 -22 -22 -22 -22 -22 -22 -20 -19 -18 -16 -16 -15 -15 -14 -13 -12 -12 -11 -11 -10 -10 -9 -9 -9 -9 -10 -10

GFSGL_850_dewp_042.txt.gz
Dewpoint
10 10 8 8 8 9 8 8 7 7 7 8 8 6 4 2 -2 1 -4 -3 -2 -1 -2 -4 -5 -4 -4 -5 -5 -5 -6 -6 -6 -8 -9 -10 -8 -8 -9 -10 -10 -12 -14
11 11 8 8 7 7 7 7 7 8 8 8 8 6 4 -1 -0 -1 -4 -4 -3 -0 -3 -4 -4 -5 -4 -4 -5 -6 -6 -7 -8 -9 -9 -10 -10 -10 -10 -10 -11 -13 -15
9 7 7 6 6 7 7 7 7 8 8 8 6 4 -2 -1 -2 -3 -3 -3 -0 -1 -2 -3 -4 -4 -4 -5 -6 -6 -7 -8 -8 -8 -9 -9 -10 -11 -11 -11 -12 -14 -14
8 8 8 8 9 9 8 8 8 8 7 7 5 2 -0 -2 -1 -4 -2 -1 -0 -1 -2 -3 -3 -4 -4 -5 -6 -6 -7 -7 -8 -8 -10 -10 -12 -12 -12 -13 -15 -16 -15
9 9 9 9 8 7 7 7 6 5 5 5 4 -0 -2 -0 -3 -0 -1 -1 -1 -2 -2 -3 -3 -3 -4 -6 -7 -7 -7 -8 -8 -9 -10 -11 -12 -13 -13 -13 -15 -14 -14
7 7 7 7 6 6 5 4 4 2 0 -1 -1 -3 1 -3 -3 -0 -1 -1 -1 -3 -4 -4 -4 -4 -5 -6 -6 -6 -7 -7 -8 -8 -10 -11 -12 -12 -12 -13 -15 -14 -14
5 5 5 5 5 4 3 2 1 -1 -2 0 -3 -0 -2 -2 -0 -0 -1 -2 -4 -4 -5 -6 -6 -6 -5 -4 -4 -5 -6 -6 -7 -7 -9 -10 -10 -11 -12 -14 -14 -13 -13
4 4 4 4 3 2 1 1 -0 -1 0 -1 -3 -2 -0 -1 -1 -1 -2 -7 -7 -6 -7 -6 -6 -6 -6 -5 -5 -5 -5 -6 -6 -7 -10 -10 -10 -10 -12 -13 -12 -11 -12
2 2 2 1 1 -0 -1 -1 -1 -1 -1 -1 -1 -1 -1 -2 -4 -10 -9 -9 -7 -7 -7 -7 -7 -7 -6 -6 -5 -5 -6 -6 -6 -7 -8 -10 -12 -14 -15 -15 -11 -12 -11
1 1 0 0 0 -0 -0 -0 -0 -0 -2 -5 -5 -4 -5 -12 -11 -12 -10 -10 -6 -6 -6 -6 -7 -9 -13 -9 -5 -6 -5 -6 -6 -6 -8 -9 -10 -13 -16 -16 -11 -11 -12
-0 -0 -0 0 0 -1 -4 -7 -7 -6 -9 -8 -14 -12 -8 -7 -9 -12 -12 -10 -7 -6 -5 -6 -6 -6 -8 -11 -9 -5 -6 -6 -6 -6 -7 -8 -9 -11 -11 -10 -11 -11 -11
1 1 -2 -8 -13 -14 -15 -15 -15 -9 -9 -7 -7 -6 -5 -5 -5 -5 -6 -7 -6 -6 -6 -6 -5 -5 -6 -9 -10 -9 -6 -6 -6 -7 -7 -8 -8 -10 -10 -11 -12 -11 -11
-4 -9 -13 -15 -17 -17 -15 -12 -7 -6 -7 -7 -8 -7 -8 -7 -8 -10 -10 -8 -7 -8 -8 -9 -8 -6 -6 -7 -7 -9 -8 -6 -6 -7 -8 -8 -8 -8 -9 -10 -11 -11 -11
-12 -15 -16 -17 -14 -17 -15 -19 -15 -15 -15 -14 -11 -10 -10 -9 -9 -9 -14 -13 -13 -14 -10 -9 -9 -8 -8 -7 -7 -7 -7 -8 -7 -7 -8 -8 -8 -9 -9 -9 -10 -10 -10
-15 -16 -17 -21 -25 -24 -22 -29 -31 -25 -34 -33 -23 -20 -11 -10 -14 -16 -15 -15 -16 -17 -16 -15 -13 -11 -7 -8 -7 -7 -7 -7 -7 -7 -8 -8 -8 -9 -9 -9 -10 -10 -10
-18 -22 -25 -27 -28 -26 -21 -15 -23 -32 -33 -32 -30 -28 -25 -24 -23 -22 -21 -20 -18 -16 -14 -10 -10 -13 -11 -8 -7 -7 -7 -8 -8 -7 -8 -8 -9 -9 -9 -9 -10 -10 -10
-24 -26 -27 -29 -31 -32 -28 -22 -14 -14 -22 -23 -27 -28 -28 -26 -26 -25 -25 -24 -14 -13 -10 -9 -8 -8 -8 -7 -7 -8 -8 -8 -8 -8 -8 -8 -9 -9 -9 -10 -9 -10 -10
-26 -28 -31 -33 -33 -32 -32 -30 -21 -18 -17 -15 -15 -24 -26 -26 -25 -24 -23 -21 -13 -12 -12 -12 -12 -11 -10 -8 -8 -8 -8 -8 -8 -8 -8 -9 -8 -9 -9 -10 -9 -10 -10
-28 -31 -33 -34 -33 -33 -32 -30 -27 -24 -18 -16 -16 -16 -20 -24 -23 -20 -21 -14 -15 -14 -14 -14 -13 -12 -12 -10 -8 -8 -8 -8 -8 -8 -8 -8 -8 -9 -9 -10 -10 -10 -10
-30 -33 -33 -32 -31 -31 -30 -29 -26 -24 -21 -16 -16 -16 -22 -23 -19 -15 -16 -16 -16 -16 -16 -16 -15 -14 -12 -12 -11 -9 -9 -9 -9 -8 -9 -9 -9 -9 -9 -10 -10 -10 -10
-32 -32 -31 -31 -30 -29 -29 -27 -26 -25 -23 -18 -16 -18 -22 -22 -17 -17 -17 -17 -17 -17 -17 -17 -17 -16 -15 -13 -12 -12 -11 -10 -9 -9 -9 -9 -10 -10 -9 -10 -10 -10 -10
-31 -31 -30 -29 -28 -28 -27 -26 -25 -24 -23 -19 -18 -20 -23 -19 -18 -18 -18 -18 -19 -19 -19 -18 -18 -17 -16 -16 -14 -13 -12 -12 -12 -10 -10 -10 -10 -10 -9 -10 -10 -10 -11
-30 -29 -28 -27 -27 -27 -26 -25 -24 -23 -22 -21 -20 -21 -22 -19 -20 -19 -19 -19 -19 -20 -19 -19 -19 -18 -17 -17 -16 -14 -13 -13 -13 -11 -11 -11 -11 -10 -10 -10 -10 -10 -11
-29 -27 -26 -26 -26 -25 -24 -23 -23 -22 -22 -23 -22 -21 -20 -20 -20 -20 -20 -20 -22 -22 -21 -21 -20 -19 -18 -17 -17 -16 -14 -14 -13 -12 -11 -11 -11 -11 -10 -10 -10 -10 -10
-27 -26 -25 -25 -25 -24 -23 -23 -22 -22 -23 -23 -22 -22 -21 -21 -20 -21 -20 -21 -22 -22 -22 -22 -21 -19 -18 -17 -16 -16 -15 -14 -14 -13 -12 -12 -11 -11 -10 -10 -10 -10 -10
-24 -24 -24 -24 -22 -22 -22 -22 -22 -23 -24 -24 -23 -22 -22 -21 -21 -21 -22 -22 -22 -22 -21 -20 -19 -18 -17 -17 -16 -16 -15 -15 -14 -13 -12 -12 -11 -11 -11 -10 -10 -10 -10

GFSGL_850_dewp_045.txt.gz
Dewpoint
12 11 11 8 8 8 8 9 10 9 9 9 8 7 6 4 5 -0 -1 -1 -2 -2 -2 0 -0 -2 -3 -3 -4 -4 -5 -5 -6 -7 -8 -8 -9 -9 -8 -7 -8 -9 -10
11 11 12 10 10 9 10 10 10 9 8 8 8 8 6 5 3 -1 -1 -2 -3 -2 0 0 -1 -1 -2 -3 -3 -4 -5 -6 -6 -7 -8 -8 -9 -9 -9 -9 -9 -10 -11
11 11 11 11 10 11 10 10 9 9 8 8 7 6 5 4 1 -2 -0 -2 -1 1 0 -0 -1 -1 -2 -2 -3 -3 -5 -7 -7 -7 -8 -8 -9 -9 -10 -11 -11 -11 -11
11 11 11 10 9 9 9 9 9 8 7 7 6 5 4 2 -1 -0 -1 0 0 0 -0 -1 -1 -1 -2 -3 -3 -4 -6 -7 -6 -7 -8 -8 -9 -10 -11 -12 -12 -12 -13
10 10 9 9 8 8 7 7 7 7 7 6 6 4 3 2 1 0 1 -1 -1 -0 -1 -1 -1 -2 -2 -3 -4 -4 -6 -7 -7 -8 -8 -8 -10 -11 -12 -12 -12 -12 -13
8 8 7 6 6 6 6 5 5 4 3 3 2 2 1 0 -1 0 -2 -1 -1 -1 -1 -2 -3 -5 -5 -5 -5 -6 -5 -5 -6 -7 -8 -8 -9 -10 -11 -11 -11 -11 -14
5 5 5 5 5 4 4 3 2 0 -1 -3 -1 -1 -2 -0 -1 -3 -2 -1 -1 -1 -2 -4 -5 -7 -7 -7 -7 -6 -5 -6 -5 -5 -6 -7 -8 -9 -9 -9 -10 -11 -14
3 3 4 4 4 3 2 1 0 -0 0 0 -1 -2 -1 -1 -1 -1 -1 -2 -4 -4 -5 -6 -6 -6 -7 -7 -6 -6 -4 -5 -5 -5 -6 -7 -7 -7 -9 -9 -10 -12 -12
3 2 2 2 2 2 1 0 -0 0 0 -0 -0 -1 -1 -1 -5 -5 -9 -9 -5 -5 -6 -6 -6 -6 -6 -7 -7 -7 -7 -7 -6 -6 -6 -5 -6 -7 -8 -9 -11 -12 -11
2 2 2 1 1 1 1 1 -0 -2 -4 -6 -2 -3 -3 -4 -4 -5 -7 -6 -6 -6 -5 -5 -6 -6 -6 -6 -6 -7 -8 -8 -7 -6 -5 -5 -6 -6 -7 -8 -9 -11 -11
1 1 1 1 0 -0 -1 -3 -4 -5 -5 -4 -9 -4 -5 -5 -5 -5 -5 -6 -6 -6 -6 -6 -6 -6 -5 -5 -5 -5 -5 -8 -9 -6 -6 -5 -7 -7 -8 -9 -9 -11 -11
0 -0 -2 -4 -7 -6 -6 -6 -7 -6 -5 -4 -4 -4 -4 -4 -5 -5 -6 -8 -11 -13 -14 -13 -9 -9 -7 -9 -9 -7 -6 -6 -7 -8 -6 -6 -6 -7 -7 -8 -8 -9 -10
-3 -5 -6 -7 -7 -7 -6 -6 -7 -7 -7 -7 -9 -8 -8 -8 -8 -8 -9 -13 -22 -27 -28 -29 -30 -29 -25 -14 -10 -9 -9 -8 -6 -7 -7 -7 -8 -8 -7 -8 -8 -8 -9
-5 -5 -6 -7 -8 -9 -11 -12 -11 -10 -11 -13 -11 -10 -10 -9 -9 -14 -27 -32 -27 -26 -24 -28 -27 -20 -19 -14 -12 -11 -9 -7 -6 -7 -7 -8 -7 -7 -7 -8 -8 -9 -9
-6 -7 -9 -14 -13 -13 -13 -15 -19 -26 -35 -36 -27 -31 -25 -24 -21 -30 -28 -27 -27 -26 -24 -18 -10 -8 -8 -8 -10 -10 -8 -8 -7 -7 -8 -8 -7 -8 -8 -8 -8 -9 -9
-9 -11 -13 -16 -16 -14 -14 -14 -19 -23 -30 -34 -34 -33 -32 -31 -29 -27 -27 -27 -26 -23 -17 -11 -11 -11 -10 -9 -8 -7 -8 -6 -7 -7 -7 -7 -8 -7 -8 -8 -9 -9 -9
-11 -19 -25 -20 -14 -16 -18 -14 -13 -13 -20 -23 -23 -25 -30 -30 -28 -27 -26 -26 -20 -14 -12 -12 -12 -12 -12 -11 -10 -10 -10 -7 -8 -8 -8 -8 -7 -8 -8 -8 -9 -9 -9
-22 -23 -15 -13 -16 -21 -18 -21 -15 -13 -13 -11 -11 -14 -18 -26 -26 -26 -26 -23 -13 -13 -13 -13 -13 -13 -13 -13 -12 -11 -10 -9 -8 -8 -8 -8 -8 -8 -8 -8 -9 -9 -9
-18 -20 -26 -29 -34 -34 -32 -28 -21 -16 -13 -12 -12 -13 -13 -22 -25 -19 -14 -14 -14 -14 -14 -14 -14 -14 -14 -14 -14 -13 -11 -10 -9 -8 -8 -9 -9 -9 -8 -8 -8 -9 -9
-26 -30 -33 -32 -31 -29 -27 -22 -16 -15 -13 -13 -13 -13 -15 -25 -23 -14 -14 -15 -15 -15 -15 -16 -16 -16 -16 -16 -15 -14 -13 -11 -11 -9 -8 -9 -9 -9 -9 -8 -9 -9 -9
-25 -30 -32 -31 -28 -28 -26 -21 -19 -17 -14 -14 -14 -14 -18 -23 -17 -15 -15 -16 -16 -17 -17 -17 -17 -17 -17 -17 -16 -16 -15 -13 -12 -11 -11 -9 -9 -9 -9 -9 -9 -9 -9
-29 -30 -29 -28 -27 -26 -27 -25 -21 -16 -15 -15 -15 -15 -16 -16 -16 -16 -16 -17 -17 -18 -18 -18 -18 -18 -18 -18 -18 -17 -16 -15 -14 -13 -12 -11 -10 -10 -10 -9 -9 -9 -10
-29 -29 -27 -24 -26 -26 -20 -17 -16 -15 -16 -16 -16 -16 -17 -17 -17 -18 -18 -18 -19 -19 -19 -19 -20 -19 -19 -19 -19 -18 -18 -17 -16 -15 -14 -13 -12 -11 -10 -10 -9 -9 -10
-29 -28 -27 -24 -21 -24 -16 -16 -16 -16 -17 -17 -17 -17 -18 -18 -18 -19 -19 -19 -20 -20 -20 -20 -20 -20 -20 -19 -18 -18 -17 -16 -16 -15 -15 -14 -13 -12 -11 -10 -10 -10 -10
-27 -26 -24 -21 -17 -17 -17 -17 -17 -18 -18 -18 -18 -19 -19 -19 -19 -20 -20 -20 -21 -21 -21 -21 -20 -20 -20 -18 -17 -17 -16 -16 -16 -15 -15 -14 -14 -12 -12 -10 -10 -10 -10
-22 -20 -19 -17 -17 -17 -18 -18 -18 -19 -19 -19 -20 -20 -20 -20 -21 -21 -21 -22 -21 -21 -22 -21 -20 -19 -18 -18 -17 -17 -17 -16 -16 -15 -15 -15 -14 -13 -12 -11 -10 -10 -10

GFSGL_850_dewp_048.txt.gz
Dewpoint
10 10 10 10 9 8 8 8 9 9 9 9 9 9 8 7 6 6 4 4 0 -0 -2 -0 1 1 -0 -1 -2 -3 -3 -4 -4 -5 -5 -6 -7 -8 -8 -8 -8 -9 -9
10 11 10 10 11 10 10 8 10 9 9 9 8 8 7 7 6 5 3 2 -0 -1 -1 1 1 -1 -1 -0 -1 -2 -3 -3 -4 -5 -5 -6 -7 -8 -9 -9 -9 -9 -9
10 11 12 11 11 10 10 10 9 9 9 8 8 8 7 5 4 3 2 -0 -2 -1 1 1 0 0 -1 -1 -1 -1 -1 -2 -3 -4 -6 -6 -6 -7 -8 -8 -9 -10 -11
10 10 11 11 11 10 10 9 9 8 8 8 7 6 6 5 4 3 2 -1 -1 1 1 -0 -0 -1 -1 -2 -2 -2 -2 -2 -2 -3 -4 -6 -6 -7 -8 -9 -10 -10 -12
10 11 12 11 9 9 8 8 8 8 7 7 7 6 5 4 4 2 -0 -0 -0 -0 -1 -1 -1 -1 -2 -2 -3 -3 -3 -3 -4 -4 -4 -6 -6 -7 -7 -9 -10 -11 -11
10 10 10 9 8 7 7 6 6 6 6 5 4 4 3 2 1 1 -1 -0 -1 -1 -0 -1 -1 -3 -4 -4 -5 -5 -6 -6 -6 -5 -7 -5 -5 -6 -7 -8 -8 -9 -9
9 8 8 7 6 6 6 5 4 3 2 0 -1 -0 -0 -1 -1 -1 -2 -2 -2 -1 -1 -4 -5 -5 -6 -6 -7 -7 -6 -6 -5 -5 -4 -5 -6 -6 -7 -7 -6 -8 -9
6 5 5 5 5 4 3 2 1 0 -0 -1 -0 -0 0 -0 -1 -1 -1 -2 -4 -11 -8 -4 -5 -6 -6 -6 -6 -6 -6 -7 -7 -6 -5 -5 -6 -6 -5 -6 -6 -7 -7
3 3 4 4 3 3 2 1 0 -0 1 1 0 -1 -1 -1 -2 -3 -4 -7 -10 -10 -9 -10 -9 -7 -7 -6 -5 -5 -5 -6 -7 -7 -9 -9 -7 -5 -5 -5 -7 -7 -7
3 3 2 2 2 2 1 1 1 1 -1 -4 -4 -3 -3 -4 -4 -4 -6 -7 -7 -9 -10 -12 -16 -19 -20 -15 -10 -7 -6 -6 -5 -5 -5 -6 -9 -8 -5 -5 -6 -7 -7
2 2 2 2 1 1 -1 -3 -3 -3 -3 -4 -5 -7 -5 -4 -5 -7 -7 -7 -10 -15 -21 -26 -31 -33 -34 -32 -26 -16 -12 -9 -10 -10 -10 -7 -6 -8 -7 -7 -6 -7 -8
1 1 1 -0 -2 -2 -4 -5 -6 -6 -5 -6 -6 -5 -4 -4 -4 -7 -11 -17 -18 -21 -32 -36 -37 -36 -35 -32 -20 -21 -24 -17 -13 -11 -12 -8 -8 -7 -6 -6 -6 -7 -8
0 -1 -4 -6 -6 -6 -5 -6 -6 -5 -5 -6 -9 -12 -9 -8 -9 -17 -20 -20 -32 -37 -37 -37 -35 -34 -25 -13 -11 -9 -8 -9 -8 -8 -8 -7 -7 -7 -6 -7 -7 -7 -7
-4 -5 -6 -6 -7 -7 -8 -10 -9 -11 -12 -14 -19 -18 -15 -16 -21 -26 -32 -37 -37 -36 -35 -34 -31 -19 -12 -12 -10 -10 -8 -7 -7 -7 -9 -8 -7 -7 -7 -7 -7 -7 -7
-5 -5 -6 -7 -10 -12 -12 -13 -16 -19 -25 -33 -32 -31 -34 -31 -34 -35 -35 -35 -33 -32 -30 -26 -17 -11 -13 -13 -13 -11 -10 -10 -10 -8 -7 -7 -7 -8 -8 -7 -7 -7 -8
-6 -7 -10 -14 -13 -13 -14 -16 -19 -21 -25 -30 -33 -32 -33 -34 -34 -32 -32 -31 -30 -25 -21 -15 -13 -13 -14 -14 -13 -13 -12 -11 -11 -11 -7 -8 -9 -8 -7 -7 -7 -7 -8
-8 -10 -11 -13 -14 -16 -15 -14 -13 -13 -14 -21 -26 -26 -28 -32 -32 -29 -29 -28 -23 -14 -13 -13 -13 -14 -14 -14 -14 -14 -14 -13 -11 -10 -8 -8 -8 -8 -8 -8 -7 -8 -8
-12 -14 -16 -17 -18 -21 -22 -21 -18 -14 -14 -15 -14 -14 -15 -19 -25 -27 -26 -22 -17 -17 -15 -14 -14 -14 -15 -14 -15 -15 -15 -14 -13 -11 -10 -8 -8 -8 -8 -8 -8 -8 -8
-18 -20 -20 -22 -26 -30 -32 -32 -28 -24 -20 -17 -15 -12 -12 -13 -17 -24 -14 -14 -14 -15 -15 -16 -16 -16 -16 -16 -16 -16 -16 -16 -14 -13 -11 -11 -9 -8 -8 -8 -8 -8 -8
-21 -15 -13 -15 -25 -31 -30 -28 -24 -21 -20 -18 -15 -13 -14 -17 -21 -23 -14 -15 -16 -16 -16 -17 -17 -17 -17 -17 -17 -17 -17 -16 -16 -14 -13 -12 -11 -9 -8 -9 -8 -8 -8
-7 -9 -16 -28 -28 -27 -27 -25 -23 -22 -21 -18 -16 -14 -14 -16 -19 -16 -15 -16 -16 -16 -17 -17 -17 -18 -18 -18 -18 -18 -18 -17 -17 -16 -14 -13 -12 -11 -9 -9 -9 -8 -8
-11 -19 -19 -21 -27 -27 -27 -26 -26 -23 -18 -16 -15 -15 -15 -16 -16 -16 -17 -17 -17 -18 -18 -18 -18 -19 -19 -19 -19 -19 -19 -19 -18 -17 -17 -16 -13 -12 -11 -10 -10 -9 -8
-12 -19 -26 -25 -26 -26 -25 -20 -19 -18 -16 -17 -17 -16 -16 -16 -17 -17 -17 -18 -18 -19 -19 -19 -19 -19 -20 -21 -20 -20 -20 -19 -18 -17 -17 -17 -16 -13 -12 -12 -11 -10 -9
-24 -27 -27 -25 -23 -22 -22 -18 -19 -16 -16 -16 -16 -17 -17 -17 -18 -18 -19 -19 -19 -19 -20 -20 -20 -21 -21 -20 -20 -19 -18 -18 -19 -19 -17 -16 -16 -15 -14 -12 -12 -11 -9
-18 -15 -16 -19 -19 -17 -16 -16 -16 -17 -17 -17 -18 -18 -18 -19 -19 -19 -20 -20 -20 -21 -21 -22 -22 -21 -20 -19 -19 -19 -19 -19 -18 -18 -17 -16 -16 -15 -14 -13 -12 -11 -10
-14 -15 -16 -17 -17 -16 -17 -17 -17 -18 -18 -18 -19 -19 -20 -20 -20 -21 -21 -21 -21 -22 -22 -22 -21 -20 -19 -19 -19 -19 -19 -18 -17 -17 -17 -17 -16 -15 -14 -14 -13 -11 -10

GFSGL_850_dewp_054.txt.gz
Dewpoint
8 8 7 8 8 8 8 8 8 8 8 9 7 8 9 8 7 8 9 9 8 7 7 5 4 4 2 0 1 1 0 1 1 -1 -1 -2 -3 -3 -3 -4 -4 -5 -6
7 3 4 8 9 9 9 9 9 5 8 8 8 9 9 8 9 9 9 8 8 7 6 5 3 2 1 1 -0 -1 -2 -2 -2 -1 -1 -2 -3 -3 -4 -3 -3 -4 -4
7 6 5 9 10 10 8 8 9 8 7 9 8 9 8 8 8 8 8 8 6 6 5 3 3 1 1 1 -1 -2 -2 -2 -2 -2 -3 -3 -3 -3 -5 -5 -5 -4 -4
8 7 6 6 10 9 9 6 8 9 10 9 9 9 8 8 7 7 7 7 5 4 4 3 0 0 1 -1 -2 -2 -3 -3 -3 -4 -5 -5 -5 -5 -5 -5 -6 -6 -6
8 7 8 6 8 10 9 8 8 10 9 9 9 8 8 8 8 7 6 5 4 3 2 -0 -0 -0 -1 -1 -2 -3 -4 -5 -5 -5 -5 -6 -6 -6 -6 -6 -6 -6 -6
7 7 7 7 9 9 8 9 11 9 9 8 8 8 8 8 7 6 4 3 3 1 -0 -1 -0 -2 -2 -2 -6 -6 -6 -6 -5 -5 -5 -5 -5 -5 -5 -5 -5 -6 -6
9 8 9 9 9 9 9 10 9 9 8 8 8 7 7 6 5 4 3 2 0 -0 -0 -1 -2 -2 -2 -7 -9 -9 -8 -7 -7 -6 -6 -7 -7 -7 -7 -6 -5 -5 -6
7 9 8 9 9 10 10 9 8 8 7 7 6 6 5 4 3 2 1 -0 -1 -2 -2 -2 -2 -4 -10 -10 -11 -13 -20 -30 -36 -38 -38 -38 -35 -35 -33 -29 -20 -13 -9
10 11 11 10 10 9 9 8 7 7 6 5 5 4 2 1 -0 -1 -1 -1 -2 -2 -3 -6 -9 -9 -9 -13 -24 -35 -39 -40 -36 -28 -21 -17 -14 -14 -13 -16 -16 -8 -8
10 10 10 9 9 9 8 6 5 4 3 1 -0 -0 -0 -0 -1 -1 -1 -3 -3 -5 -7 -7 -7 -12 -26 -37 -39 -39 -38 -33 -29 -27 -21 -18 -13 -13 -12 -8 -8 -9 -8
9 9 9 8 7 7 5 4 3 1 -0 -0 -0 -0 -0 -1 -1 -2 -4 -5 -5 -6 -7 -10 -22 -36 -39 -39 -39 -36 -28 -31 -30 -31 -31 -28 -18 -12 -11 -10 -8 -8 -8
8 7 6 6 4 4 3 2 1 0 0 0 -0 -1 -1 -3 -4 -5 -4 -5 -6 -8 -19 -28 -37 -38 -38 -38 -35 -28 -29 -33 -32 -32 -30 -27 -22 -17 -12 -12 -9 -7 -8
6 4 3 3 3 2 1 1 1 0 -0 -1 -2 -4 -4 -4 -5 -5 -5 -6 -10 -18 -30 -37 -37 -37 -34 -29 -25 -26 -26 -28 -28 -28 -26 -21 -15 -14 -14 -13 -10 -8 -7
3 2 2 2 2 2 0 -1 -1 -2 -2 -3 -3 -4 -5 -6 -6 -7 -9 -11 -20 -33 -36 -35 -34 -32 -28 -25 -23 -25 -25 -25 -25 -24 -23 -18 -14 -12 -11 -9 -8 -8 -7
2 2 2 2 1 -1 -2 -2 -3 -3 -4 -5 -5 -5 -6 -8 -9 -11 -15 -28 -34 -35 -35 -33 -28 -25 -25 -24 -24 -23 -24 -26 -25 -23 -23 -22 -15 -12 -12 -10 -9 -7 -8
2 2 1 -1 -2 -4 -5 -5 -5 -6 -6 -7 -8 -9 -10 -13 -17 -26 -32 -33 -33 -33 -32 -28 -24 -22 -22 -22 -22 -24 -25 -25 -24 -22 -21 -21 -17 -13 -12 -11 -9 -8 -8
1 -2 -5 -5 -5 -6 -6 -7 -8 -10 -14 -18 -22 -26 -27 -27 -24 -24 -26 -26 -29 -29 -25 -23 -22 -22 -22 -22 -23 -24 -23 -23 -22 -22 -21 -20 -19 -15 -13 -12 -10 -9 -8
-2 -5 -6 -8 -10 -11 -12 -13 -14 -15 -16 -14 -11 -10 -14 -18 -18 -18 -20 -19 -21 -24 -23 -22 -21 -20 -19 -20 -22 -22 -23 -24 -23 -23 -23 -20 -20 -18 -14 -13 -12 -10 -9
-6 -8 -10 -10 -9 -8 -7 -7 -7 -8 -8 -9 -10 -10 -10 -11 -14 -15 -14 -15 -20 -20 -18 -18 -18 -18 -19 -20 -21 -22 -23 -23 -22 -23 -23 -21 -20 -19 -17 -14 -12 -13 -10
-6 -6 -6 -6 -7 -8 -8 -8 -8 -9 -10 -10 -11 -11 -12 -12 -13 -13 -15 -18 -19 -18 -17 -17 -18 -18 -19 -21 -22 -22 -22 -22 -23 -23 -22 -20 -19 -19 -18 -16 -14 -13 -11
-6 -6 -7 -7 -8 -8 -8 -9 -10 -11 -11 -12 -12 -13 -13 -13 -14 -15 -16 -17 -17 -17 -18 -18 -18 -19 -20 -21 -22 -22 -22 -23 -22 -21 -20 -19 -19 -19 -18 -18 -15 -14 -13
-8 -8 -8 -9 -9 -10 -10 -11 -12 -13 -13 -14 -14 -14 -14 -15 -15 -16 -16 -16 -17 -17 -18 -18 -19 -19 -20 -22 -22 -22 -22 -22 -21 -20 -19 -19 -19 -18 -18 -17 -17 -14 -13
-9 -10 -10 -11 -11 -12 -12 -13 -14 -14 -14 -15 -15 -15 -16 -16 -17 -17 -17 -18 -18 -18 -19 -19 -20 -21 -23 -23 -22 -22 -21 -20 -20 -20 -20 -19 -19 -19 -18 -17 -17 -16 -14
-11 -12 -12 -13 -13 -14 -14 -15 -15 -15 -16 -16 -16 -17 -17 -17 -18 -18 -19 -19 -19 -20 -20 -20 -21 -23 -24 -23 -22 -21 -20 -20 -20 -20 -19 -19 -19 -18 -18 -17 -17 -16 -15
-13 -13 -14 -15 -15 -16 -16 -16 -17 -17 -17 -17 -18 -18 -19 -19 -19 -20 -20 -21 -21 -21 -21 -22 -23 -24 -25 -23 -21 -20 -20 -20 -20 -19 -19 -19 -19 -18 -18 -17 -17 -16 -16
-15 -16 -17 -18 -18 -18 -18 -18 -18 -18 -19 -19 -20 -20 -20 -21 -21 -22 -22 -22 -22 -23 -23 -23 -24 -25 -24 -21 -20 -20 -20 -19 -19 -19 -20 -19 -19 -18 -18 -17 -17 -16 -16

GFSGL_850_dewp_057.txt.gz
Dewpoint
2 2 1 1 0 2 3 3 3 5 7 9 9 9 8 8 8 8 7 7 8 8 8 8 7 6 5 5 4 2 1 1 1 -0 -1 -1 -2 -2 -2 -3 -3 -3 -4
5 5 5 5 4 4 5 5 6 5 8 9 9 7 6 8 9 9 8 8 8 8 8 7 7 5 4 4 2 1 1 -0 -1 -1 -2 -2 -3 -3 -4 -4 -4 -4 -6
6 7 7 7 8 7 7 7 8 7 5 5 10 7 8 8 9 8 8 8 8 8 8 7 5 4 3 2 1 1 0 -1 -2 -2 -2 -3 -3 -4 -7 -8 -8 -8 -7
7 7 7 8 8 8 8 7 9 9 8 6 7 9 8 9 9 8 8 8 8 7 6 5 4 3 2 1 1 1 -0 -4 -5 -4 -6 -7 -7 -10 -8 -8 -8 -8 -8
8 9 8 8 8 8 8 8 8 9 7 9 10 10 9 9 9 8 8 8 7 6 5 4 3 2 1 0 0 -1 -3 -6 -7 -8 -9 -10 -13 -14 -11 -8 -7 -7 -9
6 8 9 9 8 9 8 8 10 10 10 9 7 9 9 8 8 8 8 7 6 5 4 3 2 0 -0 -0 -2 -2 -3 -8 -8 -9 -12 -13 -14 -17 -22 -31 -31 -25 -19
4 7 8 9 9 9 9 9 9 9 10 9 9 8 8 8 8 8 7 6 5 4 3 1 0 -0 -0 -1 -2 -3 -6 -7 -9 -12 -18 -30 -37 -36 -29 -23 -20 -16 -16
6 7 8 8 9 9 8 8 8 10 10 9 9 8 8 7 7 6 5 4 3 2 0 0 -0 -1 -2 -3 -3 -8 -9 -14 -25 -36 -37 -34 -28 -23 -18 -14 -13 -13 -13
7 8 8 8 9 9 9 10 10 10 10 9 8 8 7 6 6 4 3 2 1 0 -0 -1 -1 -1 -2 -6 -10 -12 -24 -37 -39 -38 -36 -35 -33 -29 -20 -12 -11 -9 -9
8 8 7 8 10 10 10 9 9 9 8 7 6 5 5 4 3 2 1 0 -1 -1 -2 -2 -3 -6 -8 -9 -18 -33 -38 -38 -36 -37 -38 -37 -36 -34 -28 -21 -12 -11 -8
9 9 9 9 10 10 10 9 8 7 6 5 4 3 2 1 -0 -1 -1 -1 -1 -2 -3 -5 -6 -7 -14 -28 -38 -38 -35 -35 -33 -35 -35 -36 -35 -33 -29 -22 -16 -12 -10
10 10 10 10 9 9 8 7 6 5 4 3 1 0 -0 -0 -1 -1 -2 -2 -2 -4 -5 -6 -11 -23 -35 -38 -36 -32 -31 -30 -33 -33 -33 -33 -33 -32 -29 -24 -18 -14 -11
9 9 8 8 7 6 5 5 4 2 -0 -0 -0 -0 -1 -1 -2 -2 -2 -3 -4 -5 -8 -15 -28 -36 -36 -32 -27 -27 -29 -29 -32 -32 -33 -32 -30 -30 -28 -24 -17 -12 -8
8 7 6 5 4 3 2 1 1 0 0 0 -1 -1 -1 -2 -3 -4 -4 -5 -7 -11 -20 -32 -34 -34 -32 -28 -26 -25 -26 -29 -29 -29 -30 -30 -29 -28 -27 -19 -14 -13 -9
5 4 3 3 2 2 1 1 1 0 -0 -1 -1 -2 -3 -4 -5 -5 -7 -9 -14 -26 -30 -32 -31 -27 -24 -22 -23 -25 -27 -28 -28 -29 -29 -29 -29 -27 -25 -22 -14 -13 -10
4 3 2 2 2 1 1 -0 -1 -1 -2 -2 -3 -3 -4 -5 -7 -9 -10 -19 -11 -22 -30 -28 -25 -22 -22 -22 -23 -24 -25 -26 -27 -27 -28 -28 -27 -25 -24 -23 -15 -13 -12
3 2 2 2 1 -0 -2 -2 -3 -5 -6 -7 -6 -6 -8 -11 -15 -21 -16 -17 -24 -24 -24 -21 -21 -21 -20 -20 -21 -22 -23 -24 -25 -26 -26 -26 -26 -24 -22 -22 -18 -13 -13
2 1 1 -1 -2 -4 -5 -5 -6 -6 -6 -8 -10 -10 -13 -14 -11 -10 -11 -10 -11 -13 -18 -19 -18 -15 -15 -18 -20 -20 -22 -23 -24 -24 -24 -24 -24 -25 -22 -21 -19 -14 -13
-3 -3 -3 -4 -5 -5 -6 -6 -6 -6 -7 -7 -8 -8 -9 -10 -11 -11 -12 -12 -13 -13 -14 -14 -15 -15 -17 -19 -20 -21 -22 -23 -23 -23 -23 -23 -23 -22 -21 -19 -19 -17 -14
-3 -4 -4 -5 -6 -6 -6 -6 -7 -8 -8 -9 -10 -10 -11 -12 -12 -13 -13 -14 -14 -14 -15 -16 -16 -17 -18 -19 -20 -22 -24 -24 -24 -24 -23 -22 -22 -21 -19 -19 -18 -18 -15
-6 -6 -6 -6 -7 -8 -8 -8 -9 -10 -10 -11 -12 -12 -13 -13 -13 -14 -15 -15 -16 -16 -16 -17 -17 -18 -19 -20 -21 -23 -25 -25 -23 -23 -22 -21 -20 -20 -19 -19 -18 -18 -16
-7 -8 -8 -9 -9 -10 -10 -11 -11 -12 -12 -13 -14 -14 -14 -15 -15 -16 -16 -17 -17 -17 -18 -18 -18 -19 -20 -20 -22 -24 -24 -23 -22 -21 -20 -20 -20 -20 -19 -19 -18 -18 -17
-9 -10 -10 -11 -11 -12 -12 -13 -13 -14 -14 -15 -15 -16 -16 -16 -17 -17 -18 -18 -18 -19 -19 -19 -20 -20 -20 -21 -23 -24 -23 -22 -21 -20 -20 -20 -20 -20 -19 -19 -18 -17 -17
-11 -11 -12 -12 -13 -13 -14 -15 -15 -16 -16 -16 -17 -17 -17 -18 -18 -19 -19 -20 -20 -20 -21 -21 -21 -21 -22 -23 -24 -25 -22 -21 -20 -20 -20 -20 -20 -19 -19 -19 -18 -18 -17
-13 -13 -14 -14 -15 -15 -16 -17 -18 -18 -19 -19 -19 -19 -20 -20 -21 -21 -21 -22 -22 -23 -23 -22 -22 -23 -23 -24 -25 -24 -21 -20 -20 -20 -20 -20 -20 -20 -19 -19 -18 -18 -17
-21 -22 -22 -21 -21 -20 -20 -20 -20 -20 -20 -20 -21 -21 -21 -21 -22 -22 -23 -23 -23 -23 -24 -24 -24 -25 -25 -25 -24 -22 -20 -20 -20 -20 -20 -20 -20 -20 -19 -19 -18 -18 -17

GFSGL_850_dewp_060.txt.gz
Dewpoint
-0 -0 -0 -1 -1 -0 0 1 1 1 1 2 4 6 8 8 7 8 8 8 8 8 7 7 8 7 8 7 7 5 5 4 2 2 2 1 -1 -2 -4 -5 -4 -4 -6
0 -1 -1 0 -0 -1 -1 -0 1 2 2 3 4 5 7 8 6 6 7 7 8 8 8 7 9 8 8 6 5 5 4 3 2 1 0 -1 -1 -3 -5 -6 -8 -10 -9
4 3 2 0 -0 0 1 1 1 2 2 3 6 7 8 7 7 7 8 9 9 9 7 8 8 7 7 6 5 3 2 2 1 0 -1 -3 -7 -10 -11 -13 -14 -18 -21
5 5 5 4 4 3 3 3 4 4 4 6 6 5 8 8 7 8 8 9 9 8 8 8 8 7 6 4 3 2 1 1 1 -0 -5 -7 -10 -14 -16 -19 -28 -36 -38
5 6 6 5 5 6 6 6 7 7 8 8 8 7 8 9 7 9 9 9 8 8 8 8 7 5 4 3 2 1 1 1 -0 -3 -8 -11 -14 -17 -23 -35 -38 -38 -38
2 2 3 6 7 6 6 7 8 8 8 9 9 10 10 9 9 10 9 8 8 8 8 6 4 3 2 1 1 0 -0 -1 -3 -5 -10 -12 -17 -30 -38 -38 -35 -33 -28
1 2 4 5 7 8 8 8 8 9 9 9 10 10 9 9 9 9 8 8 8 7 5 4 3 2 1 1 0 -0 -1 -2 -5 -9 -11 -21 -36 -37 -34 -35 -36 -30 -27
2 2 3 5 7 8 9 9 10 10 10 10 10 9 9 9 9 8 9 8 6 5 4 3 2 1 0 -0 -1 -1 -3 -4 -8 -13 -29 -37 -35 -34 -35 -34 -34 -32 -30
3 4 4 5 7 8 9 10 10 10 9 9 8 8 9 9 9 8 6 5 4 3 2 1 1 -0 -1 -1 -2 -2 -6 -10 -20 -35 -36 -35 -35 -37 -36 -34 -32 -27 -30
5 6 6 7 8 9 10 10 9 9 9 9 8 8 8 7 6 5 4 4 3 2 1 -0 -1 -1 -2 -2 -6 -9 -14 -30 -37 -36 -35 -36 -37 -37 -36 -34 -30 -25 -19
6 7 9 9 10 10 9 9 9 9 8 8 7 7 6 4 4 3 2 1 1 0 -1 -1 -2 -3 -5 -7 -11 -25 -36 -37 -37 -36 -36 -37 -37 -37 -36 -33 -29 -23 -19
9 9 10 10 9 9 9 9 8 8 7 7 6 4 3 2 2 1 -0 -1 -1 -1 -2 -3 -4 -6 -8 -19 -33 -37 -36 -34 -32 -33 -34 -35 -34 -35 -34 -32 -30 -26 -17
10 10 10 9 9 8 8 7 6 5 5 5 3 3 2 1 0 -0 -1 -1 -2 -2 -3 -5 -7 -13 -26 -35 -32 -27 -29 -29 -30 -31 -32 -32 -32 -33 -33 -31 -29 -28 -24
10 10 9 9 8 7 6 5 4 4 3 3 2 1 0 -0 -1 -1 -2 -2 -3 -4 -6 -10 -22 -32 -29 -22 -21 -26 -25 -27 -29 -31 -30 -31 -32 -32 -32 -31 -29 -28 -28
9 8 8 7 6 5 4 3 2 1 0 1 0 0 -0 -1 -2 -3 -4 -4 -5 -8 -17 -23 -17 -17 -14 -22 -24 -23 -24 -28 -27 -23 -26 -30 -31 -31 -32 -31 -28 -26 -24
7 6 5 4 3 3 3 2 1 1 0 -0 -0 -1 -2 -3 -4 -4 -5 -6 -7 -16 -11 -12 -11 -20 -24 -22 -17 -22 -23 -17 -19 -25 -27 -28 -28 -28 -28 -29 -28 -24 -23
5 4 3 3 2 2 1 1 1 -2 -2 -3 -3 -4 -5 -5 -6 -6 -8 -12 -11 -9 -9 -12 -15 -14 -12 -15 -16 -13 -15 -17 -19 -23 -26 -26 -25 -25 -25 -26 -26 -23 -22
3 3 2 1 1 -0 -1 -2 -3 -3 -3 -4 -5 -6 -6 -7 -8 -9 -9 -10 -11 -11 -12 -12 -13 -13 -14 -14 -15 -15 -16 -16 -19 -24 -25 -24 -24 -24 -24 -24 -23 -22 -20
0 -1 -2 -2 -3 -4 -4 -5 -5 -6 -6 -7 -8 -9 -9 -10 -10 -11 -11 -12 -12 -13 -13 -14 -14 -15 -15 -16 -16 -17 -17 -20 -23 -25 -24 -24 -23 -23 -22 -22 -21 -20 -19
-3 -4 -4 -5 -6 -6 -6 -7 -7 -8 -9 -9 -10 -11 -11 -12 -12 -12 -13 -13 -14 -15 -15 -15 -16 -16 -17 -17 -17 -18 -20 -21 -24 -24 -23 -23 -22 -21 -21 -20 -20 -19 -19
-6 -6 -6 -6 -7 -7 -8 -8 -9 -10 -10 -11 -12 -12 -13 -13 -13 -14 -15 -15 -16 -16 -17 -17 -17 -18 -18 -19 -19 -20 -20 -22 -24 -23 -23 -22 -21 -20 -20 -20 -19 -19 -18
-7 -8 -8 -8 -9 -9 -10 -10 -11 -11 -12 -13 -13 -14 -14 -15 -15 -16 -16 -17 -17 -18 -18 -18 -19 -19 -19 -20 -20 -20 -21 -23 -24 -23 -21 -21 -20 -20 -20 -20 -19 -19 -18
-9 -9 -10 -10 -11 -11 -12 -12 -13 -13 -14 -15 -15 -16 -16 -16 -17 -17 -18 -18 -19 -19 -20 -20 -21 -21 -21 -22 -21 -22 -23 -24 -24 -22 -21 -20 -20 -20 -20 -20 -19 -19 -18
-11 -11 -12 -12 -13 -13 -14 -14 -15 -16 -16 -17 -17 -18 -19 -20 -20 -20 -21 -21 -22 -22 -22 -23 -23 -23 -23 -23 -23 -23 -24 -24 -23 -21 -21 -21 -20 -20 -20 -20 -19 -19 -19
-13 -15 -16 -18 -20 -20 -21 -21 -20 -20 -20 -20 -21 -21 -21 -21 -21 -22 -22 -23 -23 -23 -24 -24 -24 -24 -25 -25 -25 -25 -25 -24 -22 -21 -21 -21 -20 -20 -20 -20 -20 -19 -19
-25 -25 -25 -24 -24 -24 -24 -23 -23 -23 -23 -23 -23 -23 -23 -23 -23 -23 -24 -24 -24 -25 -25 -25 -25 -25 -25 -25 -25 -25 -24 -23 -21 -21 -21 -21 -20 -20 -20 -20 -20 -19 -19

GFSGL_850_dewp_063.txt.gz
Dewpoint
-0 1 3 4 4 4 4 4 4 4 4 3 2 2 3 3 2 3 5 7 8 7 8 8 8 8 8 7 8 7 7 7 5 5 4 3 2 2 0 -1 -2 -5 -7
-2 -1 -1 0 3 4 3 1 2 2 2 3 3 3 2 1 3 7 7 7 8 7 8 7 8 8 8 8 7 7 7 6 5 4 3 2 1 1 0 -3 -8 -12 -15
2 1 -1 -1 -0 0 0 1 1 1 0 0 0 0 1 2 4 6 6 7 9 8 9 7 8 9 8 8 8 7 6 5 4 3 2 1 1 -0 -7 -11 -16 -19 -26
5 4 3 2 -0 -2 -2 -1 -0 -0 -0 -0 0 1 1 2 5 6 7 8 9 8 8 9 9 8 8 8 7 6 5 4 3 2 1 1 -1 -6 -12 -15 -21 -33 -36
5 5 5 5 4 3 2 1 -0 0 0 2 2 3 3 4 4 7 7 9 7 9 9 9 8 8 8 7 6 5 4 3 2 1 -0 -0 -5 -10 -13 -22 -36 -36 -35
1 0 3 5 5 5 5 5 5 4 4 4 4 6 7 8 9 9 9 9 9 9 9 9 8 8 7 5 4 2 2 1 1 -0 -1 -3 -10 -13 -24 -36 -36 -31 -18
-2 -1 1 2 4 4 6 6 6 6 6 7 7 8 8 9 9 9 9 9 9 8 9 8 8 7 5 4 3 2 1 0 -0 -1 -4 -9 -13 -27 -36 -36 -35 -33 -28
-1 -1 1 2 4 5 7 7 8 8 8 8 9 9 9 9 9 9 9 9 8 8 8 7 6 5 4 3 2 1 0 -1 -1 -3 -8 -14 -30 -36 -35 -36 -37 -35 -36
0 1 2 3 4 6 7 8 9 9 9 9 9 9 9 9 9 9 9 9 8 7 6 5 4 3 3 2 0 -0 -1 -2 -3 -9 -19 -35 -36 -36 -37 -37 -36 -34 -29
1 1 3 4 6 6 7 9 10 10 9 9 9 9 8 8 8 8 8 7 7 5 3 2 2 1 1 -0 -1 -2 -3 -6 -14 -29 -34 -34 -34 -36 -36 -33 -37 -35 -30
4 5 5 6 8 8 9 9 9 9 9 9 8 8 7 7 6 5 4 4 4 3 3 2 0 -1 -1 -2 -3 -5 -10 -22 -34 -34 -34 -33 -34 -29 -33 -36 -34 -27 -33
7 8 8 9 9 10 9 9 9 8 8 8 7 6 5 4 3 2 2 2 1 1 1 -0 -1 -2 -3 -4 -8 -19 -32 -34 -25 -25 -28 -24 -28 -34 -32 -18 -14 -28 -33
9 9 10 10 9 9 9 9 8 8 7 6 4 4 3 1 1 0 0 -1 -1 -1 -2 -2 -3 -4 -8 -16 -26 -32 -22 -16 -18 -14 -16 -27 -30 -17 -10 -16 -29 -33 -33
9 9 9 8 8 8 8 7 6 6 4 4 3 3 2 1 -0 -0 -1 -2 -2 -3 -3 -5 -6 -9 -17 -29 -21 -12 -10 -12 -20 -22 -16 -16 -14 -14 -20 -26 -31 -32 -32
9 9 8 8 7 7 6 4 3 3 3 3 2 2 1 -0 -1 -2 -2 -3 -3 -5 -5 -7 -12 -19 -12 -10 -9 -10 -18 -17 -12 -14 -16 -12 -13 -15 -24 -28 -28 -28 -28
8 7 7 6 6 5 4 3 2 1 1 0 0 -0 -1 -1 -2 -3 -4 -5 -5 -6 -7 -9 -9 -9 -9 -11 -15 -18 -13 -13 -13 -13 -13 -14 -15 -22 -27 -27 -26 -25 -23
6 6 5 4 3 2 2 1 0 -2 -2 -2 -3 -3 -4 -4 -5 -6 -6 -6 -7 -8 -9 -9 -10 -11 -12 -12 -13 -13 -14 -14 -14 -15 -15 -16 -20 -25 -26 -24 -23 -22 -19
3 2 2 1 0 -1 -2 -3 -3 -3 -4 -6 -7 -6 -6 -7 -7 -7 -7 -8 -9 -10 -11 -11 -12 -13 -13 -14 -14 -15 -15 -16 -16 -16 -17 -22 -24 -23 -23 -21 -19 -18 -18
-2 -3 -3 -3 -4 -4 -5 -5 -5 -5 -6 -7 -8 -8 -9 -9 -10 -11 -11 -11 -12 -13 -13 -14 -14 -15 -15 -16 -16 -16 -17 -17 -17 -19 -22 -23 -23 -23 -23 -21 -20 -20 -20
-4 -4 -5 -5 -6 -6 -6 -6 -7 -7 -8 -9 -9 -10 -11 -11 -11 -12 -13 -13 -14 -14 -15 -15 -16 -16 -17 -17 -17 -18 -18 -19 -20 -20 -20 -21 -22 -22 -21 -21 -21 -20 -20
-6 -6 -6 -6 -7 -7 -8 -8 -9 -9 -10 -11 -11 -12 -12 -13 -13 -14 -15 -15 -16 -16 -17 -17 -17 -18 -18 -19 -19 -19 -20 -20 -21 -21 -22 -23 -22 -21 -21 -21 -21 -21 -20
-7 -7 -7 -8 -8 -9 -9 -10 -10 -11 -12 -12 -13 -14 -14 -15 -15 -16 -16 -17 -17 -18 -18 -19 -19 -20 -20 -21 -21 -21 -22 -22 -22 -23 -23 -23 -21 -22 -22 -22 -22 -21 -21
-9 -9 -9 -10 -10 -11 -11 -12 -13 -13 -14 -14 -15 -16 -16 -17 -18 -19 -19 -20 -21 -21 -22 -22 -22 -23 -23 -23 -23 -23 -23 -23 -23 -24 -24 -23 -23 -23 -23 -22 -22 -22 -21
-11 -11 -12 -12 -13 -13 -14 -15 -16 -17 -18 -19 -20 -21 -21 -22 -22 -22 -23 -23 -23 -23 -24 -24 -24 -24 -24 -25 -25 -25 -25 -25 -25 -24 -23 -22 -22 -22 -22 -22 -22 -22 -22
-23 -24 -24 -24 -24 -23 -23 -23 -24 -24 -24 -25 -25 -25 -25 -24 -24 -24 -24 -25 -25 -25 -25 -26 -25 -25 -25 -25 -25 -25 -25 -25 -25 -24 -22 -22 -21 -21 -21 -21 -21 -21 -21
-29 -29 -29 -28 -28 -27 -27 -27 -27 -26 -26 -26 -26 -26 -26 -26 -26 -26 -26 -26 -26 -26 -26 -26 -26 -25 -26 -25 -25 -25 -25 -25 -24 -22 -22 -21 -21 -21 -21 -21 -20 -21 -21

GFSGL_850_dewp_066.txt.gz
Dewpoint
8 8 8 8 8 8 8 8 7 6 6 6 6 6 6 6 6 7 7 7 8 6 4 6 7 8 9 9 8 8 8 8 7 6 5 5 4 4 3 2 2 1 0
7 7 8 8 8 8 7 7 7 6 6 6 5 6 6 6 6 6 6 7 3 3 5 7 8 7 8 7 7 6 8 8 7 6 5 5 5 3 2 1 1 -0 -3
6 6 7 6 6 5 5 5 7 7 7 7 7 7 6 6 5 5 5 4 3 2 7 6 7 8 8 8 6 7 8 7 7 6 5 5 4 3 2 1 0 -5 -7
6 7 7 4 2 4 4 4 5 4 5 4 5 7 7 7 7 6 5 2 1 4 5 7 8 8 9 9 7 8 8 7 6 6 5 4 3 1 1 -0 -5 -7 -11
7 7 4 3 2 3 3 2 3 4 5 6 6 4 3 3 3 3 3 2 2 2 5 7 8 8 8 9 9 8 8 7 6 4 3 2 2 1 0 -4 -8 -11 -12
5 3 6 6 5 4 3 3 2 2 2 3 4 5 5 4 1 1 2 5 5 8 6 7 9 9 9 8 8 8 7 6 5 4 2 2 1 -1 -4 -9 -10 -11 -12
-0 3 5 7 7 7 5 6 5 5 6 5 5 6 6 5 3 3 5 8 9 9 9 9 9 9 8 8 8 7 5 3 2 2 2 0 -2 -6 -10 -11 -14 -10 -11
-0 3 4 5 5 7 7 7 7 8 8 7 8 8 8 8 8 8 9 9 9 9 8 8 9 8 7 8 6 4 2 2 1 0 -1 -2 -4 -10 -19 -28 -20 -24 -30
0 1 4 6 6 5 6 8 9 9 9 9 9 9 9 9 9 9 9 9 9 8 8 8 8 7 5 3 2 1 1 -0 -1 -1 -2 -5 -11 -24 -35 -35 -35 -15 -11
6 7 7 8 7 7 8 8 8 9 9 9 10 9 9 9 9 9 9 9 8 8 6 6 4 3 3 1 0 -0 -0 -2 -2 -3 -7 -19 -33 -36 -36 -36 -28 -20 -13
6 6 8 8 8 9 9 8 8 9 10 9 9 9 9 9 8 8 8 8 7 6 4 3 1 0 -0 -0 -1 -2 -3 -4 -6 -16 -18 -21 -32 -31 -28 -20 -15 -26 -17
4 5 5 7 7 8 8 9 9 9 9 9 9 8 8 7 6 5 4 3 3 3 2 0 -0 -1 -1 -2 -3 -4 -6 -10 -14 -19 -23 -20 -20 -15 -10 -14 -25 -14 -11
9 9 8 9 9 9 9 9 9 8 8 8 8 7 6 4 3 1 1 1 1 1 -0 -1 -2 -2 -3 -3 -6 -8 -8 -13 -17 -11 -11 -9 -10 -16 -20 -15 -10 -10 -11
9 9 9 9 9 8 8 8 8 7 7 6 5 4 3 1 1 0 -0 -1 -1 -1 -2 -3 -4 -4 -5 -5 -6 -9 -12 -10 -8 -9 -12 -13 -12 -11 -12 -12 -12 -13 -16
7 8 8 8 8 7 7 6 4 4 4 4 3 2 2 0 -1 -1 -1 -2 -2 -3 -4 -5 -6 -7 -8 -11 -12 -9 -9 -11 -13 -13 -12 -12 -13 -13 -14 -14 -14 -15 -15
5 5 6 6 6 5 4 3 1 2 1 1 1 0 -1 -1 -2 -3 -4 -4 -5 -5 -6 -7 -8 -9 -9 -10 -11 -12 -13 -13 -13 -13 -14 -15 -15 -15 -15 -15 -15 -15 -15
3 2 0 1 1 1 0 1 -1 -3 -3 -3 -3 -3 -4 -5 -5 -6 -6 -6 -7 -8 -8 -9 -10 -10 -11 -12 -12 -13 -14 -15 -14 -15 -16 -16 -16 -16 -16 -16 -16 -16 -16
2 0 -0 -2 -2 -2 -3 -4 -5 -5 -5 -8 -8 -7 -7 -7 -7 -7 -7 -8 -9 -10 -10 -11 -12 -13 -13 -14 -14 -15 -15 -16 -16 -17 -17 -17 -17 -17 -17 -17 -16 -16 -16
-1 -3 -3 -3 -4 -5 -5 -6 -6 -6 -7 -8 -9 -9 -9 -9 -10 -10 -11 -11 -12 -12 -13 -13 -14 -14 -15 -15 -16 -17 -17 -17 -18 -18 -18 -18 -18 -18 -18 -18 -17 -18 -18
-5 -5 -5 -5 -6 -6 -6 -7 -8 -8 -9 -10 -11 -11 -12 -12 -12 -12 -12 -13 -14 -14 -15 -15 -16 -16 -17 -17 -18 -18 -18 -18 -18 -18 -19 -19 -19 -19 -19 -19 -18 -18 -18
-7 -6 -6 -7 -7 -8 -8 -9 -9 -9 -10 -11 -12 -12 -12 -13 -13 -14 -15 -15 -16 -16 -17 -17 -18 -18 -19 -19 -19 -19 -20 -20 -20 -20 -20 -20 -20 -20 -20 -20 -19 -19 -19
-8 -8 -8 -8 -9 -9 -10 -10 -11 -11 -12 -13 -13 -14 -14 -14 -16 -17 -17 -17 -18 -18 -19 -19 -19 -20 -20 -21 -21 -21 -21 -22 -22 -22 -22 -22 -21 -21 -21 -20 -20 -20 -19
-9 -10 -10 -11 -11 -11 -12 -13 -13 -14 -15 -16 -16 -16 -17 -17 -18 -19 -19 -20 -20 -21 -24 -24 -24 -23 -22 -23 -23 -23 -23 -23 -23 -23 -23 -23 -22 -22 -21 -21 -21 -20 -20
-12 -12 -13 -13 -14 -15 -16 -16 -17 -19 -17 -17 -18 -18 -19 -19 -20 -22 -24 -24 -25 -24 -25 -26 -26 -26 -26 -26 -25 -25 -23 -23 -24 -24 -24 -24 -23 -23 -22 -22 -21 -21 -21
-27 -26 -26 -24 -22 -20 -21 -21 -20 -20 -21 -19 -20 -20 -20 -20 -21 -21 -22 -25 -27 -26 -26 -26 -26 -26 -26 -26 -26 -26 -25 -25 -25 -25 -25 -23 -24 -24 -23 -23 -22 -22 -21
-31 -30 -28 -26 -27 -24 -22 -23 -24 -23 -23 -22 -21 -22 -23 -22 -22 -25 -26 -26 -26 -26 -26 -26 -26 -26 -26 -26 -26 -25 -25 -25 -25 -25 -23 -22 -22 -23 -23 -22 -22 -22 -21

GFSGL_850_dewp_069.txt.gz
Dewpoint
9 9 9 9 9 9 8 8 8 7 3 4 6 6 4 5 5 5 4 6 6 7 7 7 7 8 6 7 9 9 8 8 8 8 8 7 6 5 3 4 4 4 2
8 9 9 9 9 9 8 8 8 7 7 7 7 7 6 6 6 6 6 6 6 7 7 7 7 7 5 7 8 7 8 7 5 6 7 7 6 5 5 4 4 2 2
7 8 9 9 9 9 9 8 8 8 8 8 7 7 7 7 7 7 7 7 7 7 7 7 8 6 5 5 7 7 7 8 7 7 7 6 6 5 4 3 3 2 1
7 7 8 8 8 8 8 9 8 8 8 8 7 7 7 7 7 7 7 7 7 7 7 8 8 4 3 4 6 7 7 8 8 7 7 6 6 5 5 4 3 1 -0
8 7 7 7 8 8 8 8 8 8 8 8 8 8 8 8 8 7 7 7 7 7 7 7 7 5 3 2 5 7 9 9 8 7 6 5 5 5 3 3 1 1 -4
8 8 7 8 8 8 8 8 8 8 7 7 7 8 8 8 7 7 6 8 8 8 8 7 7 4 5 6 6 9 8 8 8 7 6 6 5 3 2 1 -0 -3 -7
8 8 8 8 8 8 8 8 8 7 8 7 7 7 7 7 5 5 6 7 8 8 8 6 6 8 9 9 9 8 7 6 5 5 5 3 2 1 0 -1 -3 -6 -11
8 8 8 8 8 8 8 8 8 8 8 8 8 8 8 7 7 7 7 8 8 7 7 6 8 9 9 8 8 7 5 4 2 2 2 1 -1 -1 -2 -4 -7 -12 -12
7 8 8 8 8 8 8 8 8 8 8 8 9 9 8 8 8 8 8 8 8 8 8 8 8 8 8 8 7 6 4 1 -0 -0 0 -0 -1 -3 -5 -7 -20 -27 -19
3 6 8 8 8 8 8 8 9 9 9 9 9 9 9 9 9 9 9 9 9 9 8 8 7 7 6 5 3 3 2 0 -0 -1 -2 -2 -3 -8 -25 -19 -12 -21 -20
4 5 7 7 8 8 9 9 9 10 9 10 9 9 9 9 9 9 9 9 8 7 7 6 4 3 2 1 0 -0 -1 -1 -3 -3 -4 -8 -8 -7 -10 -16 -27 -27 -16
7 6 7 8 9 9 9 10 10 10 10 10 9 9 9 8 9 8 8 7 6 4 4 2 1 -0 -1 -1 -2 -2 -3 -3 -4 -5 -8 -8 -11 -16 -16 -13 -12 -10 -12
8 8 7 9 10 10 10 10 9 9 9 9 8 8 7 6 7 5 3 2 2 1 0 -1 -2 -2 -2 -2 -3 -3 -3 -4 -6 -7 -11 -10 -9 -9 -10 -10 -13 -12 -11
7 7 7 8 8 8 9 8 9 8 7 7 6 6 4 3 3 2 1 1 0 -0 -1 -2 -3 -3 -3 -4 -5 -6 -6 -7 -8 -8 -9 -10 -10 -11 -11 -11 -12 -12 -12
5 5 4 4 5 5 5 4 5 4 5 5 4 3 1 0 -1 -0 -1 -2 -2 -2 -3 -4 -5 -5 -6 -7 -7 -8 -9 -9 -10 -11 -11 -12 -12 -12 -12 -12 -13 -13 -13
3 4 3 1 0 0 1 1 1 1 1 0 -0 -0 -2 -4 -4 -4 -4 -5 -5 -6 -6 -6 -7 -8 -9 -9 -10 -11 -11 -12 -12 -13 -13 -13 -13 -14 -14 -14 -14 -14 -13
3 2 1 1 1 -3 -5 -5 -5 -5 -4 -4 -5 -5 -5 -6 -6 -6 -6 -6 -7 -7 -8 -9 -10 -10 -11 -11 -12 -12 -13 -14 -14 -14 -14 -15 -15 -15 -15 -15 -15 -14 -14
-1 -1 -1 -2 -3 -3 -4 -6 -7 -7 -8 -9 -8 -7 -7 -7 -7 -7 -8 -8 -8 -9 -10 -11 -11 -12 -13 -13 -13 -14 -14 -15 -15 -16 -16 -16 -16 -16 -16 -16 -15 -15 -15
-4 -5 -5 -5 -5 -5 -6 -6 -7 -8 -8 -9 -10 -10 -10 -10 -9 -10 -10 -10 -11 -12 -13 -13 -13 -13 -14 -14 -15 -15 -16 -16 -17 -17 -17 -17 -17 -17 -17 -17 -17 -17 -17
-7 -7 -7 -8 -8 -9 -9 -9 -10 -10 -10 -11 -11 -12 -12 -11 -11 -12 -12 -13 -13 -14 -14 -15 -15 -16 -16 -16 -16 -17 -17 -17 -17 -18 -18 -18 -18 -18 -18 -18 -18 -18 -18
-7 -7 -7 -8 -9 -9 -10 -11 -11 -11 -11 -12 -12 -13 -13 -13 -14 -14 -14 -15 -15 -16 -16 -16 -17 -17 -17 -18 -18 -18 -19 -19 -19 -19 -19 -19 -20 -20 -19 -19 -19 -19 -18
-8 -9 -9 -9 -10 -10 -11 -11 -12 -12 -13 -14 -14 -14 -15 -15 -16 -16 -17 -17 -18 -18 -18 -19 -18 -19 -19 -20 -20 -20 -20 -20 -20 -21 -21 -21 -21 -21 -20 -20 -20 -20 -19
-11 -11 -12 -12 -12 -12 -13 -14 -14 -14 -15 -15 -16 -16 -17 -17 -17 -18 -19 -19 -19 -20 -22 -22 -21 -21 -21 -23 -23 -21 -22 -22 -22 -22 -22 -22 -22 -21 -21 -21 -21 -20 -20
-14 -14 -14 -15 -15 -15 -15 -15 -16 -16 -16 -17 -17 -17 -18 -18 -19 -19 -20 -21 -21 -21 -21 -25 -24 -23 -26 -26 -25 -25 -22 -23 -25 -25 -24 -23 -23 -22 -22 -22 -21 -21 -20
-16 -16 -16 -16 -16 -16 -17 -17 -17 -17 -18 -18 -18 -19 -19 -19 -19 -20 -20 -21 -26 -26 -24 -24 -23 -24 -24 -26 -26 -26 -26 -26 -25 -25 -25 -25 -23 -24 -23 -22 -22 -21 -21
-18 -17 -18 -18 -18 -18 -18 -18 -18 -19 -19 -19 -20 -20 -20 -20 -21 -21 -22 -22 -27 -27 -24 -23 -24 -26 -26 -26 -25 -26 -25 -25 -25 -25 -25 -24 -22 -23 -23 -22 -22 -22 -21

GFSGL_850_dewp_072.txt.gz
Dewpoint
9 8 9 9 9 9 9 8 7 8 8 8 5 4 2 2 3 5 5 5 5 5 6 6 7 4 4 5 6 6 7 6 8 8 6 7 8 7 6 6 6 6 5
8 8 8 8 10 9 9 8 8 8 7 8 7 5 4 4 3 3 4 4 5 5 5 6 7 6 7 7 7 7 7 5 6 8 6 7 8 7 7 7 6 6 5
8 9 9 8 7 8 9 8 8 8 8 7 6 4 3 3 3 4 5 5 4 6 6 6 7 7 8 8 8 7 6 6 6 6 6 8 7 7 7 7 6 6 4
8 8 9 8 6 7 8 8 9 9 9 8 8 7 5 2 2 6 6 5 5 5 6 7 7 7 8 8 8 7 7 7 6 7 7 7 7 7 7 7 6 5 4
8 7 8 8 9 9 8 8 9 8 9 8 9 8 8 8 8 8 8 8 8 8 7 8 8 8 8 8 7 7 7 8 7 7 7 7 7 7 7 6 5 4 3
8 7 7 8 9 9 9 9 10 9 9 9 9 9 9 8 8 8 7 7 8 8 8 8 8 8 8 8 7 7 7 7 6 7 7 6 6 6 6 5 3 1 1
8 8 8 8 8 8 9 9 9 9 9 8 8 9 9 8 8 8 8 8 8 8 8 8 8 8 8 8 8 8 7 8 7 7 7 6 5 4 2 1 0 1 -0
7 8 9 9 8 8 9 9 9 9 9 9 9 8 9 8 9 9 9 9 9 8 8 8 8 9 8 9 8 8 8 7 6 6 5 4 3 2 1 0 -0 -1 -2
6 8 8 9 9 9 8 8 9 9 10 10 10 10 9 9 9 9 9 9 9 9 8 8 8 8 8 8 8 8 6 5 4 2 2 0 -0 -1 -1 -1 -3 -4 -8
3 2 5 8 8 8 9 9 9 9 9 9 9 9 9 9 9 9 9 9 8 8 8 8 8 8 8 8 7 5 3 2 -0 -1 -1 -2 -2 -4 -3 -4 -7 -9 -7
7 5 5 7 9 9 8 8 9 9 9 9 9 9 9 9 9 9 9 9 9 9 9 8 8 7 6 5 3 2 0 -1 -2 -3 -3 -3 -3 -5 -5 -6 -6 -7 -9
8 8 6 7 8 8 9 9 9 9 9 10 9 9 9 9 9 9 9 9 9 8 7 6 4 2 1 -0 -1 -2 -2 -3 -3 -3 -3 -4 -5 -7 -8 -8 -8 -10 -11
7 7 7 8 8 9 9 9 9 9 10 10 10 9 9 8 7 7 7 5 6 4 2 1 1 -1 -3 -3 -3 -3 -4 -4 -4 -5 -6 -8 -8 -9 -9 -9 -9 -9 -10
3 4 3 4 6 6 7 6 6 8 8 7 6 6 6 4 2 -2 -2 0 -0 -0 -2 -3 -4 -4 -4 -4 -5 -5 -6 -6 -7 -8 -8 -9 -9 -10 -10 -11 -12 -12 -13
3 2 2 2 3 3 2 0 -1 -1 2 3 1 -0 -2 -2 -4 -2 -2 -2 -3 -5 -5 -6 -6 -6 -6 -6 -7 -7 -7 -8 -9 -9 -10 -11 -11 -12 -13 -13 -13 -13 -14
1 2 2 2 2 1 0 -1 -3 -6 -5 -3 -2 -2 -5 -6 -6 -6 -6 -6 -6 -5 -6 -6 -7 -8 -9 -9 -9 -10 -11 -11 -11 -12 -13 -13 -14 -14 -15 -15 -15 -15 -15
-1 -1 -1 -1 -2 -3 -3 -3 -5 -7 -7 -7 -7 -6 -7 -7 -6 -6 -6 -7 -7 -7 -7 -8 -9 -10 -10 -11 -11 -12 -12 -13 -14 -14 -15 -15 -16 -16 -16 -16 -16 -16 -15
-4 -3 -3 -4 -5 -6 -6 -7 -7 -7 -7 -8 -8 -8 -8 -7 -8 -8 -8 -8 -8 -9 -9 -10 -11 -11 -12 -12 -13 -13 -14 -14 -15 -16 -17 -16 -17 -17 -17 -18 -17 -17 -17
-6 -7 -7 -7 -7 -7 -8 -8 -9 -10 -10 -10 -10 -10 -9 -9 -9 -9 -9 -9 -10 -11 -12 -12 -13 -13 -14 -14 -15 -15 -16 -16 -17 -17 -17 -17 -18 -19 -19 -18 -19 -19 -18
-8 -8 -8 -8 -8 -8 -9 -9 -9 -10 -10 -11 -11 -12 -11 -10 -10 -11 -11 -12 -12 -13 -14 -14 -15 -16 -16 -17 -17 -17 -17 -18 -18 -19 -19 -19 -19 -19 -19 -20 -20 -20 -20
-9 -9 -9 -9 -10 -10 -10 -10 -11 -11 -12 -12 -13 -14 -13 -13 -13 -14 -14 -14 -15 -15 -16 -16 -17 -18 -19 -20 -21 -21 -20 -20 -20 -20 -20 -20 -20 -20 -20 -20 -20 -21 -20
-10 -11 -11 -11 -12 -12 -12 -13 -13 -13 -14 -14 -14 -15 -15 -15 -16 -17 -19 -20 -22 -22 -22 -20 -20 -21 -22 -24 -24 -23 -21 -20 -20 -21 -22 -22 -22 -21 -21 -21 -20 -21 -21
-12 -12 -12 -13 -13 -13 -13 -14 -14 -15 -15 -15 -16 -16 -17 -19 -18 -19 -20 -19 -20 -22 -25 -25 -24 -25 -25 -26 -26 -24 -23 -23 -24 -25 -25 -25 -24 -22 -22 -21 -21 -21 -21
-16 -15 -14 -15 -16 -15 -15 -15 -16 -17 -16 -17 -17 -18 -18 -18 -19 -20 -22 -23 -24 -22 -24 -25 -24 -25 -26 -27 -27 -26 -26 -26 -26 -26 -26 -26 -25 -24 -23 -22 -22 -22 -21
-17 -17 -16 -16 -16 -16 -17 -17 -17 -17 -18 -18 -18 -18 -19 -19 -19 -20 -21 -23 -26 -27 -26 -24 -24 -25 -26 -26 -27 -27 -26 -25 -26 -26 -26 -26 -25 -24 -23 -22 -22 -22 -21
-19 -19 -18 -18 -18 -18 -18 -18 -19 -19 -19 -19 -19 -20 -20 -20 -21 -21 -22 -26 -27 -27 -25 -25 -26 -26 -26 -25 -26 -25 -25 -26 -26 -26 -25 -25 -24 -23 -22 -22 -22 -22 -22

GFSGL_850_dewp_075.txt.gz
Dewpoint
7 9 9 9 9 9 9 8 8 8 5 3 3 4 5 4 4 4 5 4 4 4 5 5 4 4 4 5 5 5 5 5 6 5 5 4 6 5 5 5 5 7 7
8 8 7 9 9 9 9 9 8 8 8 7 6 5 3 2 3 3 4 4 4 4 5 5 4 4 4 5 5 5 5 5 5 6 6 6 6 5 6 6 6 7 7
9 9 9 8 7 9 9 9 9 9 8 8 8 7 7 5 5 3 3 3 3 3 4 4 4 5 5 5 5 5 6 6 7 8 8 8 8 7 8 7 7 7 7
7 8 8 8 8 6 9 10 9 9 8 8 8 7 7 7 7 6 4 3 3 2 2 2 3 5 5 5 5 6 6 7 7 8 8 8 8 7 7 7 7 7 7
7 6 8 8 8 8 8 8 9 9 9 9 8 8 8 8 7 5 4 4 3 4 3 3 4 5 5 4 6 6 7 8 8 9 8 8 8 7 7 7 7 7 7
8 8 7 7 8 9 9 8 8 8 9 9 9 9 9 8 8 7 7 6 5 3 2 3 5 6 6 6 7 7 8 8 8 8 8 8 8 7 7 7 6 5 3
8 8 8 8 7 7 8 9 8 9 9 8 9 9 9 9 9 8 8 8 8 7 7 7 8 8 8 8 8 8 8 9 9 9 9 8 8 7 6 6 5 3 2
9 9 9 8 8 8 7 8 8 9 9 9 9 9 9 9 9 9 9 9 9 9 8 8 8 8 8 8 8 8 8 8 9 9 8 8 7 5 4 3 3 2 0
6 8 9 9 9 9 8 8 8 8 9 9 9 10 9 9 9 9 10 9 9 8 8 8 8 7 8 8 8 8 9 9 8 8 7 6 4 2 1 1 -0 -1 -1
6 6 6 7 9 10 10 9 9 9 9 9 9 10 10 10 9 9 9 9 9 8 9 9 9 9 8 8 8 8 8 7 4 3 2 0 0 -1 -1 -2 -2 -3 -3
7 7 8 7 7 9 9 10 10 10 10 9 10 10 10 10 10 10 9 10 9 9 9 9 9 9 8 8 8 6 4 1 -1 -2 -2 -3 -3 -3 -3 -3 -3 -4 -6
5 5 4 6 7 7 8 9 9 9 10 10 10 10 10 9 9 9 9 9 9 9 8 6 4 5 2 1 0 -0 -2 -2 -3 -4 -4 -5 -5 -5 -5 -5 -6 -6 -7
3 2 2 2 2 4 6 7 8 9 8 7 6 5 4 5 6 5 6 6 8 6 1 -1 -1 -2 -3 -2 -4 -4 -5 -5 -5 -5 -5 -6 -7 -7 -8 -8 -9 -9 -9
2 2 2 2 2 2 1 3 4 5 5 3 2 1 -1 -2 -3 -2 -2 -1 -1 -1 -2 -4 -4 -5 -5 -6 -5 -5 -5 -6 -6 -7 -8 -8 -9 -9 -9 -10 -10 -11 -11
1 1 1 1 -0 -0 -1 -1 -1 -1 -0 1 0 -2 -3 -4 -5 -5 -4 -4 -5 -6 -6 -6 -6 -6 -6 -6 -7 -7 -8 -8 -8 -9 -9 -10 -10 -10 -11 -12 -13 -14 -14
-0 -1 -1 -1 -2 -3 -3 -3 -5 -5 -5 -4 -4 -3 -5 -6 -6 -6 -7 -6 -6 -6 -6 -6 -8 -8 -8 -8 -9 -9 -10 -10 -10 -11 -11 -12 -13 -14 -15 -16 -16 -16 -16
-3 -4 -4 -4 -4 -5 -5 -6 -6 -7 -6 -7 -8 -7 -7 -7 -7 -7 -7 -7 -6 -6 -7 -8 -9 -9 -10 -10 -11 -11 -12 -12 -13 -13 -15 -16 -16 -17 -18 -19 -20 -19 -19
-6 -6 -6 -7 -7 -7 -7 -8 -8 -8 -8 -9 -9 -9 -9 -8 -8 -8 -8 -7 -7 -8 -9 -10 -11 -11 -12 -12 -13 -13 -14 -15 -16 -18 -19 -20 -21 -21 -22 -23 -21 -20 -20
-8 -8 -8 -8 -8 -8 -8 -9 -9 -10 -10 -10 -10 -10 -9 -9 -8 -9 -9 -9 -11 -11 -12 -12 -13 -13 -13 -14 -15 -16 -17 -19 -21 -21 -22 -23 -23 -23 -22 -21 -21 -21 -21
-9 -9 -9 -9 -9 -9 -10 -10 -10 -11 -11 -11 -12 -12 -11 -11 -10 -11 -12 -12 -12 -13 -14 -15 -16 -16 -18 -20 -20 -20 -21 -22 -22 -22 -23 -24 -24 -23 -22 -21 -21 -20 -20
-9 -9 -9 -10 -10 -10 -11 -11 -12 -12 -12 -13 -13 -13 -13 -12 -13 -14 -14 -15 -15 -15 -17 -19 -21 -22 -23 -24 -25 -26 -27 -27 -27 -26 -25 -25 -24 -23 -22 -21 -20 -20 -21
-10 -10 -11 -11 -11 -11 -12 -13 -13 -13 -14 -14 -15 -15 -15 -18 -21 -23 -24 -24 -24 -24 -24 -24 -25 -25 -27 -28 -28 -28 -28 -27 -26 -26 -26 -26 -26 -25 -23 -22 -21 -22 -22
-13 -12 -13 -13 -13 -13 -14 -14 -15 -15 -16 -17 -18 -20 -21 -22 -23 -24 -24 -26 -26 -26 -27 -28 -28 -27 -28 -28 -28 -28 -27 -26 -26 -26 -26 -26 -26 -25 -25 -24 -23 -22 -22
-17 -17 -17 -17 -17 -16 -16 -16 -17 -17 -17 -18 -18 -18 -19 -20 -22 -23 -24 -25 -26 -26 -27 -28 -28 -28 -27 -28 -28 -27 -26 -26 -26 -26 -26 -26 -26 -26 -25 -24 -23 -22 -22
-20 -19 -18 -17 -17 -18 -18 -18 -18 -18 -18 -18 -19 -19 -19 -19 -21 -23 -24 -25 -26 -28 -28 -28 -28 -27 -27 -27 -26 -26 -26 -26 -26 -26 -27 -26 -26 -25 -24 -23 -23 -23 -22
-22 -21 -20 -20 -19 -19 -19 -19 -19 -20 -20 -20 -20 -20 -21 -21 -22 -25 -26 -26 -27 -27 -27 -27 -27 -27 -27 -27 -27 -26 -26 -26 -26 -26 -26 -25 -23 -23 -22 -22 -23 -22 -22

GFSGL_850_dewp_078.txt.gz
Dewpoint
9 9 8 8 8 8 8 8 8 7 7 7 6 4 5 5 4 2 3 2 3 3 4 4 5 4 4 4 5 5 4 5 5 4 4 4 4 5 4 5 6 6 6
5 8 9 8 8 8 8 8 8 8 7 6 5 5 6 6 6 4 4 6 6 5 4 4 4 4 5 5 5 5 4 4 4 4 4 5 5 4 5 7 6 6 6
5 5 6 7 9 8 8 8 8 8 8 8 7 5 3 3 5 6 4 5 6 5 5 5 4 4 4 4 5 5 5 4 5 5 5 5 5 5 6 7 5 5 6
6 6 6 7 7 7 8 8 8 8 8 8 8 8 7 3 4 4 4 4 3 4 4 3 3 4 4 4 4 5 4 5 4 6 7 7 7 7 8 8 8 7 7
8 8 6 5 7 8 8 7 8 8 8 8 8 9 9 8 8 7 7 6 7 6 5 6 5 4 3 2 3 2 3 3 5 6 8 8 8 8 8 8 8 7 7
8 8 9 8 8 8 8 8 8 7 7 9 9 9 9 8 8 8 8 8 8 8 8 7 6 5 4 4 4 4 4 5 6 7 7 8 8 8 8 7 7 7 7
9 9 9 9 9 9 9 8 9 9 8 8 7 8 8 8 8 8 8 8 8 8 8 7 7 6 6 5 4 4 5 7 7 7 8 8 8 8 8 8 8 8 7
10 10 9 9 9 9 10 9 9 9 9 9 9 8 8 8 8 8 8 9 9 9 8 8 8 8 7 7 7 8 8 8 8 8 8 8 8 8 8 7 6 5 4
6 8 8 9 9 9 9 9 10 10 10 9 9 9 9 9 9 9 9 9 9 9 8 8 8 8 8 8 8 8 8 9 8 8 8 8 8 8 6 4 3 2 1
6 6 7 7 7 7 9 10 10 10 10 10 10 10 10 10 10 10 10 10 10 10 10 9 9 9 9 9 8 8 8 8 8 7 5 6 4 1 1 -0 -0 -1 -1
3 3 4 5 6 7 7 8 9 9 9 9 10 10 10 10 10 10 10 10 10 9 10 10 9 9 9 9 9 8 7 6 1 -1 -1 -1 -2 -2 -2 -3 -3 -3 -3
2 2 2 2 2 4 6 7 7 7 8 8 8 8 8 7 9 8 9 9 8 7 6 3 1 1 2 3 3 3 -0 -2 -3 -3 -4 -4 -4 -4 -4 -4 -4 -5 -5
2 2 2 2 1 1 2 4 6 6 6 6 6 4 4 3 3 2 1 3 3 3 0 -1 -1 -1 -1 -2 -3 -4 -4 -4 -4 -4 -5 -6 -5 -6 -6 -6 -6 -7 -7
1 1 1 1 0 -0 -0 -0 -0 0 1 1 0 0 0 -1 -1 -1 -1 -1 -1 -1 -3 -4 -5 -5 -5 -5 -5 -5 -5 -5 -5 -6 -7 -8 -8 -8 -8 -9 -9 -9 -10
1 1 0 -0 -1 -1 -2 -2 -3 -3 -3 -3 -3 -3 -3 -4 -5 -5 -4 -4 -4 -5 -4 -4 -4 -4 -5 -6 -6 -7 -7 -7 -7 -7 -8 -9 -9 -10 -11 -11 -12 -14 -15
-1 -2 -2 -2 -3 -3 -5 -5 -6 -6 -5 -5 -6 -6 -7 -7 -6 -6 -5 -5 -5 -5 -5 -6 -7 -7 -7 -8 -8 -9 -9 -10 -10 -10 -10 -11 -12 -14 -15 -16 -18 -20 -21
-4 -4 -4 -5 -5 -5 -6 -7 -8 -8 -8 -8 -8 -8 -8 -7 -7 -7 -6 -6 -7 -6 -7 -8 -9 -9 -10 -10 -11 -11 -11 -12 -12 -12 -15 -15 -19 -22 -23 -24 -24 -23 -23
-7 -7 -7 -7 -7 -7 -7 -8 -8 -8 -8 -8 -8 -8 -8 -8 -8 -8 -8 -8 -8 -8 -9 -10 -11 -11 -12 -12 -12 -13 -14 -15 -17 -20 -21 -22 -22 -23 -24 -24 -23 -23 -23
-8 -8 -8 -8 -8 -8 -8 -8 -9 -9 -9 -10 -10 -10 -9 -9 -9 -9 -9 -9 -10 -11 -12 -12 -13 -13 -13 -14 -15 -17 -19 -20 -21 -21 -22 -24 -25 -26 -26 -25 -24 -23 -22
-9 -9 -9 -9 -9 -9 -9 -9 -9 -10 -10 -10 -10 -11 -11 -10 -10 -10 -11 -11 -12 -13 -14 -15 -16 -18 -20 -21 -21 -22 -22 -24 -25 -26 -26 -26 -26 -25 -25 -24 -24 -25 -24
-9 -9 -9 -10 -10 -10 -11 -11 -11 -11 -12 -12 -12 -13 -13 -13 -14 -15 -15 -16 -17 -18 -20 -21 -23 -24 -25 -26 -26 -27 -26 -26 -26 -25 -26 -27 -27 -27 -26 -26 -25 -23 -23
-10 -11 -11 -11 -12 -12 -12 -13 -13 -14 -14 -15 -15 -16 -17 -23 -25 -25 -25 -26 -26 -24 -24 -24 -25 -26 -27 -28 -28 -28 -28 -27 -27 -27 -27 -27 -27 -27 -27 -26 -25 -24 -23
-13 -13 -13 -13 -13 -14 -14 -15 -15 -16 -18 -20 -20 -21 -22 -23 -24 -25 -25 -26 -26 -27 -27 -27 -27 -27 -28 -28 -28 -28 -28 -28 -27 -27 -27 -27 -27 -27 -27 -26 -25 -23 -22
-19 -19 -19 -18 -17 -17 -18 -18 -18 -18 -19 -20 -21 -21 -22 -22 -23 -24 -25 -26 -27 -29 -29 -28 -28 -28 -28 -28 -28 -28 -28 -27 -27 -27 -27 -27 -27 -26 -26 -25 -23 -23 -22
-20 -19 -19 -19 -19 -19 -19 -19 -19 -19 -20 -20 -20 -21 -23 -23 -24 -26 -26 -27 -28 -29 -28 -29 -29 -29 -29 -28 -28 -27 -26 -26 -26 -26 -26 -26 -26 -25 -24 -23 -23 -23 -23
-24 -23 -22 -21 -21 -21 -21 -21 -20 -20 -21 -22 -21 -22 -22 -24 -24 -25 -26 -25 -26 -27 -27 -27 -27 -27 -27 -27 -27 -26 -26 -26 -26 -26 -26 -26 -24 -23 -23 -22 -23 -23 -22

GFSGL_850_dewp_081.txt.gz
Dewpoint
8 9 9 8 8 8 8 8 8 8 9 9 8 8 7 8 8 8 8 8 7 7 7 6 4 3 5 4 5 5 4 4 6 4 4 4 4 4 4 4 4 4 4
6 9 8 8 8 8 8 8 8 8 8 8 8 7 6 6 6 8 8 7 7 7 5 5 4 2 3 4 4 3 4 5 5 5 5 5 5 4 4 4 5 4 5
7 7 8 8 8 8 8 8 8 8 8 8 8 8 8 7 6 5 5 5 5 3 3 3 3 4 4 4 4 4 4 5 5 6 6 5 5 5 5 5 5 6 6
7 7 8 8 8 8 8 8 8 8 8 8 8 8 7 7 6 6 6 7 7 6 4 4 4 4 5 5 5 5 5 5 5 5 6 5 5 5 5 5 5 5 7
8 8 8 7 7 8 8 8 8 8 8 8 8 8 8 8 8 7 6 5 4 5 5 6 5 4 4 4 5 4 4 5 4 5 7 7 7 7 7 6 7 5 5
9 9 9 9 8 8 8 8 8 8 8 8 8 8 8 8 8 8 9 9 8 7 6 7 7 7 6 7 7 7 7 7 6 6 7 7 7 7 7 7 7 7 7
9 9 9 9 9 9 9 9 9 9 9 9 8 8 8 8 8 8 9 9 8 8 8 8 8 8 8 8 8 8 7 7 7 7 7 7 7 7 7 8 8 8 8
9 9 9 9 9 9 9 9 9 9 10 10 9 9 9 9 9 9 9 9 9 9 8 8 8 8 8 8 7 7 7 7 7 7 8 8 8 8 8 8 8 8 7
8 8 8 8 9 9 9 9 9 9 9 9 9 9 9 9 9 9 9 9 9 9 9 9 8 8 8 8 9 9 9 8 8 8 8 8 8 8 8 8 6 5 4
4 5 6 7 7 7 8 8 9 9 9 9 9 9 9 9 9 9 9 9 9 9 9 8 8 8 8 9 8 8 7 7 7 6 5 6 5 3 1 1 1 0 -0
2 2 2 3 4 5 6 6 7 7 8 8 8 8 8 7 7 8 8 8 8 8 7 7 7 7 8 8 8 7 5 4 3 -2 -3 -4 -4 -3 -2 -2 -2 -3 -3
2 1 1 1 1 1 3 5 5 5 6 6 5 5 4 4 4 4 5 4 4 4 5 4 3 3 1 2 3 3 1 -1 -1 -3 -3 -3 -4 -5 -5 -5 -5 -5 -5
1 1 1 0 0 -0 -0 0 2 3 3 3 2 2 1 0 0 0 -0 0 1 1 -0 -1 -2 -2 -1 -1 -3 -4 -3 -3 -3 -4 -4 -5 -6 -6 -6 -6 -7 -7 -7
0 0 0 1 0 0 -0 -1 -1 -1 -1 -1 -1 -2 -2 -3 -3 -3 -3 -3 -3 -3 -4 -4 -4 -4 -4 -5 -5 -5 -5 -5 -5 -6 -6 -7 -8 -8 -8 -8 -8 -9 -9
-2 -2 -2 -2 -2 -2 -1 -2 -3 -3 -3 -3 -4 -4 -4 -5 -5 -5 -5 -5 -4 -4 -5 -5 -5 -6 -6 -6 -7 -7 -8 -8 -8 -9 -9 -9 -9 -9 -9 -10 -11 -14 -16
-3 -3 -3 -4 -4 -5 -5 -5 -6 -5 -5 -5 -6 -6 -7 -7 -6 -6 -6 -6 -6 -6 -5 -6 -7 -7 -7 -8 -8 -8 -9 -9 -9 -10 -10 -10 -12 -15 -20 -25 -28 -29 -29
-5 -5 -5 -5 -6 -6 -7 -7 -7 -7 -7 -7 -8 -8 -8 -7 -7 -7 -7 -7 -7 -7 -7 -8 -9 -9 -9 -10 -10 -10 -10 -10 -11 -13 -20 -26 -28 -28 -30 -30 -29 -29 -29
-7 -7 -7 -7 -7 -7 -8 -8 -8 -8 -8 -8 -8 -8 -8 -8 -8 -8 -8 -8 -8 -8 -9 -10 -10 -11 -11 -11 -11 -12 -16 -20 -25 -27 -28 -29 -30 -30 -29 -29 -29 -28 -27
-8 -8 -8 -8 -8 -8 -9 -9 -9 -9 -9 -9 -9 -9 -10 -9 -9 -9 -9 -9 -9 -10 -11 -11 -12 -13 -14 -17 -20 -23 -24 -26 -27 -27 -28 -28 -28 -28 -28 -27 -26 -26 -26
-9 -9 -9 -9 -9 -9 -10 -9 -10 -10 -10 -10 -10 -11 -11 -11 -10 -10 -11 -12 -13 -14 -16 -18 -21 -24 -24 -24 -25 -26 -26 -26 -27 -27 -27 -27 -28 -27 -27 -26 -25 -25 -25
-10 -10 -10 -10 -10 -10 -11 -11 -11 -12 -12 -13 -13 -14 -15 -17 -19 -21 -21 -22 -22 -22 -22 -24 -25 -26 -27 -27 -27 -27 -27 -27 -27 -27 -28 -28 -27 -27 -27 -26 -25 -25 -26
-11 -11 -11 -12 -12 -12 -13 -13 -13 -14 -15 -17 -21 -23 -25 -26 -27 -27 -27 -27 -27 -27 -27 -27 -27 -27 -28 -28 -28 -28 -28 -28 -28 -27 -27 -27 -27 -27 -27 -27 -27 -27 -26
-15 -14 -14 -14 -14 -14 -15 -16 -18 -20 -22 -22 -23 -24 -24 -26 -27 -28 -28 -29 -28 -29 -29 -29 -29 -29 -28 -28 -28 -28 -28 -28 -27 -27 -27 -27 -27 -27 -27 -27 -27 -26 -24
-20 -20 -20 -19 -19 -19 -19 -20 -20 -21 -21 -22 -22 -23 -24 -24 -25 -27 -28 -28 -28 -29 -29 -28 -28 -28 -28 -28 -28 -28 -27 -27 -27 -27 -26 -27 -27 -27 -27 -27 -26 -24 -23
-23 -23 -22 -22 -21 -21 -21 -21 -21 -21 -21 -22 -22 -22 -23 -23 -24 -25 -26 -26 -27 -27 -28 -28 -28 -28 -28 -28 -27 -27 -27 -26 -26 -26 -26 -26 -27 -26 -25 -25 -24 -23 -23
-25 -25 -25 -24 -24 -23 -23 -22 -22 -22 -22 -23 -24 -24 -25 -26 -26 -27 -27 -27 -27 -27 -28 -28 -27 -27 -27 -27 -27 -27 -26 -26 -26 -26 -26 -26 -26 -26 -24 -22 -22 -22 -23

GFSGL_850_dewp_084.txt.gz
Dewpoint
8 9 9 9 9 9 8 8 8 8 8 9 9 9 9 8 8 8 6 6 8 8 8 7 7 6 6 4 7 7 6 7 7 5 5 5 4 5 4 4 4 5 5
7 8 8 8 9 8 8 8 8 8 8 8 9 9 9 9 8 8 7 7 7 7 7 7 6 6 6 6 6 4 4 5 5 6 4 4 4 4 4 4 5 5 5
7 8 9 8 8 8 8 8 8 8 8 8 8 8 8 8 8 8 7 7 7 8 8 8 7 7 6 5 5 4 3 2 2 4 5 5 5 5 4 4 4 4 4
7 7 7 7 8 8 8 8 8 8 8 8 8 8 8 8 8 7 7 7 7 7 7 7 7 6 6 5 5 5 5 5 5 6 6 6 6 5 6 6 5 4 3
8 8 7 7 7 7 7 7 7 8 8 8 8 8 8 8 8 8 8 7 7 7 7 6 6 6 6 6 6 5 6 6 6 6 7 7 6 6 6 6 6 6 6
9 9 9 9 9 8 8 8 8 8 8 8 8 8 8 8 8 8 8 8 8 8 8 7 8 8 7 5 4 4 5 7 7 7 7 7 7 7 7 7 7 7 6
9 9 9 9 9 9 9 9 9 9 9 9 9 9 9 8 8 8 8 8 8 8 8 8 8 8 8 8 8 8 8 8 8 8 8 7 7 7 7 7 7 7 7
9 8 9 9 9 9 9 9 9 9 9 9 9 9 9 9 9 9 9 9 9 9 9 9 9 9 9 8 9 8 8 8 8 8 8 7 7 7 7 7 7 6 6
8 7 8 8 8 8 8 9 9 9 9 9 9 8 8 8 8 9 9 9 9 9 8 8 8 8 8 8 8 8 7 7 7 7 7 7 7 6 6 6 5 5 3
6 6 6 7 7 7 8 7 8 8 8 8 8 8 8 8 8 9 9 8 8 8 8 8 8 7 7 7 7 6 6 5 5 4 2 1 1 2 2 1 1 1 0
1 1 2 2 4 5 5 5 6 6 7 7 6 6 6 6 6 6 6 6 7 6 6 6 5 5 5 6 5 5 4 3 4 3 0 0 -1 -1 -1 -2 -2 -2 -2
0 1 0 0 0 1 2 3 4 5 5 5 5 4 4 3 3 3 3 3 3 4 3 2 1 0 0 0 1 1 1 -2 -2 -2 -3 -4 -4 -5 -5 -5 -5 -5 -5
0 0 1 1 0 -0 -0 -0 0 1 2 2 2 1 1 0 -0 -1 -1 -1 -1 -0 -1 -2 -2 -3 -3 -3 -3 -4 -3 -4 -4 -4 -5 -6 -7 -7 -7 -7 -7 -7 -7
-1 -1 -1 -1 -1 -1 -1 -1 -2 -2 -2 -2 -2 -2 -3 -3 -4 -4 -3 -3 -3 -3 -4 -4 -4 -4 -5 -5 -5 -5 -6 -6 -6 -7 -7 -8 -8 -8 -7 -8 -8 -8 -9
-3 -3 -3 -3 -3 -3 -4 -4 -4 -5 -4 -4 -5 -5 -5 -5 -5 -5 -5 -5 -5 -5 -5 -5 -6 -6 -6 -7 -7 -7 -8 -8 -8 -8 -9 -9 -9 -9 -10 -14 -21 -27 -30
-3 -3 -4 -5 -5 -5 -5 -5 -6 -6 -6 -6 -7 -7 -7 -7 -6 -6 -6 -6 -6 -6 -6 -6 -7 -7 -8 -8 -8 -9 -9 -9 -9 -10 -10 -14 -22 -29 -32 -33 -33 -32 -31
-6 -6 -6 -6 -6 -7 -7 -7 -7 -7 -7 -8 -8 -8 -8 -8 -8 -8 -7 -7 -7 -7 -7 -8 -8 -9 -9 -9 -10 -10 -10 -13 -19 -28 -30 -31 -32 -32 -31 -31 -31 -30 -30
-7 -7 -7 -7 -8 -8 -8 -8 -8 -8 -8 -8 -8 -8 -8 -8 -9 -9 -9 -8 -8 -9 -9 -10 -10 -11 -11 -12 -15 -22 -26 -27 -28 -29 -29 -30 -30 -30 -30 -30 -29 -29 -28
-8 -8 -8 -8 -8 -8 -9 -9 -9 -9 -9 -9 -10 -10 -10 -10 -10 -9 -10 -9 -10 -11 -12 -12 -14 -17 -22 -25 -27 -27 -28 -29 -30 -29 -30 -30 -30 -29 -29 -28 -28 -27 -27
-9 -9 -9 -9 -9 -10 -10 -10 -10 -10 -10 -11 -11 -11 -12 -11 -11 -11 -12 -13 -15 -18 -21 -24 -26 -27 -28 -28 -28 -29 -29 -29 -29 -29 -29 -29 -29 -28 -28 -27 -27 -27 -27
-10 -10 -10 -10 -11 -11 -11 -12 -12 -13 -13 -14 -15 -17 -17 -21 -25 -27 -27 -27 -26 -26 -26 -27 -28 -28 -29 -29 -29 -29 -29 -29 -29 -29 -28 -28 -28 -27 -27 -27 -27 -27 -27
-13 -12 -12 -12 -13 -13 -13 -14 -15 -17 -21 -24 -26 -26 -27 -28 -28 -28 -29 -29 -29 -29 -29 -29 -29 -29 -29 -29 -29 -29 -29 -29 -29 -28 -28 -27 -27 -27 -27 -27 -27 -27 -26
-20 -19 -17 -17 -16 -17 -18 -20 -22 -23 -24 -24 -24 -25 -26 -27 -28 -28 -28 -29 -29 -29 -29 -29 -29 -29 -29 -29 -29 -29 -29 -28 -28 -27 -27 -27 -27 -27 -27 -27 -27 -26 -25
-22 -22 -21 -21 -20 -21 -21 -22 -22 -23 -23 -23 -23 -24 -25 -26 -26 -27 -27 -28 -28 -28 -28 -28 -28 -28 -28 -28 -28 -28 -28 -28 -27 -27 -27 -26 -26 -27 -27 -26 -26 -25 -24
-25 -24 -23 -23 -22 -23 -22 -22 -22 -22 -22 -23 -25 -25 -26 -27 -28 -28 -28 -28 -28 -28 -28 -28 -28 -28 -28 -27 -27 -27 -27 -27 -27 -27 -26 -26 -26 -26 -26 -25 -24 -23 -23
-25 -25 -25 -25 -25 -25 -24 -24 -24 -25 -25 -25 -26 -27 -28 -28 -28 -28 -28 -28 -28 -28 -28 -28 -27 -27 -27 -27 -27 -27 -26 -26 -26 -26 -26 -26 -26 -26 -26 -25 -23 -22 -22

GFSGL_850_dewp_087.txt.gz
Dewpoint
10 9 9 8 9 8 8 8 9 9 9 10 10 9 9 9 8 8 6 2 5 4 3 5 6 5 7 7 7 6 6 7 7 7 6 6 5 6 5 5 4 5 4
9 8 8 8 8 8 8 8 8 8 9 9 9 9 9 9 9 9 8 3 3 4 6 6 6 6 7 6 6 7 6 6 6 6 4 5 5 3 3 4 4 4 4
7 8 8 8 8 8 8 8 8 8 8 9 8 9 9 9 9 9 9 8 6 6 6 7 7 8 8 7 7 6 5 5 6 7 6 6 5 5 4 4 4 4 4
6 8 8 8 8 8 8 8 8 8 8 8 8 8 8 9 8 9 9 9 8 8 8 7 7 8 8 8 8 7 7 7 7 7 7 5 5 5 7 7 7 6 5
7 8 8 8 8 8 8 8 8 8 8 8 8 8 8 8 8 8 8 8 8 7 7 7 7 7 7 7 7 7 7 7 8 8 7 7 7 6 7 7 7 7 7
9 9 9 9 9 8 8 8 8 8 8 8 8 8 8 7 7 8 8 8 7 7 7 7 7 7 7 7 7 7 7 8 8 7 7 7 7 7 8 7 7 7 7
9 9 9 9 9 9 9 9 9 9 9 8 8 9 9 8 8 8 8 8 8 7 7 7 7 7 8 8 8 8 8 8 8 8 7 7 7 7 7 7 7 7 7
8 8 8 8 8 8 8 8 8 9 8 8 9 9 9 9 9 9 9 9 9 9 8 8 8 8 8 8 8 8 8 8 8 7 7 7 7 7 6 6 6 5 5
7 7 7 8 8 8 8 8 8 8 9 9 8 8 8 8 8 8 9 8 8 8 8 8 8 8 8 8 7 7 7 7 6 6 5 5 5 4 5 4 4 3 3
6 5 6 7 7 7 7 7 7 8 8 7 7 7 7 7 7 7 8 8 8 7 7 7 8 7 7 7 6 6 5 5 4 4 3 3 2 2 1 0 0 0 -1
2 2 3 4 4 5 5 5 5 6 6 5 5 5 5 5 5 5 5 5 5 5 5 5 4 4 4 3 3 3 3 3 0 -1 -1 -1 -2 -2 -3 -3 -3 -3 -3
-0 -0 -0 0 1 2 3 3 3 3 3 3 3 3 3 2 2 1 1 1 2 3 3 1 0 -1 -1 -2 -2 -1 -2 -2 -2 -2 -3 -4 -5 -5 -6 -6 -6 -6 -6
0 0 1 0 -0 -1 -0 0 1 1 2 1 1 0 -0 -1 -2 -2 -2 -2 -1 -1 -1 -2 -3 -4 -4 -4 -3 -3 -3 -4 -4 -5 -5 -6 -7 -7 -7 -7 -7 -8 -8
-2 -2 -2 -2 -2 -2 -1 -2 -2 -2 -2 -2 -2 -3 -4 -4 -4 -4 -4 -4 -4 -4 -4 -5 -5 -5 -5 -5 -5 -5 -6 -6 -6 -7 -7 -8 -8 -8 -8 -9 -10 -12 -17
-3 -4 -4 -4 -4 -4 -4 -4 -4 -5 -5 -5 -6 -6 -6 -6 -6 -6 -6 -6 -6 -6 -6 -6 -6 -6 -7 -7 -7 -7 -8 -8 -8 -9 -9 -9 -10 -12 -17 -23 -30 -33 -33
-4 -5 -5 -6 -6 -6 -6 -6 -6 -6 -6 -6 -7 -7 -7 -7 -7 -7 -7 -7 -7 -7 -6 -7 -7 -8 -8 -9 -9 -9 -9 -10 -11 -14 -18 -24 -29 -33 -34 -34 -34 -33 -27
-6 -6 -7 -7 -7 -7 -7 -7 -7 -8 -8 -8 -8 -8 -8 -8 -8 -8 -8 -8 -7 -7 -8 -8 -9 -9 -10 -10 -11 -14 -20 -26 -30 -31 -32 -32 -33 -32 -32 -32 -32 -30 -28
-8 -8 -8 -8 -8 -8 -8 -8 -8 -8 -9 -9 -9 -9 -9 -9 -9 -9 -9 -9 -8 -9 -9 -10 -11 -12 -15 -20 -26 -28 -29 -30 -31 -31 -31 -31 -31 -31 -30 -30 -30 -29 -26
-9 -9 -9 -9 -9 -9 -9 -9 -9 -9 -9 -10 -10 -10 -10 -10 -10 -10 -10 -10 -10 -11 -13 -15 -20 -25 -27 -28 -29 -29 -29 -30 -30 -30 -30 -30 -30 -29 -29 -28 -28 -28 -27
-10 -10 -10 -10 -10 -10 -10 -10 -10 -11 -11 -11 -12 -12 -13 -13 -13 -13 -15 -17 -20 -24 -26 -28 -29 -29 -29 -29 -29 -30 -29 -30 -30 -30 -30 -29 -29 -29 -28 -28 -28 -27 -26
-13 -12 -11 -11 -11 -11 -12 -12 -13 -13 -15 -17 -22 -25 -26 -27 -29 -30 -30 -29 -29 -29 -29 -29 -29 -30 -30 -30 -30 -30 -30 -30 -30 -30 -29 -29 -28 -28 -28 -27 -27 -27 -27
-17 -16 -15 -15 -15 -15 -15 -17 -19 -23 -25 -26 -27 -27 -28 -29 -29 -30 -30 -30 -30 -30 -30 -30 -30 -30 -30 -30 -30 -30 -30 -29 -29 -29 -28 -28 -27 -27 -27 -27 -27 -27 -26
-21 -20 -19 -19 -19 -20 -21 -22 -23 -24 -24 -25 -25 -25 -26 -27 -28 -29 -29 -29 -29 -30 -30 -30 -30 -30 -30 -30 -29 -29 -29 -29 -28 -28 -27 -27 -27 -27 -27 -27 -27 -26 -25
-23 -22 -21 -22 -21 -22 -22 -22 -23 -23 -24 -25 -26 -26 -27 -27 -28 -29 -29 -29 -29 -29 -29 -29 -29 -29 -28 -28 -28 -28 -28 -28 -27 -27 -27 -27 -26 -26 -26 -26 -25 -25 -24
-25 -24 -24 -24 -23 -24 -24 -24 -24 -25 -25 -26 -27 -27 -28 -29 -29 -29 -29 -29 -29 -29 -29 -28 -28 -28 -27 -27 -27 -27 -27 -27 -27 -26 -26 -26 -26 -26 -26 -26 -25 -24 -23
-27 -27 -27 -27 -27 -27 -27 -27 -27 -28 -28 -29 -29 -29 -29 -29 -29 -29 -29 -28 -28 -28 -27 -27 -27 -27 -27 -26 -26 -26 -26 -26 -26 -26 -26 -26 -26 -26 -26 -26 -25 -24 -23

GFSGL_850_dewp_090.txt.gz
Dewpoint
6 9 9 9 9 9 9 9 9 10 9 8 8 7 7 7 5 7 8 7 3 -1 1 4 2 1 4 5 5 3 4 5 6 6 8 8 8 6 5 5 4 4 4
7 9 9 9 9 9 9 10 9 9 9 10 8 7 8 7 7 8 8 7 3 0 5 5 3 0 1 6 6 5 6 7 6 6 6 4 5 4 5 4 5 7 6
10 9 9 8 8 8 8 9 9 9 9 9 9 9 9 9 9 9 8 8 8 4 2 1 -0 0 4 5 6 5 6 6 6 8 7 7 6 7 7 7 7 7 7
10 9 8 8 8 8 8 8 8 8 9 9 8 9 9 9 9 9 9 9 8 8 5 2 4 5 5 6 6 7 7 8 8 8 7 6 6 7 8 7 7 7 7
9 9 8 8 8 8 8 8 8 8 8 8 8 9 9 9 9 9 9 9 9 8 8 7 5 5 6 7 8 7 8 9 8 8 8 7 7 8 8 7 8 7 7
9 9 9 8 9 8 8 7 7 8 8 8 8 9 8 8 9 8 8 9 9 9 9 9 8 8 8 8 7 7 7 8 8 8 8 8 8 8 8 8 7 7 7
8 8 8 8 8 8 8 8 8 8 7 7 7 7 8 8 8 8 8 8 8 8 8 8 8 8 8 8 8 8 8 8 8 8 8 8 7 7 7 7 7 7 7
8 8 8 9 8 8 8 9 8 9 9 8 8 8 8 8 8 8 8 8 8 8 8 8 8 8 8 8 8 8 8 8 8 8 7 7 7 6 6 6 6 5 5
7 7 8 8 8 8 8 8 8 8 8 8 8 8 8 8 8 8 9 8 8 8 8 7 7 7 7 7 7 7 7 6 6 6 5 6 5 4 5 3 3 3 2
4 5 5 6 6 6 7 7 7 7 7 7 7 7 7 7 7 8 8 8 7 7 7 7 6 6 6 6 6 6 5 5 4 1 3 -0 1 0 -0 -1 -1 -1 -1
2 1 2 4 4 4 4 5 5 5 5 4 4 4 4 5 5 5 5 5 5 5 4 4 3 3 3 2 2 2 2 1 -0 -1 -1 -1 -2 -3 -4 -4 -4 -4 -4
1 -0 2 2 2 1 2 2 2 2 3 2 2 2 2 1 1 1 2 2 3 2 2 1 -1 -2 -3 -3 -2 -1 -1 -2 -2 -3 -3 -4 -5 -6 -6 -6 -6 -7 -7
0 -0 -0 -1 -1 -1 -0 -0 0 0 -0 -0 -0 -0 -1 -2 -2 -2 -2 -2 -1 -1 -2 -3 -4 -4 -4 -4 -4 -3 -3 -4 -4 -5 -6 -7 -7 -7 -8 -8 -8 -9 -9
-2 -2 -3 -3 -3 -3 -3 -3 -2 -3 -4 -5 -5 -4 -5 -4 -4 -4 -4 -4 -4 -5 -5 -5 -5 -5 -5 -5 -5 -5 -6 -6 -7 -7 -8 -8 -9 -9 -10 -12 -13 -13 -13
-3 -3 -4 -5 -5 -5 -5 -5 -5 -5 -5 -5 -5 -5 -5 -6 -6 -6 -6 -6 -6 -6 -6 -6 -6 -7 -7 -7 -7 -8 -8 -8 -9 -9 -10 -11 -13 -14 -17 -19 -17 -14 -14
-4 -4 -5 -6 -6 -7 -6 -6 -6 -7 -7 -7 -7 -7 -7 -7 -7 -7 -7 -7 -7 -7 -7 -7 -8 -8 -9 -9 -9 -10 -10 -12 -15 -19 -23 -21 -17 -19 -17 -16 -16 -15 -16
-7 -7 -7 -7 -8 -8 -9 -9 -8 -8 -8 -8 -8 -8 -8 -8 -8 -8 -8 -8 -8 -8 -8 -9 -9 -10 -11 -12 -14 -19 -25 -31 -32 -32 -31 -27 -20 -16 -16 -15 -15 -15 -15
-8 -8 -8 -8 -8 -8 -9 -9 -9 -9 -9 -9 -9 -9 -9 -9 -9 -9 -9 -9 -9 -9 -10 -11 -12 -13 -16 -19 -23 -25 -29 -30 -31 -29 -30 -29 -21 -15 -15 -16 -16 -17 -16
-9 -9 -9 -9 -9 -9 -10 -10 -10 -10 -11 -11 -11 -11 -11 -11 -11 -10 -11 -11 -12 -13 -15 -18 -19 -19 -19 -20 -23 -27 -30 -31 -30 -28 -26 -27 -23 -16 -17 -17 -16 -18 -21
-11 -10 -10 -10 -11 -11 -11 -11 -12 -12 -13 -14 -15 -16 -15 -15 -18 -21 -22 -24 -24 -23 -23 -24 -24 -26 -25 -20 -24 -26 -20 -26 -28 -26 -27 -27 -28 -18 -18 -18 -17 -17 -17
-14 -14 -14 -13 -13 -13 -13 -14 -15 -16 -19 -24 -28 -29 -30 -27 -28 -29 -29 -30 -28 -27 -26 -25 -27 -28 -25 -27 -25 -28 -30 -28 -30 -30 -29 -29 -29 -24 -22 -18 -18 -18 -18
-18 -18 -18 -17 -17 -17 -18 -19 -20 -20 -20 -20 -23 -28 -29 -28 -27 -28 -29 -31 -31 -30 -30 -28 -27 -30 -30 -29 -29 -26 -28 -29 -29 -29 -29 -28 -28 -20 -23 -19 -19 -19 -19
-15 -15 -15 -16 -18 -18 -16 -16 -17 -17 -18 -20 -21 -24 -26 -28 -28 -27 -29 -29 -30 -30 -30 -29 -29 -29 -30 -29 -29 -29 -28 -28 -28 -28 -28 -28 -27 -22 -24 -20 -20 -20 -20
-17 -16 -16 -19 -20 -17 -17 -17 -20 -23 -20 -18 -19 -22 -26 -27 -28 -30 -30 -30 -30 -29 -30 -30 -29 -29 -29 -28 -28 -27 -28 -28 -27 -27 -27 -27 -27 -26 -25 -22 -21 -21 -21
-19 -18 -18 -18 -18 -18 -18 -18 -19 -19 -19 -20 -20 -21 -24 -25 -27 -29 -30 -30 -29 -29 -29 -29 -28 -28 -28 -27 -27 -27 -27 -27 -27 -26 -26 -26 -26 -26 -25 -26 -23 -22 -22
-23 -22 -19 -19 -19 -19 -19 -19 -20 -20 -22 -22 -24 -25 -27 -26 -28 -29 -29 -29 -28 -28 -28 -28 -27 -27 -27 -27 -27 -27 -27 -26 -26 -26 -26 -26 -26 -26 -25 -24 -23 -23 -23

GFSGL_850_dewp_096.txt.gz
Dewpoint
10 11 11 10 10 10 10 9 9 9 9 9 9 9 10 10 10 10 9 9 8 9 9 8 7 7 7 7 4 1 6 7 7 5 5 6 6 6 5 5 6 4 5
10 10 10 10 9 9 10 9 9 9 9 9 9 9 9 10 10 9 10 9 9 9 9 8 8 8 8 7 5 5 4 5 5 4 2 2 5 5 4 4 3 4 5
10 10 9 9 9 9 9 9 9 9 9 9 8 8 8 9 9 9 9 8 8 9 9 8 7 5 6 5 4 6 6 6 4 2 2 2 3 3 4 5 5 6 6
10 10 9 9 9 9 9 9 8 9 9 9 9 8 8 9 9 9 9 8 8 5 4 6 8 8 6 5 4 5 6 6 3 2 1 1 -0 2 4 5 6 7 7
9 9 9 9 9 8 9 9 9 9 9 9 9 9 8 8 8 7 7 7 7 8 8 9 8 6 6 4 3 4 2 2 3 2 1 0 2 5 7 7 8 8 9
9 8 9 9 10 9 9 9 9 9 9 9 9 9 9 8 8 8 9 8 8 8 8 9 9 7 6 7 7 7 6 4 4 6 5 5 8 9 8 9 9 9 8
9 9 9 9 9 9 9 9 9 9 9 9 9 9 9 9 9 9 9 8 9 8 9 9 8 8 8 8 7 7 7 6 5 5 6 7 8 8 8 8 8 7 7
9 9 9 8 7 8 8 9 8 8 9 9 9 9 9 9 9 9 9 9 9 9 8 8 8 8 9 9 8 8 8 8 8 8 8 8 8 7 7 7 7 6 5
5 8 8 8 8 8 8 8 8 8 8 8 8 8 8 8 8 8 9 9 8 8 8 8 8 8 8 8 8 8 8 7 7 7 7 6 5 5 5 4 4 3 2
-1 2 3 5 6 8 8 8 8 8 8 8 8 7 8 8 8 8 8 8 8 8 7 7 8 8 7 7 7 6 5 4 4 4 3 2 2 1 0 0 -1 -1 -2
-4 -1 0 0 1 2 4 5 6 6 6 5 5 4 4 5 6 6 6 5 5 5 4 3 3 4 4 4 4 3 2 1 -0 -0 0 -0 -1 -3 -4 -5 -5 -5 -5
-2 -2 -2 -2 -3 -3 -3 -2 -1 0 1 1 1 0 -0 0 1 2 2 2 1 2 1 0 -1 -0 0 0 0 -1 -1 -2 -2 -2 -2 -4 -5 -6 -7 -7 -7 -8 -8
-3 -2 -2 -1 -2 -3 -2 -4 -4 -3 -2 -3 -2 -1 -2 -2 -3 -1 0 -0 -0 -0 -2 -3 -3 -3 -2 -3 -4 -4 -3 -3 -4 -5 -6 -7 -8 -8 -9 -9 -10 -11 -11
-4 -4 -3 -3 -3 -2 -2 -3 -5 -4 -2 -6 -4 -4 -5 -4 -4 -5 -4 -4 -5 -5 -5 -5 -5 -5 -5 -5 -5 -6 -6 -7 -7 -7 -8 -9 -10 -11 -12 -15 -16 -16 -12
-6 -6 -6 -5 -5 -5 -5 -5 -5 -5 -5 -6 -6 -6 -5 -6 -7 -7 -6 -5 -5 -6 -6 -6 -7 -7 -7 -8 -8 -9 -9 -10 -10 -11 -12 -12 -15 -17 -16 -21 -19 -15 -13
-7 -7 -8 -8 -7 -7 -7 -7 -7 -6 -6 -6 -6 -6 -6 -7 -7 -7 -7 -7 -7 -7 -7 -7 -8 -9 -9 -10 -10 -12 -15 -18 -18 -20 -22 -20 -17 -19 -16 -16 -19 -16 -13
-8 -8 -8 -8 -8 -9 -9 -8 -8 -8 -7 -7 -7 -7 -7 -8 -8 -8 -8 -8 -8 -8 -9 -9 -10 -11 -11 -12 -14 -17 -20 -24 -23 -25 -26 -25 -19 -16 -16 -15 -16 -20 -20
-9 -9 -9 -9 -9 -9 -9 -9 -10 -10 -10 -10 -10 -9 -9 -9 -9 -9 -10 -9 -10 -10 -11 -12 -12 -13 -15 -17 -20 -22 -24 -26 -24 -23 -25 -28 -23 -16 -17 -18 -16 -18 -21
-11 -10 -10 -10 -10 -10 -10 -10 -11 -11 -11 -11 -12 -12 -13 -12 -11 -11 -11 -12 -13 -14 -15 -16 -16 -16 -16 -18 -18 -17 -20 -24 -25 -24 -24 -28 -27 -21 -17 -18 -17 -17 -17
-13 -12 -12 -12 -12 -12 -12 -13 -14 -16 -19 -22 -20 -16 -15 -19 -22 -22 -21 -20 -19 -17 -16 -18 -18 -19 -19 -17 -19 -20 -18 -23 -26 -25 -26 -28 -27 -20 -18 -18 -17 -18 -17
-12 -13 -13 -13 -13 -13 -13 -13 -13 -14 -17 -23 -27 -22 -17 -18 -18 -19 -21 -20 -20 -19 -18 -19 -21 -21 -21 -20 -19 -20 -22 -24 -26 -26 -26 -26 -24 -18 -18 -18 -18 -18 -18
-13 -13 -14 -14 -15 -15 -13 -14 -14 -15 -15 -15 -16 -18 -17 -16 -17 -19 -21 -23 -23 -22 -21 -19 -21 -23 -24 -25 -23 -22 -22 -24 -27 -29 -29 -29 -24 -20 -21 -20 -19 -19 -19
-14 -14 -14 -15 -14 -14 -15 -15 -14 -15 -15 -16 -16 -17 -17 -18 -18 -19 -20 -21 -21 -24 -25 -25 -24 -26 -27 -27 -25 -26 -26 -27 -29 -29 -29 -29 -27 -25 -25 -24 -21 -20 -19
-15 -15 -14 -15 -16 -16 -15 -15 -15 -16 -16 -16 -17 -17 -18 -18 -18 -19 -22 -25 -25 -26 -26 -28 -28 -27 -28 -28 -28 -29 -28 -28 -28 -28 -28 -28 -28 -27 -25 -23 -21 -21 -21
-16 -16 -16 -16 -16 -16 -16 -16 -17 -17 -17 -17 -17 -18 -18 -18 -19 -19 -20 -23 -26 -26 -26 -26 -25 -27 -28 -28 -29 -28 -28 -27 -27 -27 -27 -27 -27 -25 -22 -22 -22 -23 -21
-17 -17 -17 -17 -17 -17 -17 -17 -17 -18 -18 -18 -18 -19 -19 -19 -20 -20 -20 -22 -24 -27 -25 -23 -26 -26 -27 -28 -27 -27 -27 -27 -27 -27 -27 -27 -27 -26 -25 -26 -25 -25 -23

GFSGL_850_dewp_099.txt.gz
Dewpoint
10 10 10 11 10 10 10 10 10 10 9 10 10 10 10 10 10 10 10 10 9 10 10 9 8 7 7 7 7 7 6 6 6 6 6 6 7 8 7 6 6 5 3
11 10 10 11 10 10 10 10 9 8 9 9 9 9 9 10 10 10 10 9 9 10 10 9 9 8 7 8 7 6 5 5 6 7 6 6 6 5 5 5 5 4 5
11 11 11 10 9 9 9 9 9 9 9 8 9 9 9 9 10 10 9 9 10 10 9 9 9 7 8 8 6 5 5 4 4 4 5 5 4 3 2 3 2 2 3
11 10 10 9 9 8 9 9 9 8 9 8 8 8 8 9 9 10 10 9 9 9 9 9 8 8 8 7 6 5 6 6 4 5 4 4 3 2 2 1 0 4 7
9 10 9 8 8 8 8 9 8 8 9 8 9 8 9 9 9 9 9 9 9 9 9 9 9 8 5 6 6 7 6 4 5 5 7 6 4 3 2 3 2 7 8
9 9 9 9 10 9 8 9 9 9 9 9 9 9 8 8 8 8 8 9 9 8 9 7 6 8 8 8 7 7 7 6 5 5 4 4 4 3 4 4 6 8 8
8 9 9 9 9 9 9 10 9 9 9 9 9 8 8 8 8 8 8 8 8 8 7 8 8 8 8 7 7 8 8 8 7 7 6 6 8 7 6 8 8 7 8
4 7 8 9 9 9 10 10 9 9 9 9 9 9 9 9 9 8 8 8 8 8 8 8 8 8 8 8 7 7 7 7 7 7 7 7 7 7 7 7 7 6 6
1 2 4 7 9 9 9 9 9 8 8 8 8 8 8 8 9 9 8 8 8 8 8 8 7 8 8 8 8 8 8 7 7 7 7 7 6 6 6 5 5 4 4
-2 -2 -0 1 4 7 7 7 7 7 7 7 7 7 7 8 8 7 7 8 8 8 7 8 7 7 7 7 7 6 6 5 4 5 4 3 2 2 2 2 2 1 0
-3 -3 -2 -2 -3 0 3 3 2 2 2 2 3 4 4 5 5 5 5 6 6 6 6 5 5 5 6 5 5 4 3 2 1 1 0 0 -1 -1 -2 -3 -3 -4 -5
-3 -3 -2 -2 -3 -3 -1 -1 -1 -1 -1 -1 -1 -1 0 0 0 1 2 2 2 3 2 1 0 1 1 2 2 1 1 0 -0 -1 -1 -2 -3 -5 -6 -6 -7 -7 -8
-3 -4 -3 -3 -3 -3 -2 -2 -2 -2 -2 -3 -3 -3 -4 -3 -3 -2 -1 -1 -0 -0 -1 -2 -2 -1 -1 -2 -2 -2 -2 -1 -2 -3 -5 -6 -7 -8 -8 -8 -9 -10 -11
-5 -5 -4 -4 -4 -4 -4 -3 -3 -3 -3 -3 -4 -5 -5 -5 -5 -5 -5 -4 -4 -3 -4 -4 -4 -4 -3 -4 -4 -4 -5 -6 -6 -7 -8 -9 -10 -10 -11 -13 -15 -15 -15
-6 -7 -6 -6 -5 -5 -5 -5 -6 -6 -5 -5 -6 -5 -5 -6 -6 -5 -6 -5 -5 -5 -5 -5 -6 -7 -7 -7 -7 -8 -8 -9 -9 -10 -11 -12 -14 -17 -22 -25 -23 -17 -16
-7 -8 -8 -8 -8 -8 -7 -8 -8 -7 -7 -7 -7 -6 -7 -8 -7 -6 -6 -7 -7 -7 -7 -8 -8 -9 -9 -10 -12 -13 -14 -15 -16 -18 -19 -20 -20 -20 -22 -22 -21 -19 -17
-9 -9 -9 -9 -9 -9 -9 -9 -8 -9 -8 -9 -9 -8 -8 -9 -9 -8 -8 -7 -8 -8 -9 -10 -11 -11 -12 -12 -14 -17 -20 -23 -25 -26 -24 -21 -20 -18 -18 -22 -22 -22 -22
-10 -10 -10 -10 -10 -10 -10 -10 -10 -9 -9 -9 -9 -9 -9 -10 -10 -9 -10 -9 -9 -9 -10 -10 -11 -12 -14 -19 -22 -25 -25 -25 -27 -27 -27 -24 -23 -22 -20 -21 -22 -22 -22
-13 -12 -12 -12 -12 -11 -12 -13 -13 -13 -12 -12 -13 -13 -13 -11 -11 -11 -11 -13 -14 -14 -14 -15 -16 -18 -19 -19 -21 -23 -24 -26 -28 -29 -27 -25 -24 -22 -21 -21 -21 -20 -20
-14 -14 -14 -14 -14 -14 -14 -16 -17 -21 -25 -19 -17 -17 -20 -21 -21 -20 -19 -18 -18 -18 -18 -18 -19 -19 -20 -19 -20 -22 -23 -24 -26 -27 -28 -28 -27 -26 -24 -23 -23 -22 -21
-14 -14 -16 -16 -14 -14 -14 -14 -15 -16 -18 -22 -19 -18 -19 -21 -21 -21 -21 -20 -19 -20 -20 -20 -20 -20 -21 -22 -23 -25 -26 -27 -28 -29 -29 -29 -30 -28 -25 -23 -22 -20 -20
-14 -14 -14 -14 -14 -14 -14 -15 -15 -15 -16 -17 -17 -18 -18 -19 -20 -22 -23 -23 -22 -21 -22 -23 -23 -24 -26 -27 -28 -29 -29 -30 -30 -30 -31 -30 -30 -29 -27 -25 -22 -21 -21
-15 -15 -16 -15 -14 -15 -16 -16 -15 -15 -16 -16 -17 -17 -18 -20 -20 -21 -22 -24 -25 -25 -25 -27 -27 -27 -28 -29 -29 -29 -28 -29 -30 -29 -29 -29 -29 -28 -28 -26 -25 -24 -23
-17 -16 -16 -16 -16 -16 -16 -16 -16 -17 -17 -17 -17 -17 -18 -19 -20 -21 -22 -24 -28 -29 -30 -30 -29 -27 -28 -30 -29 -29 -28 -29 -29 -28 -28 -28 -28 -28 -28 -28 -27 -25 -25
-18 -17 -16 -16 -17 -16 -17 -17 -17 -17 -17 -17 -18 -18 -19 -19 -19 -20 -22 -24 -25 -27 -28 -29 -29 -29 -29 -29 -28 -28 -28 -28 -27 -28 -28 -28 -28 -28 -28 -27 -27 -26 -26
-18 -19 -18 -18 -18 -18 -18 -18 -18 -18 -18 -19 -19 -19 -19 -19 -20 -20 -20 -22 -23 -25 -27 -28 -27 -27 -28 -28 -28 -28 -28 -28 -28 -28 -28 -28 -27 -27 -27 -27 -26 -26 -25

GFSGL_850_dewp_102.txt.gz
Dewpoint
9 8 8 9 10 12 13 11 10 10 10 10 10 10 9 10 9 10 10 10 10 10 10 10 10 9 8 7 6 7 6 7 7 6 6 5 5 5 5 7 7 7 7
10 8 8 9 11 11 11 10 10 10 10 10 9 9 9 9 10 10 9 10 10 10 10 10 10 9 9 7 9 8 7 7 7 6 6 7 7 6 5 6 5 6 4
11 11 10 11 11 11 10 10 9 9 9 8 9 8 9 9 9 9 10 10 10 10 9 10 9 9 9 8 9 8 8 8 7 5 7 7 7 6 6 6 6 5 5
10 10 11 11 10 10 9 8 9 8 8 9 8 8 8 8 9 9 9 10 10 9 9 9 9 9 9 7 9 8 8 7 6 6 5 5 5 5 6 5 4 3 5
9 10 10 10 9 9 8 8 8 8 8 8 8 8 8 8 8 9 9 10 9 9 9 9 9 10 9 8 7 7 8 9 7 7 5 4 4 5 6 5 4 3 3
8 9 10 9 9 9 8 8 9 8 9 9 8 8 8 8 8 8 9 9 9 9 9 9 9 9 9 8 8 8 7 8 7 5 4 6 6 4 7 6 4 4 6
5 8 9 9 9 9 9 8 9 9 9 9 8 9 8 8 8 8 8 8 9 9 9 9 9 9 8 8 8 8 6 6 6 7 6 6 6 6 4 5 5 7 7
3 4 6 7 8 9 9 9 8 9 9 9 9 8 8 8 8 8 8 8 8 8 8 8 8 8 8 8 8 8 7 7 7 7 7 7 6 6 5 7 7 7 7
0 1 1 2 4 6 6 8 9 8 8 8 8 8 8 8 9 8 8 8 8 8 8 8 7 7 7 8 8 7 7 7 8 8 8 8 7 7 7 7 6 6 5
-3 -2 -1 0 -1 0 2 2 5 7 8 7 6 6 7 7 8 8 8 7 7 7 7 7 7 7 8 8 7 7 7 7 7 7 6 6 6 6 6 4 4 3 3
-4 -3 -2 -2 -1 -4 -3 -1 1 0 4 4 4 4 4 5 5 5 5 6 6 5 5 5 5 5 6 5 4 5 5 4 4 3 3 2 2 2 2 1 0 -0 -1
-4 -3 -4 -4 -3 -3 -2 -3 -2 -2 -1 0 0 -0 0 1 2 2 3 3 3 3 2 1 1 2 2 2 1 1 1 1 0 0 0 -1 -1 -2 -1 -1 -1 -3 -6
-4 -4 -4 -4 -4 -4 -4 -3 -2 -4 -4 -3 -3 -3 -4 -3 -2 -1 -1 0 0 1 -0 -1 -1 -1 -1 -1 -1 -1 -2 -2 -2 -2 -2 -2 -3 -4 -6 -8 -9 -10 -11
-5 -5 -5 -4 -4 -4 -4 -5 -5 -5 -6 -6 -6 -6 -5 -5 -4 -4 -3 -3 -2 -3 -3 -3 -3 -3 -3 -3 -4 -4 -4 -4 -4 -4 -6 -9 -9 -10 -10 -11 -13 -13 -15
-7 -7 -7 -6 -6 -5 -5 -6 -7 -8 -7 -7 -7 -7 -6 -7 -8 -6 -5 -5 -4 -4 -4 -4 -4 -4 -4 -5 -5 -6 -7 -8 -8 -9 -10 -11 -12 -14 -17 -19 -19 -17 -18
-9 -9 -8 -8 -8 -7 -7 -7 -7 -7 -7 -7 -8 -7 -8 -8 -7 -7 -7 -7 -7 -6 -5 -5 -6 -6 -6 -7 -7 -8 -9 -11 -12 -13 -15 -17 -20 -22 -23 -23 -20 -18 -18
-10 -10 -10 -10 -10 -9 -9 -9 -8 -8 -7 -7 -8 -8 -8 -8 -8 -8 -8 -7 -8 -7 -6 -7 -7 -8 -8 -9 -13 -15 -16 -19 -20 -21 -21 -22 -24 -25 -25 -24 -23 -23 -19
-15 -14 -13 -12 -12 -11 -11 -11 -11 -10 -9 -9 -10 -10 -10 -10 -9 -9 -9 -9 -8 -9 -9 -9 -10 -10 -11 -11 -13 -19 -21 -23 -24 -25 -25 -23 -23 -24 -24 -24 -24 -24 -22
-17 -16 -16 -17 -16 -17 -18 -19 -19 -15 -14 -14 -14 -14 -12 -11 -11 -11 -12 -12 -12 -12 -13 -14 -16 -18 -19 -19 -20 -22 -24 -24 -24 -25 -26 -25 -23 -22 -23 -23 -23 -24 -23
-17 -17 -16 -15 -16 -18 -17 -18 -20 -25 -22 -20 -21 -20 -20 -19 -19 -18 -17 -18 -19 -19 -19 -19 -19 -20 -21 -21 -21 -22 -24 -25 -26 -26 -27 -27 -25 -25 -26 -26 -25 -25 -25
-15 -15 -15 -16 -15 -15 -15 -16 -16 -18 -19 -20 -20 -19 -19 -21 -22 -21 -20 -20 -19 -19 -20 -20 -20 -21 -22 -22 -22 -24 -25 -26 -28 -28 -28 -28 -28 -27 -27 -26 -24 -24 -24
-16 -16 -17 -15 -15 -15 -16 -15 -15 -16 -17 -17 -18 -18 -19 -20 -20 -21 -22 -22 -21 -20 -20 -21 -22 -23 -24 -25 -26 -27 -27 -28 -29 -30 -30 -30 -29 -28 -29 -28 -28 -28 -27
-18 -16 -16 -16 -16 -16 -16 -16 -16 -16 -16 -17 -17 -18 -19 -19 -20 -21 -23 -24 -24 -24 -24 -23 -25 -25 -26 -27 -28 -28 -28 -28 -29 -29 -29 -29 -29 -29 -29 -29 -29 -28 -27
-21 -18 -17 -17 -17 -16 -17 -17 -17 -17 -17 -18 -18 -18 -18 -19 -19 -20 -21 -23 -26 -28 -28 -27 -28 -28 -28 -28 -29 -29 -29 -29 -29 -29 -29 -29 -29 -29 -29 -28 -28 -27 -27
-20 -19 -18 -17 -17 -17 -17 -18 -18 -18 -18 -18 -18 -19 -19 -19 -20 -20 -20 -21 -23 -25 -28 -28 -28 -28 -27 -28 -28 -27 -28 -28 -28 -28 -28 -28 -28 -28 -28 -28 -27 -27 -27
-20 -19 -19 -19 -19 -19 -19 -19 -19 -19 -19 -19 -19 -19 -20 -20 -20 -20 -20 -21 -22 -23 -25 -27 -28 -28 -28 -28 -27 -28 -28 -28 -28 -28 -28 -28 -28 -27 -27 -27 -27 -27 -27

GFSGL_850_dewp_105.txt.gz
Dewpoint
12 13 11 8 7 7 8 9 10 11 10 10 10 10 10 9 9 9 9 9 9 9 10 10 9 10 10 9 8 8 7 6 6 4 5 5 5 5 5 6 6 6 6
11 8 9 8 8 8 8 10 11 11 10 10 10 10 9 9 9 9 9 10 10 10 10 10 9 10 9 10 9 8 8 7 6 5 3 7 6 5 5 5 6 6 7
10 9 8 8 8 8 10 10 10 9 9 10 10 9 10 9 9 9 9 9 9 10 10 10 10 10 10 9 9 8 8 6 7 6 4 6 7 6 7 6 7 7 6
10 11 11 11 10 11 11 10 10 9 9 8 8 9 9 8 9 8 9 9 9 9 9 10 10 10 10 10 9 8 6 8 8 8 7 7 7 7 8 6 6 6 6
7 9 10 10 10 10 9 9 8 8 8 8 8 9 9 8 8 8 8 9 8 9 10 10 10 10 10 9 10 9 9 9 8 8 8 8 7 7 8 6 6 7 7
4 5 8 9 10 10 9 9 8 8 7 8 8 8 8 8 8 8 8 8 9 9 9 9 10 9 9 9 9 9 9 8 8 8 8 7 7 7 6 6 6 6 6
2 4 5 8 9 9 9 9 9 8 7 8 9 8 8 8 8 8 8 8 8 9 9 9 9 9 9 9 9 8 9 8 8 8 8 8 8 7 6 6 6 6 7
1 2 3 3 5 6 7 8 8 8 9 8 8 8 8 8 9 8 8 8 8 8 8 9 9 9 9 9 9 8 8 8 8 7 7 7 7 7 6 6 6 7 7
-2 -1 0 1 1 2 3 3 4 4 7 7 7 8 8 8 8 8 8 8 8 8 8 7 7 7 8 8 8 8 8 8 8 8 8 7 7 7 7 7 7 7 6
-3 -3 -2 -1 -1 0 0 -0 -1 -0 1 2 5 5 7 8 8 7 7 7 7 7 7 7 7 7 8 8 7 7 7 7 7 7 7 7 7 7 7 7 6 6 6
-4 -3 -3 -3 -2 -2 -1 -0 -1 -2 -3 -3 -0 2 3 3 6 5 4 5 6 6 6 6 6 7 7 7 7 7 6 6 5 4 5 4 4 4 4 4 3 2 2
-4 -4 -3 -3 -3 -3 -3 -3 -2 -1 -3 -5 -5 -3 -2 -1 -0 1 2 3 2 3 3 3 2 3 3 3 4 3 2 2 1 1 0 -0 0 -0 -0 0 0 -1 -1
-5 -4 -4 -4 -4 -3 -4 -4 -4 -5 -4 -5 -6 -6 -5 -4 -4 -3 -2 -1 0 1 -1 -1 -1 -0 -0 -0 -1 -1 -1 -1 -1 -1 -2 -3 -3 -3 -3 -2 -3 -3 -4
-6 -6 -6 -5 -4 -4 -4 -4 -5 -5 -6 -6 -6 -6 -7 -6 -6 -5 -4 -4 -3 -3 -4 -3 -3 -3 -2 -3 -4 -3 -3 -3 -3 -3 -4 -4 -5 -5 -5 -6 -9 -12 -13
-9 -9 -8 -7 -7 -7 -6 -6 -7 -8 -7 -7 -7 -7 -7 -7 -7 -7 -6 -6 -5 -5 -4 -4 -4 -4 -4 -5 -5 -5 -5 -5 -5 -6 -6 -7 -8 -10 -13 -14 -15 -16 -19
-13 -11 -10 -10 -9 -8 -8 -8 -8 -8 -8 -8 -8 -8 -8 -8 -8 -7 -7 -7 -7 -7 -5 -6 -6 -7 -7 -8 -8 -8 -8 -8 -9 -10 -12 -14 -17 -19 -19 -18 -18 -18 -20
-20 -18 -18 -16 -14 -12 -11 -10 -9 -9 -9 -8 -8 -9 -9 -9 -9 -8 -8 -8 -7 -7 -6 -7 -8 -8 -9 -9 -9 -9 -9 -11 -14 -18 -20 -22 -23 -23 -23 -24 -23 -22 -20
-21 -20 -20 -20 -21 -21 -21 -19 -14 -13 -12 -11 -11 -10 -10 -10 -10 -10 -10 -9 -8 -8 -9 -9 -10 -10 -10 -11 -11 -11 -12 -13 -19 -24 -26 -26 -26 -26 -26 -25 -25 -23 -22
-21 -21 -20 -20 -20 -20 -21 -22 -24 -22 -20 -20 -21 -22 -21 -18 -15 -12 -12 -12 -12 -13 -14 -16 -18 -20 -21 -22 -22 -24 -24 -25 -26 -26 -25 -25 -25 -25 -26 -26 -26 -27 -27
-21 -18 -18 -18 -18 -19 -18 -19 -20 -21 -22 -23 -24 -23 -22 -21 -23 -22 -20 -19 -19 -19 -18 -19 -19 -19 -21 -22 -22 -23 -24 -25 -26 -26 -27 -27 -28 -28 -28 -27 -27 -27 -26
-22 -20 -18 -17 -17 -17 -18 -17 -17 -18 -18 -19 -20 -21 -21 -22 -23 -23 -21 -20 -20 -20 -21 -21 -21 -21 -21 -22 -23 -24 -26 -27 -28 -28 -28 -28 -29 -29 -29 -29 -28 -27 -27
-23 -20 -19 -18 -17 -17 -17 -17 -17 -17 -18 -18 -18 -19 -20 -22 -23 -23 -24 -24 -23 -22 -22 -22 -23 -24 -25 -25 -26 -28 -28 -29 -30 -30 -30 -30 -29 -29 -29 -29 -29 -29 -28
-25 -21 -18 -17 -17 -17 -17 -17 -17 -18 -18 -18 -18 -19 -19 -20 -21 -22 -24 -25 -26 -26 -27 -27 -27 -27 -27 -28 -29 -29 -30 -29 -30 -30 -30 -30 -30 -29 -29 -29 -29 -29 -29
-25 -22 -19 -17 -17 -17 -17 -17 -17 -18 -18 -19 -19 -19 -19 -20 -20 -21 -22 -24 -25 -27 -28 -29 -29 -29 -29 -29 -29 -29 -29 -29 -29 -29 -29 -29 -29 -29 -28 -28 -28 -28 -28
-22 -22 -20 -19 -19 -18 -18 -18 -19 -19 -19 -19 -19 -19 -20 -20 -20 -21 -21 -21 -23 -24 -26 -27 -27 -28 -28 -28 -28 -28 -28 -28 -28 -28 -28 -28 -28 -28 -28 -28 -27 -27 -27
-20 -21 -20 -20 -19 -20 -20 -20 -19 -19 -20 -20 -20 -20 -21 -21 -21 -21 -21 -22 -22 -23 -26 -27 -27 -27 -27 -28 -27 -27 -28 -28 -28 -28 -28 -28 -28 -28 -27 -27 -27 -27 -27

GFSGL_850_dewp_108.txt.gz
Dewpoint
11 11 12 12 13 11 11 9 8 8 9 9 9 9 11 10 10 10 10 9 8 8 9 9 8 8 9 9 9 10 9 9 9 8 7 6 5 3 4 5 6 6 7
9 11 12 12 13 12 9 9 9 8 9 9 11 11 10 10 9 9 8 8 9 9 8 9 9 9 10 10 9 9 9 9 8 7 6 5 5 5 4 4 5 7 7
9 10 11 11 12 11 10 8 8 8 9 11 10 10 10 9 9 9 8 8 9 10 10 9 10 9 9 10 10 9 10 9 8 8 7 6 6 6 6 5 6 7 7
7 9 10 10 10 10 9 9 9 10 10 9 9 9 9 8 8 8 8 8 8 8 9 9 9 9 9 10 9 9 9 9 9 8 8 7 6 4 6 6 6 7 7
5 8 9 10 10 10 10 10 9 9 9 8 8 8 7 8 8 8 8 7 7 8 8 8 9 9 8 9 10 10 9 9 8 8 8 7 7 5 4 7 7 7 7
3 3 4 5 8 9 9 9 8 8 8 8 8 8 8 7 8 8 8 7 7 7 8 9 9 8 8 10 10 10 10 9 9 8 8 7 7 5 5 8 8 8 8
0 2 3 4 3 6 8 8 8 8 8 8 8 7 7 7 8 8 8 8 8 8 8 7 9 9 9 9 9 9 9 9 9 9 7 8 8 8 7 7 7 8 7
-1 0 1 2 1 3 4 6 7 7 7 6 6 7 7 7 8 8 8 8 8 8 8 6 7 8 9 9 9 9 9 8 8 8 8 8 7 8 7 7 8 7 7
-3 -3 -2 -1 0 1 1 2 2 2 3 4 4 4 5 6 7 8 8 8 8 7 7 7 7 7 7 9 9 9 8 8 8 8 8 8 8 8 8 8 7 7 7
-4 -4 -4 -3 -2 -2 -1 -0 -0 -0 0 -0 -1 -2 0 3 2 4 5 5 6 6 7 7 7 7 7 6 6 6 7 7 7 8 8 7 7 7 7 7 7 7 7
-4 -3 -3 -3 -3 -3 -2 -2 -2 -2 -1 -1 -1 -3 -3 -2 -1 0 1 3 4 3 5 5 6 6 7 7 7 7 7 7 7 7 6 6 5 4 5 5 4 4 4
-5 -4 -4 -4 -4 -4 -4 -4 -3 -3 -3 -4 -4 -3 -4 -4 -3 -3 -2 -0 -0 1 1 1 1 1 3 3 4 5 6 5 4 3 3 1 1 0 1 1 2 1 1
-7 -6 -6 -5 -5 -5 -5 -5 -5 -5 -5 -5 -5 -5 -6 -5 -5 -5 -5 -4 -3 -2 -3 -3 -3 -1 -0 0 -1 -1 -1 -1 -1 -0 -0 -1 -1 -2 -2 -2 -2 -2 -1
-10 -9 -8 -8 -7 -7 -7 -7 -7 -7 -7 -7 -6 -6 -6 -5 -6 -6 -5 -5 -5 -5 -5 -5 -4 -4 -3 -4 -3 -3 -3 -3 -2 -3 -4 -5 -5 -5 -4 -4 -4 -6 -5
-18 -15 -12 -11 -10 -9 -8 -8 -8 -8 -8 -8 -8 -8 -7 -8 -8 -7 -7 -6 -6 -6 -5 -5 -5 -6 -6 -6 -6 -6 -6 -6 -5 -6 -7 -7 -7 -7 -6 -8 -8 -9 -11
-24 -23 -22 -22 -19 -14 -11 -10 -9 -9 -9 -9 -9 -9 -9 -9 -8 -7 -7 -7 -7 -7 -6 -6 -6 -7 -7 -7 -7 -8 -8 -8 -8 -8 -9 -9 -9 -9 -10 -13 -18 -21 -23
-25 -24 -23 -24 -25 -25 -24 -22 -16 -13 -13 -12 -11 -10 -10 -10 -10 -9 -8 -8 -8 -7 -7 -8 -9 -9 -9 -9 -9 -9 -9 -10 -10 -10 -11 -15 -21 -22 -22 -22 -21 -19 -19
-24 -24 -23 -23 -23 -24 -24 -24 -25 -26 -26 -25 -25 -24 -22 -19 -16 -13 -12 -10 -9 -9 -9 -10 -10 -11 -11 -11 -11 -11 -11 -11 -11 -11 -11 -10 -11 -12 -16 -22 -24 -25 -25
-27 -24 -21 -21 -21 -22 -22 -23 -23 -23 -24 -24 -25 -26 -26 -23 -21 -20 -19 -20 -19 -19 -19 -20 -20 -20 -21 -22 -23 -24 -24 -24 -23 -23 -23 -23 -24 -25 -26 -26 -27 -28 -28
-28 -25 -23 -21 -21 -21 -21 -21 -21 -21 -22 -23 -24 -25 -25 -24 -26 -25 -23 -21 -21 -21 -20 -20 -20 -21 -22 -23 -24 -24 -25 -26 -26 -26 -27 -27 -27 -28 -28 -28 -27 -27 -27
-30 -27 -23 -21 -21 -19 -19 -19 -18 -19 -19 -20 -20 -21 -22 -24 -24 -25 -24 -23 -22 -21 -22 -22 -22 -22 -23 -24 -25 -26 -28 -29 -29 -28 -28 -28 -29 -28 -29 -28 -28 -28 -28
-30 -28 -26 -23 -21 -20 -18 -18 -18 -18 -19 -19 -19 -20 -20 -22 -23 -24 -25 -25 -25 -24 -23 -23 -23 -25 -26 -26 -28 -29 -29 -29 -30 -30 -30 -30 -30 -30 -30 -29 -29 -29 -28
-29 -28 -26 -23 -21 -19 -18 -18 -18 -18 -18 -19 -19 -19 -20 -21 -21 -22 -24 -25 -26 -27 -27 -27 -27 -27 -27 -28 -29 -30 -30 -30 -30 -30 -30 -30 -30 -30 -30 -30 -30 -29 -29
-25 -25 -25 -23 -21 -20 -19 -19 -19 -19 -19 -19 -19 -19 -20 -20 -20 -21 -21 -22 -24 -25 -27 -28 -28 -28 -28 -28 -29 -29 -29 -29 -29 -29 -29 -29 -29 -29 -29 -29 -29 -29 -28
-23 -22 -22 -22 -21 -21 -21 -21 -20 -20 -20 -20 -20 -20 -20 -21 -21 -21 -22 -22 -22 -23 -25 -26 -26 -27 -27 -27 -28 -28 -29 -28 -28 -28 -29 -29 -29 -29 -29 -29 -28 -28 -28
-20 -20 -21 -21 -21 -20 -21 -21 -21 -20 -20 -20 -20 -21 -21 -21 -21 -21 -22 -22 -22 -23 -24 -26 -28 -27 -27 -28 -28 -29 -29 -29 -29 -29 -29 -29 -29 -28 -28 -28 -28 -27 -27

GFSGL_850_dewp_111.txt.gz
Dewpoint
9 11 12 12 12 12 12 12 12 12 11 11 11 9 9 10 13 12 11 10 11 11 11 10 9 8 9 9 9 9 9 9 9 9 9 9 9 9 8 6 5 2 3
7 10 11 12 11 12 12 12 13 12 12 12 10 10 9 10 12 11 10 10 10 10 9 8 8 8 9 9 9 9 9 9 8 9 9 9 9 9 8 8 5 5 6
6 8 10 10 11 11 11 12 12 11 10 10 10 9 10 11 11 11 10 9 9 9 9 10 9 9 9 8 10 9 9 9 9 9 9 9 9 9 7 6 6 6 6
4 7 8 9 10 10 10 11 11 11 11 11 11 11 11 11 10 10 9 9 8 8 8 8 8 9 9 9 10 9 9 9 9 9 9 9 8 7 6 7 6 6 6
2 5 6 7 9 9 10 10 10 10 10 10 9 9 9 9 9 8 8 8 8 8 7 7 8 8 8 8 9 9 9 9 9 9 8 8 8 7 7 7 6 4 6
-1 1 2 4 5 8 8 9 9 9 8 8 8 8 8 8 8 8 8 7 8 8 8 7 7 7 8 9 9 9 9 9 9 9 9 8 8 8 7 7 7 7 8
-1 -0 1 1 1 2 3 5 7 7 8 7 7 7 7 7 7 7 7 7 7 7 8 8 7 7 6 9 8 9 9 9 9 9 9 8 8 8 7 7 6 5 7
-3 -2 -1 -1 0 2 2 2 2 2 5 5 6 6 6 6 7 7 7 7 7 7 8 8 7 7 6 7 8 8 9 9 9 9 9 9 8 8 8 7 6 6 7
-3 -2 -2 -1 -1 -1 -1 0 -0 -0 1 1 1 2 3 4 5 5 6 5 6 6 6 7 7 7 7 7 8 7 7 8 8 9 8 8 8 8 8 8 7 7 8
-5 -4 -4 -4 -4 -3 -3 -4 -3 -2 -1 -1 -1 -1 -1 -0 0 1 3 3 3 4 4 4 5 6 7 6 6 6 6 6 6 6 8 8 8 8 8 8 8 8 8
-5 -5 -5 -4 -4 -4 -4 -4 -4 -4 -3 -3 -3 -3 -2 -2 -1 -1 -1 0 0 1 2 2 2 2 4 4 4 4 5 5 6 6 6 6 6 7 7 7 7 7 8
-7 -7 -7 -6 -6 -6 -6 -5 -5 -5 -5 -5 -5 -5 -5 -4 -4 -3 -2 -3 -3 -2 -1 -2 -2 -1 0 1 2 2 1 1 3 5 5 5 5 4 5 5 5 4 3
-13 -11 -10 -9 -8 -8 -7 -7 -7 -7 -6 -6 -6 -6 -6 -6 -6 -5 -5 -4 -3 -3 -4 -4 -4 -3 -3 -2 -2 -2 -2 -1 -1 1 0 -1 -1 -0 0 0 0 0 0
-24 -22 -20 -18 -15 -13 -11 -10 -9 -8 -8 -8 -8 -8 -8 -7 -7 -6 -6 -6 -5 -5 -5 -4 -4 -4 -4 -4 -4 -4 -4 -4 -3 -3 -4 -4 -5 -4 -3 -3 -3 -4 -3
-27 -26 -26 -25 -22 -19 -16 -13 -11 -10 -10 -9 -9 -9 -9 -8 -8 -7 -7 -7 -7 -6 -5 -5 -5 -5 -5 -5 -6 -6 -6 -6 -6 -7 -7 -7 -7 -6 -6 -6 -6 -6 -5
-31 -29 -27 -27 -26 -26 -24 -21 -21 -20 -19 -18 -15 -13 -12 -10 -10 -9 -8 -8 -7 -7 -6 -6 -7 -7 -7 -7 -7 -8 -7 -7 -8 -8 -8 -8 -8 -8 -8 -8 -9 -9 -9
-31 -29 -28 -28 -27 -27 -26 -26 -26 -26 -27 -28 -29 -28 -27 -25 -18 -15 -12 -10 -8 -8 -8 -8 -9 -9 -9 -9 -9 -9 -9 -9 -9 -9 -9 -10 -10 -10 -11 -13 -16 -17 -15
-31 -30 -29 -27 -27 -27 -26 -26 -26 -27 -28 -28 -28 -28 -29 -27 -24 -22 -19 -16 -18 -18 -16 -14 -12 -12 -11 -11 -11 -11 -11 -11 -11 -11 -11 -11 -11 -11 -11 -11 -11 -12 -13
-30 -29 -27 -27 -27 -27 -26 -26 -26 -26 -26 -26 -27 -28 -28 -26 -25 -25 -25 -25 -23 -22 -21 -21 -21 -22 -23 -24 -24 -24 -22 -21 -20 -19 -19 -21 -22 -23 -23 -23 -24 -25 -25
-28 -28 -27 -26 -25 -25 -24 -24 -24 -24 -25 -25 -26 -26 -27 -27 -29 -28 -26 -24 -23 -23 -22 -22 -22 -22 -23 -24 -25 -25 -25 -26 -25 -25 -25 -26 -26 -27 -27 -27 -27 -27 -28
-29 -29 -28 -25 -23 -21 -20 -20 -19 -20 -20 -20 -22 -22 -23 -25 -26 -26 -26 -26 -24 -23 -23 -24 -24 -24 -24 -25 -27 -28 -28 -28 -28 -27 -27 -27 -27 -27 -28 -28 -28 -28 -29
-28 -28 -28 -27 -25 -23 -21 -20 -20 -19 -19 -19 -20 -20 -21 -22 -23 -24 -25 -26 -26 -26 -25 -24 -24 -25 -26 -27 -28 -29 -29 -30 -30 -29 -29 -29 -29 -29 -29 -29 -29 -29 -29
-25 -26 -25 -25 -24 -24 -23 -22 -21 -19 -19 -19 -20 -20 -20 -21 -21 -22 -22 -23 -24 -26 -27 -27 -27 -27 -27 -28 -29 -29 -30 -30 -30 -30 -30 -29 -29 -29 -29 -29 -29 -29 -29
-23 -23 -23 -23 -23 -23 -23 -23 -22 -21 -21 -21 -21 -21 -21 -21 -21 -21 -22 -22 -23 -23 -25 -26 -26 -27 -27 -27 -28 -28 -28 -29 -29 -29 -29 -29 -29 -29 -29 -29 -29 -29 -29
-21 -21 -21 -21 -22 -22 -22 -22 -22 -22 -21 -21 -21 -21 -21 -21 -21 -21 -22 -22 -22 -23 -24 -25 -25 -26 -26 -27 -27 -27 -28 -28 -28 -28 -29 -29 -29 -29 -29 -29 -28 -28 -28
-18 -19 -19 -19 -20 -20 -21 -21 -21 -21 -21 -21 -21 -21 -21 -21 -21 -21 -22 -22 -22 -22 -23 -24 -25 -26 -26 -27 -27 -28 -29 -29 -29 -29 -29 -29 -28 -28 -28 -28 -28 -28 -27

GFSGL_850_dewp_114.txt.gz
Dewpoint
2 4 8 10 11 12 11 11 11 12 12 13 12 12 12 13 11 8 8 8 10 10 11 11 10 10 11 11 11 11 10 10 10 10 10 9 9 9 9 9 9 10 8
1 5 9 11 12 11 11 11 11 12 13 13 13 12 12 13 13 11 8 11 12 11 10 11 11 11 10 9 9 9 10 9 10 10 9 9 9 8 9 9 9 9 9
1 4 8 11 11 11 11 11 11 12 12 11 12 12 12 12 12 9 9 12 11 11 10 10 10 10 9 9 9 10 10 10 10 9 9 9 9 8 9 9 9 9 9
1 4 6 8 9 10 10 11 11 11 11 11 10 11 11 11 11 11 11 11 11 10 10 9 9 8 9 9 9 9 9 9 9 9 9 9 9 9 9 9 9 9 9
-0 1 2 3 5 7 9 9 10 10 10 10 10 11 11 11 10 10 10 10 9 9 8 8 8 8 7 7 8 8 9 9 9 9 9 9 9 8 9 9 9 9 8
-0 0 -0 1 2 2 4 6 8 9 9 9 9 9 9 9 9 9 9 8 8 8 8 8 8 8 7 7 7 7 8 9 9 9 9 9 9 8 9 9 8 8 8
-3 -2 -1 -0 1 0 1 0 2 3 5 6 6 6 7 7 7 7 8 7 7 7 7 7 8 8 8 7 6 6 7 9 9 8 9 9 9 8 9 9 8 8 7
-3 -3 -2 -1 -1 -0 1 0 0 -1 1 2 2 2 4 4 7 6 7 7 7 7 7 7 7 7 7 7 6 7 8 8 8 8 8 8 8 9 9 9 8 8 7
-4 -4 -4 -3 -2 -2 -2 -2 -1 -1 -0 0 1 0 1 0 1 2 3 5 4 5 5 5 6 6 7 6 7 6 7 7 7 7 8 7 8 8 8 8 8 7 6
-6 -5 -4 -4 -4 -4 -3 -4 -4 -2 -3 -3 -2 -2 -2 -2 -1 0 1 1 1 1 1 2 3 4 5 6 6 5 5 5 5 5 5 6 7 8 8 8 8 7 6
-7 -7 -6 -6 -6 -6 -5 -5 -5 -5 -4 -4 -4 -4 -4 -3 -3 -2 -1 -1 -1 -1 -1 -1 -0 -0 1 2 4 4 3 3 2 4 3 4 5 5 6 7 7 7 7
-15 -13 -11 -10 -8 -8 -7 -7 -7 -7 -7 -7 -6 -6 -6 -6 -5 -5 -4 -4 -3 -2 -2 -3 -3 -3 -2 -1 0 0 -0 0 1 2 1 2 3 4 3 3 4 4 5
-27 -26 -24 -21 -21 -19 -18 -15 -13 -12 -10 -9 -8 -7 -7 -7 -7 -6 -6 -6 -5 -5 -5 -4 -4 -4 -3 -3 -3 -2 -2 -1 -1 -1 -1 -2 -2 -1 0 2 3 3 3
-30 -29 -28 -28 -25 -28 -27 -25 -25 -23 -21 -19 -16 -14 -12 -10 -9 -8 -7 -7 -6 -6 -5 -5 -5 -5 -5 -5 -4 -4 -4 -4 -3 -3 -5 -5 -5 -4 -3 -3 -2 -3 -1
-33 -32 -30 -28 -27 -17 -22 -27 -25 -27 -27 -22 -19 -15 -17 -17 -14 -10 -9 -8 -7 -7 -6 -6 -6 -6 -6 -7 -7 -7 -7 -7 -6 -6 -6 -6 -6 -5 -5 -5 -5 -5 -5
-17 -18 -26 -23 -22 -23 -20 -15 -28 -29 -29 -30 -30 -30 -24 -23 -21 -19 -14 -10 -9 -8 -8 -8 -8 -8 -8 -8 -8 -8 -8 -8 -8 -8 -8 -8 -8 -7 -7 -7 -7 -6 -7
-32 -22 -18 -18 -17 -21 -21 -21 -20 -20 -28 -32 -32 -31 -31 -31 -29 -27 -24 -19 -18 -14 -11 -11 -11 -11 -12 -11 -10 -10 -10 -10 -10 -9 -9 -9 -9 -9 -9 -9 -9 -9 -9
-24 -24 -16 -18 -18 -15 -15 -15 -16 -18 -18 -22 -28 -30 -31 -31 -31 -29 -27 -21 -18 -17 -14 -14 -14 -14 -14 -14 -13 -12 -12 -11 -11 -11 -11 -11 -11 -11 -11 -11 -11 -11 -11
-30 -27 -14 -14 -14 -14 -14 -14 -15 -15 -15 -16 -21 -26 -31 -30 -29 -29 -29 -20 -15 -15 -15 -15 -16 -16 -15 -15 -15 -15 -17 -18 -16 -14 -13 -13 -13 -13 -12 -12 -13 -14 -16
-17 -30 -25 -16 -15 -14 -14 -15 -15 -15 -15 -15 -16 -20 -27 -18 -17 -20 -20 -18 -17 -17 -17 -17 -17 -17 -17 -17 -17 -17 -16 -16 -16 -16 -16 -15 -15 -15 -15 -15 -15 -16 -17
-16 -15 -19 -15 -15 -16 -15 -15 -16 -16 -16 -16 -16 -19 -25 -18 -17 -18 -18 -19 -19 -19 -19 -18 -18 -19 -19 -18 -18 -18 -19 -17 -18 -17 -17 -17 -16 -16 -16 -16 -16 -17 -17
-19 -16 -16 -16 -16 -17 -17 -16 -16 -16 -17 -17 -17 -18 -19 -18 -18 -19 -19 -20 -20 -20 -20 -20 -20 -20 -24 -24 -24 -20 -21 -22 -21 -19 -18 -19 -17 -17 -17 -17 -16 -16 -17
-16 -17 -16 -17 -17 -17 -17 -17 -17 -18 -18 -18 -18 -18 -18 -19 -19 -20 -20 -21 -21 -21 -22 -22 -21 -23 -25 -26 -27 -28 -28 -29 -29 -29 -19 -19 -18 -18 -18 -18 -18 -17 -17
-17 -17 -17 -17 -17 -18 -18 -18 -18 -18 -19 -18 -18 -19 -19 -19 -20 -20 -21 -21 -21 -22 -22 -22 -24 -26 -26 -27 -26 -27 -28 -29 -29 -28 -28 -20 -20 -20 -19 -19 -20 -25 -22
-17 -17 -17 -17 -17 -17 -18 -18 -18 -18 -18 -19 -19 -19 -19 -20 -20 -20 -20 -21 -22 -22 -22 -22 -23 -24 -26 -26 -27 -27 -28 -28 -28 -28 -28 -26 -28 -28 -27 -22 -20 -21 -23
-17 -17 -17 -17 -17 -17 -18 -18 -18 -18 -18 -19 -19 -19 -20 -20 -20 -20 -21 -21 -22 -22 -22 -23 -23 -25 -26 -24 -26 -27 -28 -28 -28 -28 -28 -27 -24 -23 -22 -26 -27 -21 -22

GFSGL_850_dewp_117.txt.gz
Dewpoint
-1 1 2 3 5 7 8 8 9 10 11 11 12 11 11 12 12 13 12 9 12 11 9 11 10 12 11 11 10 10 11 11 11 10 10 10 9 10 9 8 8 9 9
-1 0 -0 3 6 9 11 10 11 11 10 11 12 12 11 11 12 12 13 13 10 11 10 8 11 11 12 11 11 10 11 11 10 10 9 9 9 9 9 8 8 8 9
-2 -2 -0 3 7 10 10 9 9 10 11 12 12 11 12 12 12 12 12 12 12 10 8 9 12 11 11 10 11 11 10 10 11 10 9 9 10 10 9 9 8 8 9
-3 -4 -2 3 6 8 9 9 11 11 12 11 11 12 12 12 12 12 12 12 11 10 11 11 11 11 10 10 10 10 9 10 9 10 10 9 9 9 9 9 9 8 9
-4 -2 -2 1 2 4 6 6 7 8 9 9 10 11 11 11 11 11 11 11 11 11 11 10 10 9 9 9 8 8 8 9 9 9 9 9 9 9 9 9 9 9 9
-4 -3 -2 -1 1 1 1 1 3 4 5 6 7 9 9 10 9 9 10 10 10 10 10 9 9 9 8 8 8 8 7 7 7 8 8 9 9 8 9 9 9 9 8
-5 -5 -4 -3 -1 -1 -0 0 0 0 1 2 2 4 6 8 7 8 8 8 8 8 8 8 8 8 8 8 8 7 7 6 6 7 7 8 8 9 9 9 8 8 8
-4 -5 -4 -2 -3 -3 -3 -2 -1 -1 -1 -0 -1 -0 1 2 3 4 5 5 5 4 6 7 7 7 7 7 7 7 7 6 7 7 8 8 8 8 8 8 9 8 8
-6 -5 -5 -4 -4 -4 -5 -5 -3 -4 -2 -2 -2 -2 -2 -1 0 0 2 1 1 1 2 3 3 4 4 5 5 6 6 5 5 6 6 6 6 7 8 8 8 8 8
-8 -7 -7 -7 -6 -6 -5 -5 -4 -4 -4 -3 -3 -4 -3 -2 -1 -1 -0 -0 -0 0 -1 -0 0 1 1 2 3 3 3 4 4 4 4 4 4 5 6 7 6 7 8
-19 -19 -16 -14 -11 -10 -9 -8 -7 -7 -6 -6 -5 -4 -4 -4 -4 -3 -2 -2 -3 -2 -1 -1 -2 -2 -1 -1 -0 0 1 1 1 2 3 3 3 4 4 5 6 5 5
-27 -29 -29 -30 -28 -28 -28 -26 -25 -21 -17 -13 -9 -8 -8 -7 -6 -6 -6 -5 -4 -4 -4 -4 -4 -4 -3 -2 -2 -2 -2 -2 -1 -0 1 1 2 2 2 2 3 4 4
-29 -30 -29 -29 -33 -35 -34 -34 -33 -31 -29 -26 -26 -22 -21 -20 -13 -8 -7 -6 -6 -6 -6 -5 -5 -5 -5 -4 -4 -3 -3 -3 -3 -2 -2 -2 -2 -2 -2 -1 -1 0 2
-26 -19 -18 -22 -17 -25 -32 -34 -36 -35 -33 -31 -24 -27 -27 -27 -25 -21 -15 -10 -8 -7 -6 -6 -6 -6 -6 -6 -6 -6 -6 -6 -6 -6 -6 -5 -5 -4 -3 -3 -3 -2 -1
-13 -15 -12 -12 -13 -11 -12 -15 -21 -27 -30 -29 -29 -24 -28 -30 -25 -25 -21 -17 -11 -9 -8 -8 -8 -8 -8 -8 -8 -8 -7 -8 -8 -8 -7 -7 -7 -6 -6 -5 -5 -5 -5
-12 -12 -15 -12 -12 -12 -12 -11 -12 -14 -19 -29 -30 -30 -25 -28 -30 -30 -28 -25 -23 -19 -12 -11 -11 -11 -11 -11 -11 -10 -9 -9 -9 -9 -9 -9 -8 -8 -8 -8 -7 -7 -7
-13 -12 -12 -12 -12 -12 -12 -12 -12 -12 -12 -15 -26 -30 -31 -32 -33 -31 -28 -14 -17 -19 -13 -12 -12 -12 -12 -12 -13 -13 -12 -11 -11 -11 -10 -10 -10 -10 -9 -9 -9 -9 -9
-19 -13 -11 -12 -12 -12 -12 -12 -12 -12 -12 -13 -14 -25 -29 -17 -19 -26 -28 -17 -14 -14 -13 -13 -14 -14 -14 -13 -14 -14 -14 -13 -13 -12 -12 -12 -11 -11 -11 -11 -11 -11 -10
-17 -19 -13 -12 -13 -13 -13 -13 -13 -13 -13 -13 -13 -16 -26 -16 -15 -15 -16 -15 -15 -15 -15 -14 -15 -15 -15 -15 -15 -15 -14 -14 -14 -14 -14 -13 -13 -13 -13 -13 -12 -12 -12
-13 -16 -14 -13 -13 -13 -13 -13 -14 -14 -14 -14 -14 -16 -17 -16 -15 -15 -16 -17 -17 -16 -17 -16 -16 -17 -17 -17 -16 -16 -15 -15 -15 -15 -15 -15 -14 -13 -13 -13 -14 -14 -15
-13 -14 -14 -14 -14 -14 -15 -15 -15 -15 -15 -15 -15 -15 -17 -16 -16 -16 -17 -18 -18 -18 -18 -18 -18 -18 -18 -18 -18 -17 -18 -17 -17 -16 -16 -16 -15 -15 -14 -14 -14 -15 -16
-14 -14 -15 -15 -15 -15 -15 -15 -15 -15 -15 -16 -16 -16 -17 -16 -17 -17 -18 -18 -19 -19 -20 -20 -19 -19 -20 -20 -20 -20 -19 -19 -19 -19 -17 -17 -16 -16 -16 -15 -15 -15 -16
-14 -14 -14 -15 -15 -15 -15 -15 -15 -16 -16 -16 -16 -17 -17 -17 -18 -18 -18 -19 -20 -20 -20 -21 -21 -21 -21 -21 -21 -21 -21 -21 -21 -23 -19 -18 -18 -17 -16 -16 -16 -16 -16
-15 -15 -15 -15 -15 -15 -15 -16 -16 -16 -16 -17 -17 -17 -17 -18 -18 -18 -18 -19 -20 -20 -20 -21 -21 -22 -23 -25 -22 -22 -27 -27 -28 -25 -22 -20 -19 -18 -18 -18 -18 -18 -18
-15 -15 -15 -15 -15 -15 -16 -16 -16 -16 -16 -17 -17 -17 -18 -18 -18 -18 -19 -19 -20 -20 -21 -21 -21 -22 -22 -23 -25 -27 -27 -28 -27 -28 -23 -21 -21 -20 -22 -19 -19 -19 -19
-16 -16 -16 -16 -16 -16 -16 -17 -17 -17 -17 -17 -17 -18 -18 -18 -18 -19 -19 -19 -20 -20 -21 -21 -21 -22 -22 -23 -23 -23 -25 -27 -27 -28 -27 -22 -21 -21 -20 -20 -21 -19 -20

GFSGL_850_dewp_120.txt.gz
Dewpoint
-4 -3 -2 -1 0 2 3 4 6 6 4 2 7 7 4 9 10 10 11 11 12 13 12 11 12 11 11 11 10 11 10 11 10 9 10 9 10 10 10 9 9 8 8
-5 -3 -2 -1 0 2 3 5 7 7 7 10 10 8 1 10 11 11 10 11 12 12 13 13 12 10 11 12 9 8 10 10 10 10 10 10 11 10 10 9 8 8 8
-6 -4 -3 -3 -1 0 2 5 8 9 9 8 8 9 11 11 12 12 11 12 11 12 12 12 12 12 11 11 11 12 10 10 10 10 9 9 10 9 9 9 9 9 9
-6 -5 -4 -4 -3 -2 -0 4 5 7 7 8 8 9 10 9 11 11 12 11 12 12 11 11 12 12 11 11 11 11 10 11 10 10 10 10 9 10 10 9 9 9 10
-6 -5 -6 -6 -5 -2 0 1 2 3 5 5 6 8 9 9 10 11 11 12 12 12 11 11 10 11 11 11 11 7 7 10 10 9 9 8 8 9 8 8 9 9 9
-6 -6 -6 -6 -6 -4 -0 0 1 1 0 -0 3 4 6 5 6 8 11 11 11 10 10 10 10 10 10 10 10 10 9 8 7 7 7 7 7 7 8 8 8 9 9
-5 -5 -5 -4 -4 -4 -3 -2 -1 -2 -1 -0 -0 -1 -1 0 1 4 6 7 6 8 7 7 8 8 8 8 8 8 8 8 7 7 6 6 6 6 7 8 8 8 9
-7 -6 -5 -4 -4 -3 -3 -4 -2 -4 -2 -2 -1 -2 -1 -1 -1 -0 2 3 0 3 3 4 4 4 5 5 6 6 7 7 6 6 5 6 6 6 7 7 8 8 8
-15 -13 -11 -8 -6 -5 -4 -3 -2 -4 -3 -2 -2 -2 -3 -2 -2 -0 0 -0 -1 0 -1 0 2 2 2 2 3 3 4 5 5 4 3 3 3 5 5 5 6 7 7
-24 -25 -27 -25 -23 -16 -10 -8 -6 -5 -4 -4 -4 -3 -4 -3 -4 -2 -2 -1 -1 -0 -1 -1 -0 -1 -1 -0 1 1 1 1 2 2 2 2 2 2 2 3 4 5 6
-26 -31 -33 -34 -33 -31 -29 -27 -27 -24 -21 -17 -13 -8 -6 -6 -5 -4 -4 -4 -4 -3 -3 -3 -2 -3 -2 -2 -2 -2 -1 -1 -1 -1 0 1 1 2 2 3 3 3 5
-22 -25 -25 -29 -35 -37 -38 -37 -37 -34 -34 -34 -32 -30 -25 -21 -14 -9 -7 -6 -6 -5 -5 -5 -5 -5 -5 -4 -3 -3 -3 -3 -3 -3 -2 -1 -1 0 1 1 1 1 2
-19 -19 -20 -21 -22 -27 -33 -36 -37 -37 -37 -36 -35 -35 -34 -33 -31 -25 -18 -12 -9 -7 -7 -7 -7 -6 -6 -6 -6 -5 -5 -6 -6 -6 -6 -5 -5 -4 -3 -2 -2 -1 -1
-17 -12 -13 -13 -14 -16 -20 -23 -29 -30 -34 -35 -33 -32 -33 -35 -35 -32 -30 -29 -24 -17 -11 -9 -8 -8 -8 -8 -7 -7 -7 -7 -8 -9 -8 -7 -6 -5 -5 -4 -3 -3 -3
-12 -15 -12 -11 -12 -11 -11 -12 -14 -14 -15 -21 -23 -24 -25 -28 -23 -23 -17 -22 -20 -13 -16 -19 -16 -12 -11 -10 -10 -10 -9 -9 -9 -9 -9 -8 -8 -8 -7 -6 -6 -5 -5
-13 -12 -15 -13 -13 -12 -12 -11 -12 -12 -12 -13 -16 -20 -15 -15 -19 -28 -16 -13 -19 -18 -19 -16 -15 -14 -14 -13 -13 -12 -12 -11 -11 -11 -10 -10 -10 -9 -9 -8 -8 -8 -8
-17 -12 -12 -15 -13 -13 -13 -13 -13 -13 -12 -13 -13 -18 -20 -14 -14 -16 -20 -14 -15 -17 -15 -16 -15 -15 -14 -14 -15 -14 -14 -13 -13 -12 -12 -12 -11 -11 -11 -10 -10 -9 -10
-27 -18 -13 -13 -15 -13 -13 -14 -14 -14 -14 -14 -14 -17 -22 -15 -14 -15 -16 -21 -18 -17 -15 -15 -16 -16 -16 -15 -15 -15 -14 -15 -14 -14 -14 -13 -13 -12 -12 -12 -11 -11 -11
-16 -21 -14 -13 -15 -15 -14 -15 -15 -15 -15 -15 -15 -18 -21 -18 -15 -16 -16 -20 -17 -17 -17 -17 -16 -17 -17 -17 -16 -16 -16 -15 -15 -15 -14 -15 -13 -13 -13 -13 -13 -13 -12
-13 -15 -15 -15 -14 -15 -16 -15 -16 -16 -16 -16 -16 -16 -17 -19 -17 -17 -17 -18 -18 -18 -18 -18 -18 -18 -18 -19 -18 -17 -17 -17 -17 -16 -16 -16 -15 -14 -14 -14 -15 -15 -16
-14 -14 -15 -15 -15 -16 -15 -15 -16 -16 -17 -17 -17 -17 -18 -17 -17 -18 -18 -18 -19 -19 -19 -20 -19 -19 -19 -20 -19 -19 -19 -19 -19 -17 -17 -17 -16 -16 -15 -15 -15 -16 -15
-14 -15 -15 -14 -15 -15 -15 -15 -17 -16 -17 -17 -17 -17 -18 -18 -18 -19 -18 -18 -19 -20 -20 -20 -20 -20 -21 -21 -21 -21 -21 -21 -22 -22 -18 -17 -17 -16 -16 -16 -15 -15 -15
-15 -15 -16 -15 -15 -16 -16 -16 -17 -16 -16 -17 -18 -18 -18 -19 -19 -19 -19 -19 -19 -20 -21 -20 -21 -21 -21 -22 -23 -23 -25 -27 -27 -24 -19 -18 -18 -17 -17 -17 -17 -16 -16
-15 -16 -16 -16 -16 -16 -16 -17 -16 -17 -17 -17 -17 -17 -18 -18 -19 -19 -20 -19 -19 -20 -20 -21 -21 -21 -22 -22 -23 -24 -25 -27 -27 -27 -21 -20 -19 -18 -18 -18 -18 -18 -19
-16 -16 -16 -17 -17 -17 -17 -17 -18 -18 -18 -19 -18 -19 -19 -18 -18 -18 -19 -20 -20 -20 -20 -21 -21 -21 -21 -22 -22 -22 -23 -24 -27 -27 -22 -20 -20 -20 -20 -20 -19 -19 -20
-16 -16 -17 -17 -18 -17 -18 -19 -18 -19 -19 -18 -19 -19 -19 -20 -21 -19 -18 -19 -21 -22 -22 -21 -21 -21 -21 -22 -22 -22 -23 -24 -25 -26 -25 -23 -22 -20 -20 -20 -19 -19 -20

GFSGL_850_dewp_123.txt.gz
Dewpoint
-6 -5 -5 -4 -3 -2 -1 0 2 3 5 5 5 4 3 3 7 6 9 9 11 11 11 10 11 12 13 12 12 11 9 9 10 8 8 8 10 10 10 9 9 10 9
-6 -6 -5 -4 -3 -3 -1 1 2 4 6 6 5 6 6 8 7 8 6 4 3 7 10 11 10 11 12 12 12 10 10 9 9 8 8 9 9 9 10 10 10 10 9
-7 -7 -6 -5 -4 -4 -2 -1 1 3 4 5 5 7 6 10 8 5 4 5 8 10 12 12 10 10 11 11 12 10 10 9 8 9 8 6 9 9 9 10 9 9 9
-7 -7 -7 -6 -6 -5 -4 -3 -2 1 3 4 6 7 8 8 9 6 4 6 7 10 11 12 12 11 11 11 11 11 10 10 9 9 9 9 9 9 10 9 9 10 10
-6 -6 -6 -6 -6 -6 -5 -3 -2 -0 0 1 3 4 5 7 8 8 9 10 10 10 11 11 11 11 11 11 11 11 11 10 10 8 6 9 10 9 9 8 9 8 8
-6 -5 -5 -6 -5 -5 -5 -5 -2 -2 -3 -0 0 -0 -0 1 2 1 4 3 5 7 8 9 9 10 11 11 11 10 10 10 10 8 9 9 9 8 8 7 8 8 8
-8 -6 -4 -5 -5 -5 -5 -5 -3 -1 -3 -1 -2 -1 -0 -0 -0 1 0 2 0 2 3 3 4 5 6 8 10 8 8 8 9 8 8 7 7 7 6 6 6 7 8
-25 -21 -12 -7 -5 -4 -4 -4 -6 -5 -4 -5 -4 -3 -2 -3 -1 -0 -0 -0 -0 1 -0 -0 1 1 2 3 6 5 5 6 7 5 6 5 6 5 5 6 6 6 7
-32 -33 -29 -27 -25 -18 -13 -11 -8 -5 -5 -4 -4 -4 -3 -3 -2 -2 -0 -1 -1 -1 -0 -0 -0 -1 -1 0 3 2 2 2 1 3 2 3 3 3 3 4 4 4 4
-22 -28 -34 -33 -33 -29 -29 -30 -29 -29 -27 -24 -18 -11 -6 -5 -4 -3 -3 -3 -3 -4 -3 -3 -2 -2 -1 -1 1 1 1 -0 -1 0 0 -0 0 0 2 3 2 3 3
-18 -21 -25 -31 -35 -36 -37 -36 -36 -37 -37 -36 -35 -32 -29 -26 -21 -17 -12 -7 -5 -5 -5 -5 -4 -4 -4 -3 -2 -3 -4 -2 -2 -2 -2 -2 -1 -1 -0 0 1 1 1
-19 -20 -20 -23 -26 -30 -35 -37 -38 -38 -38 -37 -37 -36 -34 -31 -30 -28 -27 -23 -16 -9 -7 -7 -7 -6 -6 -6 -5 -5 -4 -5 -4 -4 -3 -3 -3 -2 -2 -2 -1 -1 -1
-19 -17 -19 -19 -22 -25 -27 -29 -32 -34 -37 -36 -35 -35 -35 -33 -30 -24 -25 -24 -25 -20 -14 -10 -9 -8 -8 -8 -8 -7 -7 -7 -7 -7 -7 -7 -6 -6 -5 -4 -3 -3 -3
-17 -16 -15 -15 -15 -15 -17 -17 -20 -19 -22 -29 -30 -25 -25 -31 -30 -18 -20 -24 -24 -23 -22 -21 -20 -19 -16 -12 -10 -9 -9 -9 -9 -9 -9 -8 -8 -7 -7 -6 -5 -4 -4
-13 -14 -14 -13 -13 -12 -12 -12 -13 -13 -14 -17 -21 -17 -14 -15 -14 -13 -15 -20 -21 -21 -23 -24 -24 -23 -22 -21 -19 -15 -12 -11 -11 -11 -10 -10 -10 -9 -9 -8 -8 -7 -7
-18 -17 -18 -17 -15 -15 -15 -14 -13 -13 -13 -14 -18 -18 -14 -14 -15 -16 -16 -16 -20 -21 -25 -24 -21 -19 -18 -17 -17 -16 -16 -15 -13 -12 -12 -12 -11 -11 -11 -10 -9 -9 -9
-17 -15 -18 -19 -16 -15 -16 -16 -15 -15 -15 -14 -17 -18 -15 -15 -15 -16 -22 -24 -24 -25 -25 -20 -19 -19 -18 -18 -17 -16 -15 -15 -15 -14 -13 -13 -13 -13 -12 -12 -11 -10 -10
-23 -19 -18 -19 -20 -18 -17 -16 -17 -18 -18 -17 -19 -19 -18 -16 -16 -17 -20 -25 -27 -24 -20 -18 -18 -20 -21 -20 -18 -17 -17 -17 -16 -16 -16 -14 -13 -13 -13 -13 -13 -12 -12
-19 -19 -18 -19 -20 -19 -17 -17 -17 -18 -18 -19 -20 -22 -21 -19 -19 -19 -19 -20 -21 -22 -21 -21 -19 -20 -20 -21 -21 -20 -19 -19 -17 -17 -16 -15 -15 -14 -14 -14 -14 -15 -13
-16 -15 -15 -15 -16 -18 -17 -18 -18 -18 -18 -18 -19 -19 -20 -21 -21 -20 -19 -19 -19 -20 -21 -21 -22 -22 -22 -22 -22 -22 -22 -21 -22 -19 -17 -16 -16 -16 -15 -15 -15 -15 -16
-16 -16 -14 -14 -16 -16 -16 -16 -18 -17 -17 -18 -18 -19 -20 -20 -20 -20 -20 -20 -20 -20 -21 -21 -21 -22 -22 -23 -25 -25 -25 -25 -25 -23 -18 -18 -17 -16 -16 -16 -15 -16 -16
-16 -16 -16 -15 -15 -17 -16 -16 -16 -16 -16 -16 -17 -17 -17 -18 -19 -20 -21 -21 -21 -20 -21 -21 -22 -22 -22 -23 -24 -25 -27 -28 -28 -26 -19 -18 -18 -17 -17 -17 -16 -16 -16
-15 -16 -16 -17 -17 -17 -17 -17 -17 -17 -17 -17 -18 -18 -18 -17 -17 -18 -19 -20 -21 -23 -23 -22 -22 -22 -22 -23 -23 -24 -24 -25 -27 -27 -23 -19 -19 -18 -18 -18 -18 -18 -17
-16 -17 -17 -17 -17 -17 -17 -17 -18 -19 -18 -18 -18 -18 -18 -20 -20 -20 -18 -18 -18 -19 -23 -23 -23 -23 -22 -21 -23 -23 -23 -24 -25 -26 -21 -21 -21 -20 -19 -19 -18 -18 -18
-16 -17 -17 -18 -18 -18 -18 -18 -19 -18 -19 -19 -19 -19 -19 -19 -19 -20 -21 -21 -20 -19 -19 -21 -23 -24 -23 -22 -22 -24 -23 -24 -24 -26 -26 -21 -21 -21 -20 -20 -19 -19 -20
-17 -18 -19 -19 -19 -18 -19 -20 -19 -19 -20 -20 -20 -20 -20 -20 -20 -20 -20 -20 -20 -20 -20 -20 -21 -22 -23 -23 -22 -23 -23 -24 -24 -25 -25 -25 -24 -22 -21 -21 -20 -20 -20

GFSGL_850_dewp_126.txt.gz
Dewpoint
-7 -7 -6 -6 -5 -4 -4 -3 -2 -0 1 2 5 5 5 4 4 2 1 1 5 9 10 10 10 9 8 8 7 9 11 12 10 8 8 8 9 8 9 9 9 9 9
-7 -7 -7 -6 -6 -5 -4 -3 -2 -0 1 3 5 6 5 5 6 5 2 4 4 6 8 9 9 11 10 10 6 6 11 11 11 8 8 8 8 8 8 9 6 8 9
-7 -7 -7 -7 -7 -6 -5 -4 -3 -1 0 2 3 4 4 5 5 7 5 5 9 8 8 9 7 5 5 9 10 11 10 10 11 10 8 9 9 8 7 7 5 5 9
-6 -7 -7 -7 -7 -7 -6 -4 -3 -3 -2 -0 1 2 3 4 5 7 8 7 7 7 9 9 5 8 7 8 7 10 9 10 11 11 10 9 8 7 8 8 8 8 8
-6 -6 -7 -7 -7 -6 -6 -5 -3 -3 -3 -3 -2 -1 1 4 4 5 6 7 7 8 8 9 9 8 10 11 11 10 10 10 11 11 10 9 8 9 10 10 9 9 8
-6 -5 -5 -5 -5 -5 -5 -4 -4 -4 -3 -3 -3 -4 -2 -1 -0 1 2 3 4 3 4 5 5 7 8 9 11 11 11 11 11 11 10 10 10 10 10 9 9 9 9
-24 -18 -9 -6 -4 -4 -4 -3 -4 -3 -3 -4 -3 -4 -5 -3 -0 0 0 0 0 0 0 1 2 2 4 4 5 4 6 8 10 10 9 10 9 9 9 8 8 8 7
-32 -29 -29 -29 -28 -24 -19 -13 -8 -6 -4 -4 -4 -4 -5 -4 -3 -2 -1 -1 -1 -2 -1 -0 -0 -0 1 2 3 3 2 1 4 3 6 7 6 7 6 6 6 6 6
-30 -34 -34 -34 -34 -34 -35 -33 -30 -29 -28 -24 -18 -15 -11 -7 -4 -3 -2 -3 -4 -3 -2 -2 -1 -1 -1 0 1 1 1 0 0 -0 0 0 2 4 3 4 4 3 4
-18 -22 -27 -32 -35 -34 -33 -35 -34 -32 -31 -31 -32 -30 -28 -26 -25 -18 -10 -6 -5 -5 -5 -4 -4 -3 -2 -1 -0 -1 1 -0 -0 -1 -2 -1 -2 0 1 2 2 2 2
-17 -19 -22 -24 -27 -30 -33 -34 -32 -32 -33 -32 -30 -28 -29 -22 -22 -27 -25 -23 -15 -11 -8 -7 -7 -6 -5 -4 -3 -4 -4 -4 -3 -3 -2 -2 -2 -2 -1 -1 -0 -1 0
-20 -22 -22 -22 -23 -25 -28 -30 -33 -33 -30 -28 -28 -26 -22 -21 -20 -21 -24 -24 -24 -24 -17 -13 -10 -8 -7 -7 -6 -6 -6 -6 -5 -5 -5 -5 -5 -5 -4 -4 -3 -3 -2
-21 -23 -23 -22 -22 -23 -25 -26 -28 -29 -28 -23 -21 -22 -23 -21 -23 -26 -27 -25 -24 -25 -23 -22 -22 -23 -19 -12 -9 -9 -8 -8 -8 -8 -8 -8 -8 -8 -7 -6 -6 -5 -4
-24 -23 -22 -21 -20 -20 -19 -18 -21 -24 -23 -17 -16 -15 -17 -20 -17 -18 -25 -29 -28 -27 -28 -27 -27 -27 -26 -25 -24 -19 -12 -11 -11 -10 -10 -10 -10 -9 -9 -8 -8 -7 -6
-22 -19 -19 -18 -18 -18 -15 -13 -14 -15 -16 -15 -14 -15 -15 -16 -15 -15 -19 -25 -27 -27 -30 -32 -33 -32 -30 -28 -25 -23 -22 -20 -16 -13 -12 -12 -12 -11 -11 -10 -10 -9 -9
-25 -23 -21 -21 -20 -18 -17 -18 -16 -15 -15 -17 -15 -15 -15 -15 -16 -24 -27 -29 -31 -31 -34 -32 -29 -27 -26 -24 -23 -22 -20 -19 -18 -17 -15 -13 -13 -13 -13 -12 -12 -11 -10
-22 -20 -20 -20 -21 -20 -20 -20 -19 -20 -21 -20 -20 -16 -16 -16 -17 -17 -24 -27 -29 -30 -31 -29 -27 -26 -26 -25 -24 -23 -22 -21 -19 -18 -17 -15 -14 -14 -14 -14 -14 -13 -12
-20 -19 -19 -21 -20 -20 -21 -21 -21 -21 -22 -21 -21 -21 -18 -17 -17 -20 -24 -27 -27 -26 -26 -26 -27 -27 -27 -27 -26 -25 -25 -24 -23 -20 -18 -16 -15 -15 -15 -15 -15 -15 -14
-21 -20 -19 -19 -20 -19 -19 -20 -19 -20 -20 -20 -20 -21 -21 -21 -22 -23 -23 -24 -23 -23 -23 -23 -24 -25 -26 -26 -27 -27 -27 -28 -27 -24 -19 -17 -16 -16 -16 -16 -15 -15 -16
-20 -17 -17 -17 -18 -19 -18 -18 -18 -18 -18 -18 -19 -19 -20 -21 -21 -21 -22 -22 -23 -23 -23 -23 -23 -24 -24 -25 -26 -27 -29 -30 -30 -28 -23 -18 -17 -17 -17 -16 -16 -16 -16
-20 -19 -17 -17 -16 -17 -17 -17 -18 -17 -17 -17 -18 -19 -19 -19 -18 -20 -21 -22 -21 -21 -24 -24 -24 -24 -24 -24 -25 -26 -26 -27 -29 -29 -27 -20 -18 -18 -17 -17 -17 -16 -16
-19 -17 -17 -17 -17 -18 -17 -18 -17 -18 -18 -18 -18 -18 -19 -20 -20 -20 -21 -19 -18 -20 -20 -22 -23 -25 -25 -24 -24 -24 -25 -25 -26 -28 -27 -23 -20 -19 -19 -18 -18 -18 -18
-18 -17 -17 -18 -18 -17 -18 -18 -18 -19 -19 -18 -18 -19 -19 -19 -19 -20 -21 -20 -19 -20 -20 -19 -20 -23 -24 -25 -24 -24 -24 -24 -25 -26 -28 -24 -21 -21 -20 -19 -19 -19 -19
-18 -17 -17 -18 -18 -19 -19 -19 -20 -20 -19 -20 -20 -20 -19 -19 -20 -20 -20 -20 -21 -22 -22 -20 -20 -20 -22 -24 -24 -23 -24 -24 -24 -25 -26 -26 -24 -21 -21 -20 -20 -19 -19
-18 -17 -18 -20 -20 -21 -20 -21 -22 -22 -22 -22 -22 -21 -21 -21 -21 -22 -21 -21 -21 -20 -20 -20 -20 -21 -21 -22 -23 -23 -23 -24 -24 -24 -25 -25 -25 -23 -22 -21 -21 -20 -20
-20 -18 -20 -23 -25 -25 -26 -27 -27 -27 -26 -24 -24 -23 -23 -24 -24 -25 -24 -24 -24 -23 -22 -21 -21 -21 -21 -21 -22 -24 -23 -24 -24 -24 -24 -24 -24 -24 -24 -22 -22 -21 -20